Wetterdaten: aktuell Dienstag, 31.12.2019 23:59
Datum Zeit Temp. A. Feuchte A. Luftdruck Regen Wind Richtung Richtung Sonnenschein Windben
31.12.2019 23:59 -1.3 C 90 % 1023.1 hPa 0.0 l/m 0.7 km/h (0 Bft) O-SO 113 0 min 0.0 km/h (0 Bft)
31.12.2019 23:58 -1.3 C 90 % 1023.1 hPa 0.0 l/m 0.7 km/h (0 Bft) O-SO 113 0 min 0.0 km/h (0 Bft)
31.12.2019 23:57 -1.3 C 90 % 1023.4 hPa 0.0 l/m 0.7 km/h (0 Bft) NO 45 0 min 0.0 km/h (0 Bft)
31.12.2019 23:56 -1.3 C 90 % 1023.4 hPa 0.0 l/m 0.7 km/h (0 Bft) NO 45 0 min 0.0 km/h (0 Bft)
31.12.2019 23:55 -1.4 C 90 % 1023.4 hPa 0.0 l/m 0.7 km/h (0 Bft) NO 45 0 min 0.0 km/h (0 Bft)
31.12.2019 23:54 -1.4 C 90 % 1023.4 hPa 0.0 l/m 0.7 km/h (0 Bft) NO 45 0 min 0.0 km/h (0 Bft)
31.12.2019 23:53 -1.3 C 90 % 1023.4 hPa 0.0 l/m 0.6 km/h (0 Bft) SO 135 0 min 7.0 km/h (2 Bft)
31.12.2019 23:52 -1.3 C 90 % 1023.4 hPa 0.0 l/m 0.4 km/h (0 Bft) SO 135 0 min 4.7 km/h (1 Bft)
31.12.2019 23:51 -1.3 C 90 % 1023.4 hPa 0.0 l/m 0.4 km/h (0 Bft) SW 225 0 min 3.6 km/h (1 Bft)
31.12.2019 23:50 -1.3 C 90 % 1023.4 hPa 0.0 l/m 0.4 km/h (0 Bft) SW 225 0 min 3.6 km/h (1 Bft)
31.12.2019 23:49 -1.3 C 90 % 1023.4 hPa 0.0 l/m 0.4 km/h (0 Bft) S-SW 203 0 min 0.0 km/h (0 Bft)
31.12.2019 23:48 -1.3 C 90 % 1023.4 hPa 0.0 l/m 0.4 km/h (0 Bft) S-SW 203 0 min 0.0 km/h (0 Bft)
31.12.2019 23:47 -1.3 C 90 % 1023.4 hPa 0.0 l/m 0.4 km/h (0 Bft) S-SW 203 0 min 0.0 km/h (0 Bft)
31.12.2019 23:46 -1.3 C 90 % 1023.4 hPa 0.0 l/m 0.4 km/h (0 Bft) W 270 0 min 0.0 km/h (0 Bft)
31.12.2019 23:45 -1.3 C 90 % 1023.4 hPa 0.0 l/m 0.4 km/h (0 Bft) W 270 0 min 0.0 km/h (0 Bft)
31.12.2019 23:44 -1.3 C 90 % 1023.4 hPa 0.0 l/m 0.4 km/h (0 Bft) SW 225 0 min 0.0 km/h (0 Bft)
31.12.2019 23:43 -1.3 C 90 % 1023.4 hPa 0.0 l/m 0.4 km/h (0 Bft) SW 225 0 min 0.0 km/h (0 Bft)
31.12.2019 23:42 -1.3 C 90 % 1023.4 hPa 0.0 l/m 0.4 km/h (0 Bft) W-NW 293 0 min 0.0 km/h (0 Bft)
31.12.2019 23:41 -1.3 C 90 % 1023.4 hPa 0.0 l/m 0.4 km/h (0 Bft) W-NW 293 0 min 0.0 km/h (0 Bft)
31.12.2019 23:40 -1.3 C 90 % 1023.4 hPa 0.0 l/m 0.4 km/h (0 Bft) SW 225 0 min 4.3 km/h (1 Bft)
31.12.2019 23:39 -1.3 C 90 % 1023.4 hPa 0.0 l/m 0.4 km/h (0 Bft) SW 225 0 min 4.3 km/h (1 Bft)
31.12.2019 23:38 -1.1 C 90 % 1023.3 hPa 0.0 l/m 0.0 km/h (0 Bft) O-SO 113 0 min 0.0 km/h (0 Bft)
31.12.2019 23:37 -1.1 C 90 % 1023.3 hPa 0.0 l/m 0.0 km/h (0 Bft) O-SO 113 0 min 0.0 km/h (0 Bft)
31.12.2019 23:36 -1.1 C 90 % 1023.3 hPa 0.0 l/m 0.0 km/h (0 Bft) O-SO 113 0 min 0.0 km/h (0 Bft)
31.12.2019 23:35 -1.1 C 90 % 1023.3 hPa 0.0 l/m 0.0 km/h (0 Bft) O-SO 113 0 min 0.0 km/h (0 Bft)
31.12.2019 23:34 -1.1 C 90 % 1023.3 hPa 0.0 l/m 0.4 km/h (0 Bft) SW 225 0 min 0.0 km/h (0 Bft)
31.12.2019 23:33 -1.1 C 90 % 1023.3 hPa 0.0 l/m 0.4 km/h (0 Bft) SW 225 0 min 0.0 km/h (0 Bft)
31.12.2019 23:32 -1.1 C 90 % 1023.3 hPa 0.0 l/m 0.4 km/h (0 Bft) O-NO 68 0 min 0.0 km/h (0 Bft)
31.12.2019 23:31 -1.1 C 90 % 1023.3 hPa 0.0 l/m 0.4 km/h (0 Bft) O-NO 68 0 min 0.0 km/h (0 Bft)
31.12.2019 23:30 -1.2 C 90 % 1023.3 hPa 0.0 l/m 0.4 km/h (0 Bft) W-SW 248 0 min 0.0 km/h (0 Bft)
31.12.2019 23:29 -1.2 C 90 % 1023.3 hPa 0.0 l/m 0.4 km/h (0 Bft) W-SW 248 0 min 0.0 km/h (0 Bft)
31.12.2019 23:28 -1.2 C 90 % 1023.3 hPa 0.0 l/m 0.7 km/h (0 Bft) W-SW 248 0 min 0.0 km/h (0 Bft)
31.12.2019 23:27 -1.2 C 90 % 1023.3 hPa 0.0 l/m 0.7 km/h (0 Bft) W-SW 248 0 min 0.0 km/h (0 Bft)
31.12.2019 23:26 -1.2 C 90 % 1023.3 hPa 0.0 l/m 1.8 km/h (1 Bft) W 270 0 min 0.0 km/h (0 Bft)
31.12.2019 23:25 -1.2 C 90 % 1023.3 hPa 0.0 l/m 1.8 km/h (1 Bft) W 270 0 min 0.0 km/h (0 Bft)
31.12.2019 23:24 -1.2 C 90 % 1023.3 hPa 0.0 l/m 2.2 km/h (1 Bft) NO 45 0 min 2.9 km/h (1 Bft)
31.12.2019 23:23 -1.1 C 90 % 1023.3 hPa 0.0 l/m 2.2 km/h (1 Bft) NO 45 0 min 2.9 km/h (1 Bft)
31.12.2019 23:22 -1.1 C 90 % 1023.3 hPa 0.0 l/m 2.2 km/h (1 Bft) S 180 0 min 0.0 km/h (0 Bft)
31.12.2019 23:21 -1.1 C 90 % 1023.3 hPa 0.0 l/m 2.2 km/h (1 Bft) S 180 0 min 0.0 km/h (0 Bft)
31.12.2019 23:20 -1.1 C 90 % 1023.3 hPa 0.0 l/m 2.2 km/h (1 Bft) S 180 0 min 0.0 km/h (0 Bft)
31.12.2019 23:19 -1.1 C 90 % 1023.3 hPa 0.0 l/m 2.5 km/h (1 Bft) SW 225 0 min 4.0 km/h (1 Bft)
31.12.2019 23:18 -1.1 C 90 % 1023.3 hPa 0.0 l/m 2.5 km/h (1 Bft) SW 225 0 min 4.0 km/h (1 Bft)
31.12.2019 23:17 -1.1 C 90 % 1023.2 hPa 0.0 l/m 2.5 km/h (1 Bft) W-SW 248 0 min 4.3 km/h (1 Bft)
31.12.2019 23:16 -1.1 C 90 % 1023.2 hPa 0.0 l/m 2.5 km/h (1 Bft) W-SW 248 0 min 4.3 km/h (1 Bft)
31.12.2019 23:15 -1.1 C 90 % 1023.2 hPa 0.0 l/m 2.5 km/h (1 Bft) W-SW 248 0 min 4.3 km/h (1 Bft)
31.12.2019 23:14 -1.1 C 90 % 1023.2 hPa 0.0 l/m 2.5 km/h (1 Bft) W-SW 248 0 min 4.3 km/h (1 Bft)
31.12.2019 23:13 -1.1 C 90 % 1023.2 hPa 0.0 l/m 2.9 km/h (1 Bft) W-SW 248 0 min 3.6 km/h (1 Bft)
31.12.2019 23:12 -1.1 C 90 % 1023.2 hPa 0.0 l/m 2.9 km/h (1 Bft) W-SW 248 0 min 3.6 km/h (1 Bft)
31.12.2019 23:11 -1.1 C 90 % 1023.2 hPa 0.0 l/m 2.9 km/h (1 Bft) W 270 0 min 2.9 km/h (1 Bft)
31.12.2019 23:10 -1.1 C 90 % 1023.2 hPa 0.0 l/m 2.9 km/h (1 Bft) W 270 0 min 2.9 km/h (1 Bft)
31.12.2019 23:09 -0.9 C 90 % 1023.2 hPa 0.0 l/m 2.9 km/h (1 Bft) W-SW 248 0 min 2.5 km/h (1 Bft)
31.12.2019 23:08 -0.9 C 90 % 1023.2 hPa 0.0 l/m 2.9 km/h (1 Bft) W-SW 248 0 min 2.5 km/h (1 Bft)
31.12.2019 23:07 -1.0 C 90 % 1023.2 hPa 0.0 l/m 2.5 km/h (1 Bft) W-SW 248 0 min 3.6 km/h (1 Bft)
31.12.2019 23:06 -1.0 C 90 % 1023.2 hPa 0.0 l/m 2.5 km/h (1 Bft) W-SW 248 0 min 3.6 km/h (1 Bft)
31.12.2019 23:05 -1.0 C 90 % 1023.2 hPa 0.0 l/m 1.8 km/h (1 Bft) W-SW 248 0 min 4.0 km/h (1 Bft)
31.12.2019 23:04 -1.0 C 90 % 1023.2 hPa 0.0 l/m 1.8 km/h (1 Bft) W-SW 248 0 min 4.0 km/h (1 Bft)
31.12.2019 23:03 -1.0 C 90 % 1023.2 hPa 0.0 l/m 0.7 km/h (0 Bft) W-SW 248 0 min 4.3 km/h (1 Bft)
31.12.2019 23:02 -1.0 C 90 % 1023.2 hPa 0.0 l/m 0.4 km/h (0 Bft) W-SW 248 0 min 4.0 km/h (1 Bft)
31.12.2019 23:01 -1.0 C 90 % 1023.2 hPa 0.0 l/m 0.4 km/h (0 Bft) W-SW 248 0 min 4.0 km/h (1 Bft)
31.12.2019 23:00 -1.0 C 90 % 1023.2 hPa 0.0 l/m 0.0 km/h (0 Bft) W-SW 248 0 min 0.0 km/h (0 Bft)
31.12.2019 22:59 -1.0 C 90 % 1023.2 hPa 0.0 l/m 0.0 km/h (0 Bft) W-SW 248 0 min 0.0 km/h (0 Bft)
31.12.2019 22:58 -1.0 C 90 % 1023.1 hPa 0.0 l/m 0.0 km/h (0 Bft) N 0 0 min 0.0 km/h (0 Bft)
31.12.2019 22:57 -1.0 C 90 % 1023.1 hPa 0.0 l/m 0.0 km/h (0 Bft) N 0 0 min 0.0 km/h (0 Bft)
31.12.2019 22:56 -1.0 C 90 % 1023.1 hPa 0.0 l/m 0.0 km/h (0 Bft) N 0 0 min 0.0 km/h (0 Bft)
31.12.2019 22:55 -1.0 C 90 % 1023.1 hPa 0.0 l/m 0.0 km/h (0 Bft) N 0 0 min 0.0 km/h (0 Bft)
31.12.2019 22:54 -1.0 C 90 % 1023.1 hPa 0.0 l/m 0.4 km/h (0 Bft) O 90 0 min 0.0 km/h (0 Bft)
31.12.2019 22:53 -1.0 C 90 % 1023.1 hPa 0.0 l/m 0.4 km/h (0 Bft) O 90 0 min 0.0 km/h (0 Bft)
31.12.2019 22:52 -1.1 C 90 % 1023.1 hPa 0.0 l/m 0.4 km/h (0 Bft) O-NO 68 0 min 0.0 km/h (0 Bft)
31.12.2019 22:51 -1.1 C 90 % 1023.1 hPa 0.0 l/m 0.4 km/h (0 Bft) O-NO 68 0 min 0.0 km/h (0 Bft)
31.12.2019 22:50 -1.1 C 90 % 1023.1 hPa 0.0 l/m 0.4 km/h (0 Bft) N 0 0 min 0.0 km/h (0 Bft)
31.12.2019 22:49 -1.1 C 90 % 1023.1 hPa 0.0 l/m 0.4 km/h (0 Bft) N 0 0 min 0.0 km/h (0 Bft)
31.12.2019 22:48 -1.1 C 90 % 1023.1 hPa 0.0 l/m 0.7 km/h (0 Bft) S-SW 203 0 min 0.0 km/h (0 Bft)
31.12.2019 22:47 -1.1 C 90 % 1023.1 hPa 0.0 l/m 0.7 km/h (0 Bft) S-SW 203 0 min 0.0 km/h (0 Bft)
31.12.2019 22:46 -1.1 C 90 % 1023.1 hPa 0.0 l/m 1.4 km/h (1 Bft) S-SO 158 0 min 0.0 km/h (0 Bft)
31.12.2019 22:45 -1.1 C 90 % 1023.1 hPa 0.0 l/m 1.4 km/h (1 Bft) S-SO 158 0 min 0.0 km/h (0 Bft)
31.12.2019 22:44 -1.1 C 90 % 1023.1 hPa 0.0 l/m 1.4 km/h (1 Bft) NO 45 0 min 4.3 km/h (1 Bft)
31.12.2019 22:43 -1.1 C 90 % 1023.1 hPa 0.0 l/m 1.4 km/h (1 Bft) NO 45 0 min 4.3 km/h (1 Bft)
31.12.2019 22:42 -1.1 C 90 % 1023.1 hPa 0.0 l/m 1.4 km/h (1 Bft) O-NO 68 0 min 0.0 km/h (0 Bft)
31.12.2019 22:41 -1.1 C 89 % 1023.1 hPa 0.0 l/m 1.4 km/h (1 Bft) O-NO 68 0 min 0.0 km/h (0 Bft)
31.12.2019 22:40 -1.1 C 89 % 1023.1 hPa 0.0 l/m 1.8 km/h (1 Bft) SO 135 0 min 0.0 km/h (0 Bft)
31.12.2019 22:39 -1.1 C 89 % 1023.1 hPa 0.0 l/m 1.8 km/h (1 Bft) SO 135 0 min 0.0 km/h (0 Bft)
31.12.2019 22:38 -1.1 C 89 % 1022.9 hPa 0.0 l/m 1.8 km/h (1 Bft) SO 135 0 min 0.0 km/h (0 Bft)
31.12.2019 22:37 -1.1 C 90 % 1022.9 hPa 0.0 l/m 2.2 km/h (1 Bft) W-SW 248 0 min 2.9 km/h (1 Bft)
31.12.2019 22:36 -1.1 C 90 % 1022.9 hPa 0.0 l/m 2.2 km/h (1 Bft) W-SW 248 0 min 2.9 km/h (1 Bft)
31.12.2019 22:35 -1.1 C 90 % 1022.9 hPa 0.0 l/m 2.2 km/h (1 Bft) W-SW 248 0 min 2.9 km/h (1 Bft)
31.12.2019 22:34 -1.1 C 90 % 1022.9 hPa 0.0 l/m 2.2 km/h (1 Bft) W-SW 248 0 min 2.9 km/h (1 Bft)
31.12.2019 22:33 -1.1 C 89 % 1022.9 hPa 0.0 l/m 2.2 km/h (1 Bft) W-SW 248 0 min 0.0 km/h (0 Bft)
31.12.2019 22:32 -1.1 C 89 % 1022.9 hPa 0.0 l/m 2.2 km/h (1 Bft) W-SW 248 0 min 0.0 km/h (0 Bft)
31.12.2019 22:31 -1.1 C 89 % 1022.9 hPa 0.0 l/m 1.8 km/h (1 Bft) SW 225 0 min 2.9 km/h (1 Bft)
31.12.2019 22:30 -1.1 C 89 % 1022.9 hPa 0.0 l/m 1.8 km/h (1 Bft) SW 225 0 min 2.9 km/h (1 Bft)
31.12.2019 22:29 -1.1 C 89 % 1022.9 hPa 0.0 l/m 1.4 km/h (1 Bft) W-SW 248 0 min 5.0 km/h (1 Bft)
31.12.2019 22:28 -1.1 C 89 % 1022.9 hPa 0.0 l/m 1.4 km/h (1 Bft) W-SW 248 0 min 5.0 km/h (1 Bft)
31.12.2019 22:27 -1.1 C 89 % 1022.9 hPa 0.0 l/m 0.7 km/h (0 Bft) W-SW 248 0 min 4.3 km/h (1 Bft)
31.12.2019 22:26 -1.1 C 89 % 1022.9 hPa 0.0 l/m 0.7 km/h (0 Bft) W-SW 248 0 min 4.3 km/h (1 Bft)
31.12.2019 22:25 -1.1 C 89 % 1022.9 hPa 0.0 l/m 0.4 km/h (0 Bft) W-SW 248 0 min 0.0 km/h (0 Bft)
31.12.2019 22:24 -1.1 C 89 % 1022.9 hPa 0.0 l/m 0.4 km/h (0 Bft) W-SW 248 0 min 0.0 km/h (0 Bft)
31.12.2019 22:23 -1.1 C 89 % 1022.9 hPa 0.0 l/m 0.4 km/h (0 Bft) W 270 0 min 0.0 km/h (0 Bft)
31.12.2019 22:22 -1.1 C 89 % 1022.9 hPa 0.0 l/m 0.4 km/h (0 Bft) W 270 0 min 0.0 km/h (0 Bft)
31.12.2019 22:21 -1.1 C 89 % 1022.9 hPa 0.0 l/m 0.4 km/h (0 Bft) SW 225 0 min 0.0 km/h (0 Bft)
31.12.2019 22:20 -1.1 C 89 % 1022.9 hPa 0.0 l/m 0.4 km/h (0 Bft) S-SW 203 0 min 0.0 km/h (0 Bft)
31.12.2019 22:19 -1.1 C 89 % 1022.9 hPa 0.0 l/m 0.4 km/h (0 Bft) S-SW 203 0 min 0.0 km/h (0 Bft)
31.12.2019 22:18 -1.1 C 90 % 1022.9 hPa 0.0 l/m 0.4 km/h (0 Bft) W-SW 248 0 min 2.5 km/h (1 Bft)
31.12.2019 22:17 -1.1 C 90 % 1022.9 hPa 0.0 l/m 0.4 km/h (0 Bft) W-SW 248 0 min 2.5 km/h (1 Bft)
31.12.2019 22:16 -1.1 C 90 % 1022.9 hPa 0.0 l/m 0.4 km/h (0 Bft) W-SW 248 0 min 2.5 km/h (1 Bft)
31.12.2019 22:15 -1.1 C 90 % 1022.9 hPa 0.0 l/m 0.4 km/h (0 Bft) W-SW 248 0 min 2.5 km/h (1 Bft)
31.12.2019 22:14 -1.1 C 90 % 1022.9 hPa 0.0 l/m 0.4 km/h (0 Bft) W-SW 248 0 min 2.9 km/h (1 Bft)
31.12.2019 22:13 -1.1 C 90 % 1022.9 hPa 0.0 l/m 0.4 km/h (0 Bft) W-SW 248 0 min 2.9 km/h (1 Bft)
31.12.2019 22:12 -1.1 C 90 % 1022.9 hPa 0.0 l/m 0.4 km/h (0 Bft) S-SW 203 0 min 0.0 km/h (0 Bft)
31.12.2019 22:11 -1.1 C 90 % 1022.9 hPa 0.0 l/m 0.4 km/h (0 Bft) S-SW 203 0 min 0.0 km/h (0 Bft)
31.12.2019 22:10 -1.1 C 90 % 1022.9 hPa 0.0 l/m 0.4 km/h (0 Bft) S-SW 203 0 min 0.0 km/h (0 Bft)
31.12.2019 22:09 -1.1 C 90 % 1022.9 hPa 0.0 l/m 0.4 km/h (0 Bft) S-SW 203 0 min 0.0 km/h (0 Bft)
31.12.2019 22:08 -1.2 C 90 % 1022.9 hPa 0.0 l/m 0.4 km/h (0 Bft) SO 135 0 min 0.0 km/h (0 Bft)
31.12.2019 22:07 -1.2 C 90 % 1022.9 hPa 0.0 l/m 0.4 km/h (0 Bft) SO 135 0 min 0.0 km/h (0 Bft)
31.12.2019 22:06 -1.1 C 90 % 1022.9 hPa 0.0 l/m 0.4 km/h (0 Bft) SW 225 0 min 0.0 km/h (0 Bft)
31.12.2019 22:05 -1.1 C 90 % 1022.9 hPa 0.0 l/m 0.4 km/h (0 Bft) SW 225 0 min 0.0 km/h (0 Bft)
31.12.2019 22:04 -1.1 C 90 % 1022.9 hPa 0.0 l/m 0.4 km/h (0 Bft) N-NO 23 0 min 3.6 km/h (1 Bft)
31.12.2019 22:03 -1.1 C 90 % 1022.9 hPa 0.0 l/m 0.4 km/h (0 Bft) N-NO 23 0 min 3.6 km/h (1 Bft)
31.12.2019 22:02 -1.1 C 89 % 1022.9 hPa 0.0 l/m 0.4 km/h (0 Bft) SW 225 0 min 0.0 km/h (0 Bft)
31.12.2019 22:01 -1.1 C 89 % 1022.9 hPa 0.0 l/m 0.4 km/h (0 Bft) SW 225 0 min 0.0 km/h (0 Bft)
31.12.2019 22:00 -1.1 C 89 % 1022.9 hPa 0.0 l/m 0.4 km/h (0 Bft) NW 315 0 min 0.0 km/h (0 Bft)
31.12.2019 21:59 -1.3 C 89 % 1022.9 hPa 0.0 l/m 0.4 km/h (0 Bft) NW 315 0 min 0.0 km/h (0 Bft)
31.12.2019 21:58 -1.3 C 89 % 1022.8 hPa 0.0 l/m 0.7 km/h (0 Bft) SW 225 0 min 0.0 km/h (0 Bft)
31.12.2019 21:57 -1.3 C 89 % 1022.8 hPa 0.0 l/m 0.7 km/h (0 Bft) SW 225 0 min 0.0 km/h (0 Bft)
31.12.2019 21:56 -1.3 C 89 % 1022.8 hPa 0.0 l/m 0.7 km/h (0 Bft) SW 225 0 min 0.0 km/h (0 Bft)
31.12.2019 21:55 -1.3 C 89 % 1022.8 hPa 0.0 l/m 0.7 km/h (0 Bft) SW 225 0 min 0.0 km/h (0 Bft)
31.12.2019 21:54 -1.3 C 89 % 1022.8 hPa 0.0 l/m 0.7 km/h (0 Bft) SW 225 0 min 0.0 km/h (0 Bft)
31.12.2019 21:53 -1.4 C 89 % 1022.8 hPa 0.0 l/m 0.7 km/h (0 Bft) W 270 0 min 0.0 km/h (0 Bft)
31.12.2019 21:52 -1.4 C 89 % 1022.8 hPa 0.0 l/m 0.7 km/h (0 Bft) W 270 0 min 0.0 km/h (0 Bft)
31.12.2019 21:51 -1.4 C 89 % 1022.8 hPa 0.0 l/m 0.7 km/h (0 Bft) SW 225 0 min 0.0 km/h (0 Bft)
31.12.2019 21:50 -1.4 C 89 % 1022.8 hPa 0.0 l/m 0.7 km/h (0 Bft) SW 225 0 min 0.0 km/h (0 Bft)
31.12.2019 21:49 -1.3 C 89 % 1022.8 hPa 0.0 l/m 0.4 km/h (0 Bft) W-SW 248 0 min 0.0 km/h (0 Bft)
31.12.2019 21:48 -1.3 C 89 % 1022.8 hPa 0.0 l/m 0.4 km/h (0 Bft) W-SW 248 0 min 0.0 km/h (0 Bft)
31.12.2019 21:47 -1.3 C 89 % 1022.8 hPa 0.0 l/m 0.4 km/h (0 Bft) W-SW 248 0 min 2.9 km/h (1 Bft)
31.12.2019 21:46 -1.3 C 89 % 1022.8 hPa 0.0 l/m 0.4 km/h (0 Bft) W-SW 248 0 min 2.9 km/h (1 Bft)
31.12.2019 21:45 -1.5 C 89 % 1022.8 hPa 0.0 l/m 0.0 km/h (0 Bft) W 270 0 min 0.0 km/h (0 Bft)
31.12.2019 21:44 -1.5 C 89 % 1022.8 hPa 0.0 l/m 0.0 km/h (0 Bft) W 270 0 min 0.0 km/h (0 Bft)
31.12.2019 21:43 -1.5 C 89 % 1022.8 hPa 0.0 l/m 0.0 km/h (0 Bft) W-SW 248 0 min 0.0 km/h (0 Bft)
31.12.2019 21:42 -1.5 C 89 % 1022.8 hPa 0.0 l/m 0.0 km/h (0 Bft) W-SW 248 0 min 0.0 km/h (0 Bft)
31.12.2019 21:41 -1.5 C 88 % 1022.8 hPa 0.0 l/m 0.0 km/h (0 Bft) NW 315 0 min 0.0 km/h (0 Bft)
31.12.2019 21:40 -1.5 C 88 % 1022.8 hPa 0.0 l/m 0.0 km/h (0 Bft) NW 315 0 min 0.0 km/h (0 Bft)
31.12.2019 21:39 -1.5 C 89 % 1022.8 hPa 0.0 l/m 0.0 km/h (0 Bft) W 270 0 min 0.0 km/h (0 Bft)
31.12.2019 21:38 -1.5 C 88 % 1022.6 hPa 0.0 l/m 0.4 km/h (0 Bft) W 270 0 min 0.0 km/h (0 Bft)
31.12.2019 21:37 -1.5 C 88 % 1022.4 hPa 0.0 l/m 0.7 km/h (0 Bft) W-SW 248 0 min 0.0 km/h (0 Bft)
31.12.2019 21:36 -1.5 C 88 % 1022.4 hPa 0.0 l/m 0.7 km/h (0 Bft) W-SW 248 0 min 0.0 km/h (0 Bft)
31.12.2019 21:35 -1.5 C 88 % 1022.4 hPa 0.0 l/m 0.7 km/h (0 Bft) W-SW 248 0 min 0.0 km/h (0 Bft)
31.12.2019 21:34 -1.5 C 88 % 1022.4 hPa 0.0 l/m 0.7 km/h (0 Bft) W-NW 293 0 min 0.0 km/h (0 Bft)
31.12.2019 21:33 -1.5 C 88 % 1022.4 hPa 0.0 l/m 0.7 km/h (0 Bft) W-NW 293 0 min 0.0 km/h (0 Bft)
31.12.2019 21:32 -1.5 C 88 % 1022.4 hPa 0.0 l/m 0.7 km/h (0 Bft) W-SW 248 0 min 0.0 km/h (0 Bft)
31.12.2019 21:31 -1.5 C 88 % 1022.4 hPa 0.0 l/m 0.7 km/h (0 Bft) W-SW 248 0 min 0.0 km/h (0 Bft)
31.12.2019 21:30 -1.5 C 88 % 1022.4 hPa 0.0 l/m 0.7 km/h (0 Bft) W 270 0 min 2.9 km/h (1 Bft)
31.12.2019 21:29 -1.5 C 88 % 1022.4 hPa 0.0 l/m 0.7 km/h (0 Bft) W 270 0 min 2.9 km/h (1 Bft)
31.12.2019 21:28 -1.5 C 88 % 1022.4 hPa 0.0 l/m 0.4 km/h (0 Bft) W-SW 248 0 min 3.6 km/h (1 Bft)
31.12.2019 21:27 -1.5 C 88 % 1022.4 hPa 0.0 l/m 0.4 km/h (0 Bft) W-SW 248 0 min 3.6 km/h (1 Bft)
31.12.2019 21:26 -1.5 C 88 % 1022.4 hPa 0.0 l/m 0.0 km/h (0 Bft) W-SW 248 0 min 0.0 km/h (0 Bft)
31.12.2019 21:25 -1.5 C 88 % 1022.4 hPa 0.0 l/m 0.0 km/h (0 Bft) W-SW 248 0 min 0.0 km/h (0 Bft)
31.12.2019 21:24 -1.5 C 88 % 1022.4 hPa 0.0 l/m 0.0 km/h (0 Bft) W-SW 248 0 min 0.0 km/h (0 Bft)
31.12.2019 21:23 -1.5 C 88 % 1022.4 hPa 0.0 l/m 0.0 km/h (0 Bft) W-SW 248 0 min 0.0 km/h (0 Bft)
31.12.2019 21:22 -1.5 C 88 % 1022.4 hPa 0.0 l/m 0.0 km/h (0 Bft) W 270 0 min 0.0 km/h (0 Bft)
31.12.2019 21:21 -1.5 C 88 % 1022.4 hPa 0.0 l/m 0.0 km/h (0 Bft) W 270 0 min 0.0 km/h (0 Bft)
31.12.2019 21:20 -1.3 C 88 % 1022.4 hPa 0.0 l/m 0.0 km/h (0 Bft) W-SW 248 0 min 0.0 km/h (0 Bft)
31.12.2019 21:19 -1.3 C 88 % 1022.4 hPa 0.0 l/m 0.0 km/h (0 Bft) W-SW 248 0 min 0.0 km/h (0 Bft)
31.12.2019 21:18 -1.4 C 88 % 1022.5 hPa 0.0 l/m 0.0 km/h (0 Bft) W-NW 293 0 min 0.0 km/h (0 Bft)
31.12.2019 21:17 -1.4 C 88 % 1022.5 hPa 0.0 l/m 0.0 km/h (0 Bft) W-NW 293 0 min 0.0 km/h (0 Bft)
31.12.2019 21:16 -1.4 C 88 % 1022.5 hPa 0.0 l/m 0.0 km/h (0 Bft) W-NW 293 0 min 0.0 km/h (0 Bft)
31.12.2019 21:15 -1.4 C 88 % 1022.5 hPa 0.0 l/m 0.0 km/h (0 Bft) W-NW 293 0 min 0.0 km/h (0 Bft)
31.12.2019 21:14 -1.4 C 88 % 1022.5 hPa 0.0 l/m 0.0 km/h (0 Bft) NW 315 0 min 0.0 km/h (0 Bft)
31.12.2019 21:13 -1.3 C 88 % 1022.5 hPa 0.0 l/m 0.0 km/h (0 Bft) NW 315 0 min 0.0 km/h (0 Bft)
31.12.2019 21:12 -1.3 C 88 % 1022.5 hPa 0.0 l/m 0.0 km/h (0 Bft) NW 315 0 min 0.0 km/h (0 Bft)
31.12.2019 21:11 -1.4 C 88 % 1022.5 hPa 0.0 l/m 0.0 km/h (0 Bft) O 90 0 min 0.0 km/h (0 Bft)
31.12.2019 21:10 -1.4 C 88 % 1022.5 hPa 0.0 l/m 0.0 km/h (0 Bft) O 90 0 min 0.0 km/h (0 Bft)
31.12.2019 21:09 -1.4 C 88 % 1022.5 hPa 0.0 l/m 0.0 km/h (0 Bft) W 270 0 min 0.0 km/h (0 Bft)
31.12.2019 21:08 -1.4 C 88 % 1022.5 hPa 0.0 l/m 0.0 km/h (0 Bft) W 270 0 min 0.0 km/h (0 Bft)
31.12.2019 21:07 -1.3 C 88 % 1022.5 hPa 0.0 l/m 0.0 km/h (0 Bft) W-NW 293 0 min 0.0 km/h (0 Bft)
31.12.2019 21:06 -1.3 C 88 % 1022.5 hPa 0.0 l/m 0.0 km/h (0 Bft) W-NW 293 0 min 0.0 km/h (0 Bft)
31.12.2019 21:05 -1.3 C 88 % 1022.5 hPa 0.0 l/m 0.0 km/h (0 Bft) W-SW 248 0 min 0.0 km/h (0 Bft)
31.12.2019 21:04 -1.3 C 88 % 1022.5 hPa 0.0 l/m 0.0 km/h (0 Bft) W-SW 248 0 min 0.0 km/h (0 Bft)
31.12.2019 21:03 -1.3 C 88 % 1022.5 hPa 0.0 l/m 0.0 km/h (0 Bft) W 270 0 min 0.0 km/h (0 Bft)
31.12.2019 21:02 -1.3 C 88 % 1022.5 hPa 0.0 l/m 0.0 km/h (0 Bft) W 270 0 min 0.0 km/h (0 Bft)
31.12.2019 21:01 -1.3 C 88 % 1022.5 hPa 0.0 l/m 0.0 km/h (0 Bft) SW 225 0 min 0.0 km/h (0 Bft)
31.12.2019 21:00 -1.3 C 88 % 1022.5 hPa 0.0 l/m 0.0 km/h (0 Bft) SW 225 0 min 0.0 km/h (0 Bft)
31.12.2019 20:59 -1.3 C 88 % 1022.5 hPa 0.0 l/m 0.0 km/h (0 Bft) SW 225 0 min 0.0 km/h (0 Bft)
31.12.2019 20:58 -1.3 C 88 % 1022.5 hPa 0.0 l/m 0.0 km/h (0 Bft) SW 225 0 min 0.0 km/h (0 Bft)
31.12.2019 20:57 -1.1 C 88 % 1022.5 hPa 0.0 l/m 0.0 km/h (0 Bft) W-SW 248 0 min 0.0 km/h (0 Bft)
31.12.2019 20:56 -1.1 C 88 % 1022.5 hPa 0.0 l/m 0.0 km/h (0 Bft) W-SW 248 0 min 0.0 km/h (0 Bft)
31.12.2019 20:55 -1.1 C 88 % 1022.9 hPa 0.0 l/m 0.0 km/h (0 Bft) W-SW 248 0 min 0.0 km/h (0 Bft)
31.12.2019 20:54 -1.2 C 88 % 1022.9 hPa 0.0 l/m 0.0 km/h (0 Bft) W-SW 248 0 min 0.0 km/h (0 Bft)
31.12.2019 20:53 -1.2 C 88 % 1022.9 hPa 0.0 l/m 0.0 km/h (0 Bft) W-SW 248 0 min 0.0 km/h (0 Bft)
31.12.2019 20:52 -1.1 C 88 % 1022.9 hPa 0.0 l/m 0.4 km/h (0 Bft) W 270 0 min 0.0 km/h (0 Bft)
31.12.2019 20:51 -1.1 C 88 % 1022.9 hPa 0.0 l/m 0.4 km/h (0 Bft) W 270 0 min 0.0 km/h (0 Bft)
31.12.2019 20:50 -1.1 C 88 % 1022.9 hPa 0.0 l/m 0.4 km/h (0 Bft) W-SW 248 0 min 0.0 km/h (0 Bft)
31.12.2019 20:49 -1.1 C 88 % 1022.9 hPa 0.0 l/m 0.4 km/h (0 Bft) W-SW 248 0 min 0.0 km/h (0 Bft)
31.12.2019 20:48 -1.1 C 88 % 1022.9 hPa 0.0 l/m 0.4 km/h (0 Bft) W-SW 248 0 min 0.0 km/h (0 Bft)
31.12.2019 20:47 -1.1 C 88 % 1022.9 hPa 0.0 l/m 0.4 km/h (0 Bft) W-SW 248 0 min 0.0 km/h (0 Bft)
31.12.2019 20:46 -1.1 C 88 % 1022.9 hPa 0.0 l/m 0.4 km/h (0 Bft) W-SW 248 0 min 0.0 km/h (0 Bft)
31.12.2019 20:45 -1.1 C 88 % 1022.9 hPa 0.0 l/m 0.4 km/h (0 Bft) W-SW 248 0 min 0.0 km/h (0 Bft)
31.12.2019 20:44 -1.1 C 88 % 1022.9 hPa 0.0 l/m 0.0 km/h (0 Bft) W-SW 248 0 min 0.0 km/h (0 Bft)
31.12.2019 20:43 -1.1 C 88 % 1022.9 hPa 0.0 l/m 0.0 km/h (0 Bft) W-SW 248 0 min 0.0 km/h (0 Bft)
31.12.2019 20:42 -1.0 C 89 % 1022.9 hPa 0.0 l/m 0.0 km/h (0 Bft) W-SW 248 0 min 0.0 km/h (0 Bft)
31.12.2019 20:41 -1.0 C 89 % 1022.9 hPa 0.0 l/m 0.0 km/h (0 Bft) W-SW 248 0 min 0.0 km/h (0 Bft)
31.12.2019 20:40 -1.0 C 89 % 1022.9 hPa 0.0 l/m 0.0 km/h (0 Bft) W-SW 248 0 min 0.0 km/h (0 Bft)
31.12.2019 20:39 -1.0 C 89 % 1022.9 hPa 0.0 l/m 0.0 km/h (0 Bft) W-SW 248 0 min 0.0 km/h (0 Bft)
31.12.2019 20:38 -0.9 C 89 % 1022.9 hPa 0.0 l/m 0.0 km/h (0 Bft) W-NW 293 0 min 0.0 km/h (0 Bft)
31.12.2019 20:37 -0.9 C 89 % 1022.9 hPa 0.0 l/m 0.0 km/h (0 Bft) W-NW 293 0 min 0.0 km/h (0 Bft)
31.12.2019 20:36 -0.9 C 89 % 1023.1 hPa 0.0 l/m 0.0 km/h (0 Bft) W-NW 293 0 min 0.0 km/h (0 Bft)
31.12.2019 20:35 -0.9 C 89 % 1023.1 hPa 0.0 l/m 0.0 km/h (0 Bft) W-NW 293 0 min 0.0 km/h (0 Bft)
31.12.2019 20:34 -0.9 C 89 % 1023.1 hPa 0.0 l/m 0.0 km/h (0 Bft) N 0 0 min 0.0 km/h (0 Bft)
31.12.2019 20:33 -0.9 C 89 % 1023.1 hPa 0.0 l/m 0.0 km/h (0 Bft) N 0 0 min 0.0 km/h (0 Bft)
31.12.2019 20:32 -0.9 C 89 % 1023.1 hPa 0.0 l/m 0.0 km/h (0 Bft) W-SW 248 0 min 0.0 km/h (0 Bft)
31.12.2019 20:31 -0.9 C 89 % 1023.1 hPa 0.0 l/m 0.0 km/h (0 Bft) W-SW 248 0 min 0.0 km/h (0 Bft)
31.12.2019 20:30 -0.9 C 89 % 1023.1 hPa 0.0 l/m 0.0 km/h (0 Bft) SW 225 0 min 0.0 km/h (0 Bft)
31.12.2019 20:29 -0.9 C 89 % 1023.1 hPa 0.0 l/m 0.0 km/h (0 Bft) SW 225 0 min 0.0 km/h (0 Bft)
31.12.2019 20:28 -0.9 C 89 % 1023.1 hPa 0.0 l/m 0.0 km/h (0 Bft) SW 225 0 min 0.0 km/h (0 Bft)
31.12.2019 20:27 -0.9 C 89 % 1023.1 hPa 0.0 l/m 0.0 km/h (0 Bft) SW 225 0 min 0.0 km/h (0 Bft)
31.12.2019 20:26 -0.9 C 89 % 1023.1 hPa 0.0 l/m 0.0 km/h (0 Bft) SW 225 0 min 0.0 km/h (0 Bft)
31.12.2019 20:25 -0.7 C 89 % 1023.1 hPa 0.0 l/m 0.0 km/h (0 Bft) SW 225 0 min 0.0 km/h (0 Bft)
31.12.2019 20:24 -0.7 C 89 % 1023.1 hPa 0.0 l/m 0.0 km/h (0 Bft) SW 225 0 min 0.0 km/h (0 Bft)
31.12.2019 20:23 -0.7 C 89 % 1023.1 hPa 0.0 l/m 0.0 km/h (0 Bft) O-NO 68 0 min 0.0 km/h (0 Bft)
31.12.2019 20:22 -0.7 C 89 % 1023.1 hPa 0.0 l/m 0.0 km/h (0 Bft) O-NO 68 0 min 0.0 km/h (0 Bft)
31.12.2019 20:21 -0.7 C 89 % 1023.1 hPa 0.0 l/m 0.0 km/h (0 Bft) NO 45 0 min 0.0 km/h (0 Bft)
31.12.2019 20:20 -0.7 C 89 % 1023.1 hPa 0.0 l/m 0.0 km/h (0 Bft) NO 45 0 min 0.0 km/h (0 Bft)
31.12.2019 20:19 -0.7 C 89 % 1023.1 hPa 0.0 l/m 0.4 km/h (0 Bft) N-NO 23 0 min 0.0 km/h (0 Bft)
31.12.2019 20:18 -0.7 C 89 % 1023.1 hPa 0.0 l/m 0.4 km/h (0 Bft) N-NO 23 0 min 0.0 km/h (0 Bft)
31.12.2019 20:17 -0.7 C 89 % 1023.1 hPa 0.0 l/m 0.4 km/h (0 Bft) O 90 0 min 0.0 km/h (0 Bft)
31.12.2019 20:16 -0.7 C 89 % 1023.1 hPa 0.0 l/m 0.4 km/h (0 Bft) O 90 0 min 0.0 km/h (0 Bft)
31.12.2019 20:15 -0.7 C 89 % 1022.6 hPa 0.0 l/m 0.4 km/h (0 Bft) O 90 0 min 0.0 km/h (0 Bft)
31.12.2019 20:14 -0.7 C 89 % 1022.6 hPa 0.0 l/m 0.4 km/h (0 Bft) O 90 0 min 0.0 km/h (0 Bft)
31.12.2019 20:13 -0.8 C 89 % 1022.6 hPa 0.0 l/m 0.7 km/h (0 Bft) O-NO 68 0 min 0.0 km/h (0 Bft)
31.12.2019 20:12 -0.8 C 89 % 1022.6 hPa 0.0 l/m 0.7 km/h (0 Bft) O-NO 68 0 min 0.0 km/h (0 Bft)
31.12.2019 20:11 -0.8 C 89 % 1022.6 hPa 0.0 l/m 0.7 km/h (0 Bft) W-SW 248 0 min 0.0 km/h (0 Bft)
31.12.2019 20:10 -0.7 C 89 % 1022.6 hPa 0.0 l/m 0.7 km/h (0 Bft) SO 135 0 min 0.0 km/h (0 Bft)
31.12.2019 20:09 -0.7 C 89 % 1022.6 hPa 0.0 l/m 0.7 km/h (0 Bft) SO 135 0 min 0.0 km/h (0 Bft)
31.12.2019 20:08 -0.8 C 89 % 1022.6 hPa 0.0 l/m 0.7 km/h (0 Bft) W-NW 293 0 min 0.0 km/h (0 Bft)
31.12.2019 20:07 -0.8 C 89 % 1022.6 hPa 0.0 l/m 0.7 km/h (0 Bft) W-NW 293 0 min 0.0 km/h (0 Bft)
31.12.2019 20:06 -0.8 C 89 % 1022.6 hPa 0.0 l/m 0.7 km/h (0 Bft) W-NW 293 0 min 0.0 km/h (0 Bft)
31.12.2019 20:05 -0.8 C 89 % 1022.6 hPa 0.0 l/m 0.7 km/h (0 Bft) W-NW 293 0 min 0.0 km/h (0 Bft)
31.12.2019 20:04 -0.7 C 89 % 1022.6 hPa 0.0 l/m 0.4 km/h (0 Bft) W 270 0 min 0.0 km/h (0 Bft)
31.12.2019 20:03 -0.7 C 89 % 1022.6 hPa 0.0 l/m 0.4 km/h (0 Bft) W 270 0 min 0.0 km/h (0 Bft)
31.12.2019 20:02 -0.7 C 89 % 1022.6 hPa 0.0 l/m 0.4 km/h (0 Bft) S 180 0 min 4.3 km/h (1 Bft)
31.12.2019 20:01 -0.7 C 89 % 1022.6 hPa 0.0 l/m 0.4 km/h (0 Bft) S 180 0 min 4.3 km/h (1 Bft)
31.12.2019 20:00 -0.7 C 89 % 1022.6 hPa 0.0 l/m 0.4 km/h (0 Bft) W-NW 293 0 min 0.0 km/h (0 Bft)
31.12.2019 19:59 -0.7 C 89 % 1022.6 hPa 0.0 l/m 0.4 km/h (0 Bft) W-NW 293 0 min 0.0 km/h (0 Bft)
31.12.2019 19:58 -0.7 C 89 % 1022.6 hPa 0.0 l/m 0.0 km/h (0 Bft) S-SW 203 0 min 0.0 km/h (0 Bft)
31.12.2019 19:57 -0.7 C 89 % 1022.6 hPa 0.0 l/m 0.0 km/h (0 Bft) S-SW 203 0 min 0.0 km/h (0 Bft)
31.12.2019 19:56 -0.7 C 89 % 1022.4 hPa 0.0 l/m 0.0 km/h (0 Bft) S-SW 203 0 min 0.0 km/h (0 Bft)
31.12.2019 19:55 -0.7 C 89 % 1022.4 hPa 0.0 l/m 0.0 km/h (0 Bft) S-SW 203 0 min 0.0 km/h (0 Bft)
31.12.2019 19:54 -0.7 C 89 % 1022.4 hPa 0.0 l/m 0.4 km/h (0 Bft) N 0 0 min 0.0 km/h (0 Bft)
31.12.2019 19:53 -0.7 C 89 % 1022.4 hPa 0.0 l/m 0.4 km/h (0 Bft) N 0 0 min 0.0 km/h (0 Bft)
31.12.2019 19:52 -0.7 C 89 % 1022.4 hPa 0.0 l/m 0.7 km/h (0 Bft) NO 45 0 min 0.0 km/h (0 Bft)
31.12.2019 19:51 -0.7 C 89 % 1022.4 hPa 0.0 l/m 0.7 km/h (0 Bft) NO 45 0 min 0.0 km/h (0 Bft)
31.12.2019 19:50 -0.7 C 89 % 1022.4 hPa 0.0 l/m 1.4 km/h (1 Bft) O 90 0 min 0.0 km/h (0 Bft)
31.12.2019 19:49 -0.7 C 89 % 1022.4 hPa 0.0 l/m 1.4 km/h (1 Bft) O 90 0 min 0.0 km/h (0 Bft)
31.12.2019 19:48 -0.7 C 89 % 1022.4 hPa 0.0 l/m 1.4 km/h (1 Bft) NO 45 0 min 0.0 km/h (0 Bft)
31.12.2019 19:47 -0.7 C 89 % 1022.4 hPa 0.0 l/m 1.4 km/h (1 Bft) NO 45 0 min 0.0 km/h (0 Bft)
31.12.2019 19:46 -0.7 C 89 % 1022.4 hPa 0.0 l/m 1.8 km/h (1 Bft) NO 45 0 min 2.5 km/h (1 Bft)
31.12.2019 19:45 -0.7 C 89 % 1022.4 hPa 0.0 l/m 1.8 km/h (1 Bft) NO 45 0 min 2.5 km/h (1 Bft)
31.12.2019 19:44 -0.7 C 89 % 1022.4 hPa 0.0 l/m 1.8 km/h (1 Bft) NO 45 0 min 2.5 km/h (1 Bft)
31.12.2019 19:43 -0.7 C 89 % 1022.4 hPa 0.0 l/m 1.4 km/h (1 Bft) N 0 0 min 0.0 km/h (0 Bft)
31.12.2019 19:42 -0.7 C 89 % 1022.4 hPa 0.0 l/m 1.4 km/h (1 Bft) N 0 0 min 0.0 km/h (0 Bft)
31.12.2019 19:41 -0.7 C 89 % 1022.4 hPa 0.0 l/m 1.4 km/h (1 Bft) NO 45 0 min 4.3 km/h (1 Bft)
31.12.2019 19:40 -0.7 C 89 % 1022.4 hPa 0.0 l/m 1.4 km/h (1 Bft) NO 45 0 min 4.3 km/h (1 Bft)
31.12.2019 19:39 -0.7 C 89 % 1022.4 hPa 0.0 l/m 0.4 km/h (0 Bft) O-NO 68 0 min 3.6 km/h (1 Bft)
31.12.2019 19:38 -0.7 C 89 % 1022.4 hPa 0.0 l/m 0.4 km/h (0 Bft) O-NO 68 0 min 3.6 km/h (1 Bft)
31.12.2019 19:37 -0.7 C 89 % 1022.4 hPa 0.0 l/m 0.4 km/h (0 Bft) NW 315 0 min 0.0 km/h (0 Bft)
31.12.2019 19:36 -0.7 C 89 % 1022.4 hPa 0.0 l/m 0.4 km/h (0 Bft) NW 315 0 min 0.0 km/h (0 Bft)
31.12.2019 19:35 -0.7 C 89 % 1022.5 hPa 0.0 l/m 0.4 km/h (0 Bft) NW 315 0 min 0.0 km/h (0 Bft)
31.12.2019 19:34 -0.7 C 89 % 1022.5 hPa 0.0 l/m 0.4 km/h (0 Bft) NW 315 0 min 0.0 km/h (0 Bft)
31.12.2019 19:33 -0.7 C 89 % 1022.5 hPa 0.0 l/m 0.4 km/h (0 Bft) N-NO 23 0 min 4.0 km/h (1 Bft)
31.12.2019 19:32 -0.7 C 89 % 1022.5 hPa 0.0 l/m 0.4 km/h (0 Bft) N-NO 23 0 min 4.0 km/h (1 Bft)
31.12.2019 19:31 -0.7 C 88 % 1022.5 hPa 0.0 l/m 0.0 km/h (0 Bft) W-NW 293 0 min 0.0 km/h (0 Bft)
31.12.2019 19:30 -0.7 C 88 % 1022.5 hPa 0.0 l/m 0.0 km/h (0 Bft) W-NW 293 0 min 0.0 km/h (0 Bft)
31.12.2019 19:29 -0.7 C 88 % 1022.5 hPa 0.0 l/m 0.4 km/h (0 Bft) NO 45 0 min 0.0 km/h (0 Bft)
31.12.2019 19:28 -0.5 C 88 % 1022.5 hPa 0.0 l/m 0.4 km/h (0 Bft) W 270 0 min 0.0 km/h (0 Bft)
31.12.2019 19:27 -0.5 C 88 % 1022.5 hPa 0.0 l/m 0.4 km/h (0 Bft) W 270 0 min 0.0 km/h (0 Bft)
31.12.2019 19:26 -0.6 C 88 % 1022.5 hPa 0.0 l/m 0.4 km/h (0 Bft) SW 225 0 min 0.0 km/h (0 Bft)
31.12.2019 19:25 -0.6 C 88 % 1022.5 hPa 0.0 l/m 0.4 km/h (0 Bft) SW 225 0 min 0.0 km/h (0 Bft)
31.12.2019 19:24 -0.6 C 88 % 1022.5 hPa 0.0 l/m 0.4 km/h (0 Bft) S-SW 203 0 min 0.0 km/h (0 Bft)
31.12.2019 19:23 -0.6 C 88 % 1022.5 hPa 0.0 l/m 0.4 km/h (0 Bft) S-SW 203 0 min 0.0 km/h (0 Bft)
31.12.2019 19:22 -0.6 C 88 % 1022.5 hPa 0.0 l/m 0.4 km/h (0 Bft) SO 135 0 min 0.0 km/h (0 Bft)
31.12.2019 19:21 -0.6 C 88 % 1022.5 hPa 0.0 l/m 0.4 km/h (0 Bft) SO 135 0 min 0.0 km/h (0 Bft)
31.12.2019 19:20 -0.5 C 88 % 1022.5 hPa 0.0 l/m 0.4 km/h (0 Bft) SO 135 0 min 0.0 km/h (0 Bft)
31.12.2019 19:19 -0.5 C 88 % 1022.5 hPa 0.0 l/m 0.4 km/h (0 Bft) SO 135 0 min 0.0 km/h (0 Bft)
31.12.2019 19:18 -0.4 C 88 % 1022.5 hPa 0.0 l/m 0.0 km/h (0 Bft) W 270 0 min 0.0 km/h (0 Bft)
31.12.2019 19:17 -0.4 C 88 % 1022.5 hPa 0.0 l/m 0.0 km/h (0 Bft) W 270 0 min 0.0 km/h (0 Bft)
31.12.2019 19:16 -0.4 C 88 % 1022.6 hPa 0.0 l/m 0.0 km/h (0 Bft) W 270 0 min 0.0 km/h (0 Bft)
31.12.2019 19:15 -0.4 C 88 % 1022.6 hPa 0.0 l/m 0.0 km/h (0 Bft) W 270 0 min 0.0 km/h (0 Bft)
31.12.2019 19:14 -0.5 C 88 % 1022.6 hPa 0.0 l/m 0.4 km/h (0 Bft) S-SW 203 0 min 0.0 km/h (0 Bft)
31.12.2019 19:13 -0.5 C 88 % 1022.6 hPa 0.0 l/m 0.4 km/h (0 Bft) S-SW 203 0 min 0.0 km/h (0 Bft)
31.12.2019 19:12 -0.4 C 88 % 1022.6 hPa 0.0 l/m 0.4 km/h (0 Bft) NO 45 0 min 0.0 km/h (0 Bft)
31.12.2019 19:11 -0.4 C 88 % 1022.6 hPa 0.0 l/m 0.4 km/h (0 Bft) NO 45 0 min 0.0 km/h (0 Bft)
31.12.2019 19:10 -0.4 C 88 % 1022.6 hPa 0.0 l/m 0.4 km/h (0 Bft) S-SO 158 0 min 0.0 km/h (0 Bft)
31.12.2019 19:09 -0.4 C 88 % 1022.6 hPa 0.0 l/m 0.4 km/h (0 Bft) S-SO 158 0 min 0.0 km/h (0 Bft)
31.12.2019 19:08 -0.3 C 88 % 1022.6 hPa 0.0 l/m 0.4 km/h (0 Bft) N 0 0 min 0.0 km/h (0 Bft)
31.12.2019 19:07 -0.3 C 88 % 1022.6 hPa 0.0 l/m 0.4 km/h (0 Bft) N 0 0 min 0.0 km/h (0 Bft)
31.12.2019 19:06 -0.3 C 88 % 1022.6 hPa 0.0 l/m 0.4 km/h (0 Bft) N-NO 23 0 min 0.0 km/h (0 Bft)
31.12.2019 19:05 -0.3 C 88 % 1022.6 hPa 0.0 l/m 0.4 km/h (0 Bft) N-NO 23 0 min 0.0 km/h (0 Bft)
31.12.2019 19:04 -0.3 C 88 % 1022.6 hPa 0.0 l/m 0.4 km/h (0 Bft) S-SW 203 0 min 2.5 km/h (1 Bft)
31.12.2019 19:03 -0.3 C 88 % 1022.6 hPa 0.0 l/m 0.4 km/h (0 Bft) S-SW 203 0 min 2.5 km/h (1 Bft)
31.12.2019 19:02 -0.3 C 88 % 1022.6 hPa 0.0 l/m 0.4 km/h (0 Bft) S-SW 203 0 min 2.5 km/h (1 Bft)
31.12.2019 19:01 -0.4 C 88 % 1022.6 hPa 0.0 l/m 0.4 km/h (0 Bft) W 270 0 min 0.0 km/h (0 Bft)
31.12.2019 19:00 -0.4 C 88 % 1022.6 hPa 0.0 l/m 0.4 km/h (0 Bft) W 270 0 min 0.0 km/h (0 Bft)
31.12.2019 18:59 -0.4 C 88 % 1022.6 hPa 0.0 l/m 0.4 km/h (0 Bft) SO 135 0 min 0.0 km/h (0 Bft)
31.12.2019 18:58 -0.4 C 88 % 1022.6 hPa 0.0 l/m 0.4 km/h (0 Bft) SO 135 0 min 0.0 km/h (0 Bft)
31.12.2019 18:57 -0.3 C 88 % 1022.6 hPa 0.0 l/m 0.7 km/h (0 Bft) S-SW 203 0 min 5.8 km/h (2 Bft)
31.12.2019 18:56 -0.3 C 88 % 1022.6 hPa 0.0 l/m 0.7 km/h (0 Bft) S-SW 203 0 min 5.8 km/h (2 Bft)
31.12.2019 18:55 -0.3 C 88 % 1022.5 hPa 0.0 l/m 0.7 km/h (0 Bft) S-SW 203 0 min 5.8 km/h (2 Bft)
31.12.2019 18:54 -0.3 C 88 % 1022.5 hPa 0.0 l/m 0.7 km/h (0 Bft) S-SW 203 0 min 5.8 km/h (2 Bft)
31.12.2019 18:53 -0.3 C 88 % 1022.5 hPa 0.0 l/m 0.7 km/h (0 Bft) O 90 0 min 0.0 km/h (0 Bft)
31.12.2019 18:52 -0.3 C 88 % 1022.5 hPa 0.0 l/m 0.7 km/h (0 Bft) O 90 0 min 0.0 km/h (0 Bft)
31.12.2019 18:51 -0.3 C 88 % 1022.5 hPa 0.0 l/m 1.4 km/h (1 Bft) O 90 0 min 2.5 km/h (1 Bft)
31.12.2019 18:50 -0.3 C 88 % 1022.5 hPa 0.0 l/m 1.4 km/h (1 Bft) O 90 0 min 2.5 km/h (1 Bft)
31.12.2019 18:49 -0.4 C 88 % 1022.5 hPa 0.0 l/m 2.2 km/h (1 Bft) W 270 0 min 0.0 km/h (0 Bft)
31.12.2019 18:48 -0.4 C 88 % 1022.5 hPa 0.0 l/m 2.2 km/h (1 Bft) W 270 0 min 0.0 km/h (0 Bft)
31.12.2019 18:47 -0.4 C 88 % 1022.5 hPa 0.0 l/m 2.2 km/h (1 Bft) N 0 0 min 0.0 km/h (0 Bft)
31.12.2019 18:46 -0.4 C 88 % 1022.5 hPa 0.0 l/m 2.3 km/h (1 Bft) N 0 0 min 4.0 km/h (1 Bft)
31.12.2019 18:45 -0.4 C 88 % 1022.5 hPa 0.0 l/m 2.5 km/h (1 Bft) W-SW 248 0 min 4.0 km/h (1 Bft)
31.12.2019 18:44 -0.3 C 88 % 1022.5 hPa 0.0 l/m 2.5 km/h (1 Bft) W-SW 248 0 min 4.3 km/h (1 Bft)
31.12.2019 18:43 -0.3 C 88 % 1022.5 hPa 0.0 l/m 2.5 km/h (1 Bft) W-SW 248 0 min 4.3 km/h (1 Bft)
31.12.2019 18:42 -0.3 C 88 % 1022.5 hPa 0.0 l/m 2.5 km/h (1 Bft) S-SO 158 0 min 6.8 km/h (2 Bft)
31.12.2019 18:41 -0.3 C 88 % 1022.5 hPa 0.0 l/m 2.5 km/h (1 Bft) S-SO 158 0 min 6.8 km/h (2 Bft)
31.12.2019 18:40 -0.5 C 88 % 1022.5 hPa 0.0 l/m 2.5 km/h (1 Bft) W-SW 248 0 min 2.5 km/h (1 Bft)
31.12.2019 18:39 -0.5 C 88 % 1022.5 hPa 0.0 l/m 2.5 km/h (1 Bft) W-SW 248 0 min 2.5 km/h (1 Bft)
31.12.2019 18:38 -0.5 C 87 % 1022.5 hPa 0.0 l/m 2.5 km/h (1 Bft) S-SW 203 0 min 2.5 km/h (1 Bft)
31.12.2019 18:37 -0.5 C 87 % 1022.5 hPa 0.0 l/m 2.5 km/h (1 Bft) S-SW 203 0 min 2.5 km/h (1 Bft)
31.12.2019 18:36 -0.5 C 87 % 1022.6 hPa 0.0 l/m 2.5 km/h (1 Bft) NW 315 0 min 0.0 km/h (0 Bft)
31.12.2019 18:35 -0.5 C 87 % 1022.6 hPa 0.0 l/m 2.5 km/h (1 Bft) NW 315 0 min 0.0 km/h (0 Bft)
31.12.2019 18:34 -0.5 C 87 % 1022.6 hPa 0.0 l/m 2.5 km/h (1 Bft) W-SW 248 0 min 3.6 km/h (1 Bft)
31.12.2019 18:33 -0.5 C 87 % 1022.6 hPa 0.0 l/m 2.5 km/h (1 Bft) W-SW 248 0 min 3.6 km/h (1 Bft)
31.12.2019 18:32 -0.5 C 87 % 1022.6 hPa 0.0 l/m 2.2 km/h (1 Bft) W 270 0 min 4.0 km/h (1 Bft)
31.12.2019 18:31 -0.5 C 87 % 1022.6 hPa 0.0 l/m 2.2 km/h (1 Bft) W 270 0 min 4.0 km/h (1 Bft)
31.12.2019 18:30 -0.4 C 87 % 1022.6 hPa 0.0 l/m 1.4 km/h (1 Bft) W 270 0 min 5.0 km/h (1 Bft)
31.12.2019 18:29 -0.4 C 87 % 1022.6 hPa 0.0 l/m 1.4 km/h (1 Bft) W 270 0 min 5.0 km/h (1 Bft)
31.12.2019 18:28 -0.3 C 87 % 1022.6 hPa 0.0 l/m 0.7 km/h (0 Bft) W-SW 248 0 min 4.3 km/h (1 Bft)
31.12.2019 18:27 -0.3 C 87 % 1022.6 hPa 0.0 l/m 0.7 km/h (0 Bft) W-SW 248 0 min 4.3 km/h (1 Bft)
31.12.2019 18:26 -0.3 C 87 % 1022.6 hPa 0.0 l/m 0.7 km/h (0 Bft) W-SW 248 0 min 2.9 km/h (1 Bft)
31.12.2019 18:25 -0.3 C 87 % 1022.6 hPa 0.0 l/m 0.7 km/h (0 Bft) W-SW 248 0 min 2.9 km/h (1 Bft)
31.12.2019 18:24 -0.3 C 87 % 1022.6 hPa 0.0 l/m 0.7 km/h (0 Bft) W-SW 248 0 min 2.5 km/h (1 Bft)
31.12.2019 18:23 -0.3 C 87 % 1022.6 hPa 0.0 l/m 0.7 km/h (0 Bft) W-SW 248 0 min 2.5 km/h (1 Bft)
31.12.2019 18:22 -0.3 C 87 % 1022.6 hPa 0.0 l/m 0.7 km/h (0 Bft) W-SW 248 0 min 0.0 km/h (0 Bft)
31.12.2019 18:21 -0.3 C 87 % 1022.6 hPa 0.0 l/m 0.7 km/h (0 Bft) W-SW 248 0 min 0.0 km/h (0 Bft)
31.12.2019 18:20 -0.3 C 87 % 1022.6 hPa 0.0 l/m 0.7 km/h (0 Bft) W-SW 248 0 min 0.0 km/h (0 Bft)
31.12.2019 18:19 -0.3 C 87 % 1022.6 hPa 0.0 l/m 1.4 km/h (1 Bft) W 270 0 min 0.0 km/h (0 Bft)
31.12.2019 18:18 -0.3 C 87 % 1022.6 hPa 0.0 l/m 1.4 km/h (1 Bft) W 270 0 min 0.0 km/h (0 Bft)
31.12.2019 18:17 -0.2 C 87 % 1022.6 hPa 0.0 l/m 1.4 km/h (1 Bft) W-SW 248 0 min 2.5 km/h (1 Bft)
31.12.2019 18:16 -0.2 C 87 % 1022.6 hPa 0.0 l/m 1.4 km/h (1 Bft) W-SW 248 0 min 2.5 km/h (1 Bft)
31.12.2019 18:15 -0.2 C 87 % 1022.5 hPa 0.0 l/m 1.4 km/h (1 Bft) W-SW 248 0 min 3.6 km/h (1 Bft)
31.12.2019 18:14 -0.2 C 87 % 1022.5 hPa 0.0 l/m 1.4 km/h (1 Bft) W-SW 248 0 min 3.6 km/h (1 Bft)
31.12.2019 18:13 -0.1 C 87 % 1022.5 hPa 0.0 l/m 0.7 km/h (0 Bft) W-NW 293 0 min 0.0 km/h (0 Bft)
31.12.2019 18:12 -0.1 C 87 % 1022.5 hPa 0.0 l/m 0.7 km/h (0 Bft) W-NW 293 0 min 0.0 km/h (0 Bft)
31.12.2019 18:11 -0.2 C 87 % 1022.5 hPa 0.0 l/m 0.7 km/h (0 Bft) W 270 0 min 2.5 km/h (1 Bft)
31.12.2019 18:10 -0.2 C 87 % 1022.5 hPa 0.0 l/m 0.7 km/h (0 Bft) W 270 0 min 2.5 km/h (1 Bft)
31.12.2019 18:09 -0.1 C 87 % 1022.5 hPa 0.0 l/m 0.7 km/h (0 Bft) W-SW 248 0 min 0.0 km/h (0 Bft)
31.12.2019 18:08 -0.1 C 87 % 1022.5 hPa 0.0 l/m 0.7 km/h (0 Bft) W-SW 248 0 min 0.0 km/h (0 Bft)
31.12.2019 18:07 -0.1 C 87 % 1022.5 hPa 0.0 l/m 0.4 km/h (0 Bft) W-SW 248 0 min 0.0 km/h (0 Bft)
31.12.2019 18:06 -0.1 C 87 % 1022.5 hPa 0.0 l/m 0.4 km/h (0 Bft) W-SW 248 0 min 0.0 km/h (0 Bft)
31.12.2019 18:05 -0.1 C 87 % 1022.5 hPa 0.0 l/m 0.4 km/h (0 Bft) N 0 0 min 3.6 km/h (1 Bft)
31.12.2019 18:04 -0.1 C 87 % 1022.5 hPa 0.0 l/m 0.4 km/h (0 Bft) N 0 0 min 3.6 km/h (1 Bft)
31.12.2019 18:03 -0.1 C 87 % 1022.5 hPa 0.0 l/m 0.4 km/h (0 Bft) W-NW 293 0 min 0.0 km/h (0 Bft)
31.12.2019 18:02 -0.1 C 87 % 1022.5 hPa 0.0 l/m 0.4 km/h (0 Bft) W-NW 293 0 min 0.0 km/h (0 Bft)
31.12.2019 18:01 -0.1 C 87 % 1022.5 hPa 0.0 l/m 0.4 km/h (0 Bft) NO 45 0 min 0.0 km/h (0 Bft)
31.12.2019 18:00 -0.1 C 87 % 1022.5 hPa 0.0 l/m 0.7 km/h (0 Bft) S-SO 158 0 min 0.0 km/h (0 Bft)
31.12.2019 17:59 -0.1 C 87 % 1022.5 hPa 0.0 l/m 0.7 km/h (0 Bft) S-SO 158 0 min 0.0 km/h (0 Bft)
31.12.2019 17:58 -0.1 C 87 % 1022.5 hPa 0.0 l/m 0.7 km/h (0 Bft) O-NO 68 0 min 0.0 km/h (0 Bft)
31.12.2019 17:57 -0.1 C 87 % 1022.5 hPa 0.0 l/m 0.7 km/h (0 Bft) O-NO 68 0 min 0.0 km/h (0 Bft)
31.12.2019 17:56 -0.1 C 87 % 1022.3 hPa 0.0 l/m 1.4 km/h (1 Bft) NO 45 0 min 0.0 km/h (0 Bft)
31.12.2019 17:55 -0.1 C 87 % 1022.3 hPa 0.0 l/m 1.4 km/h (1 Bft) NO 45 0 min 0.0 km/h (0 Bft)
31.12.2019 17:54 -0.1 C 87 % 1022.3 hPa 0.0 l/m 1.4 km/h (1 Bft) NO 45 0 min 0.0 km/h (0 Bft)
31.12.2019 17:53 -0.1 C 87 % 1022.3 hPa 0.0 l/m 1.4 km/h (1 Bft) NO 45 0 min 0.0 km/h (0 Bft)
31.12.2019 17:52 -0.1 C 87 % 1022.3 hPa 0.0 l/m 1.4 km/h (1 Bft) N-NW 338 0 min 0.0 km/h (0 Bft)
31.12.2019 17:51 -0.1 C 87 % 1022.3 hPa 0.0 l/m 1.4 km/h (1 Bft) N-NW 338 0 min 0.0 km/h (0 Bft)
31.12.2019 17:50 -0.1 C 87 % 1022.3 hPa 0.0 l/m 0.7 km/h (0 Bft) N-NO 23 0 min 5.0 km/h (1 Bft)
31.12.2019 17:49 -0.1 C 87 % 1022.3 hPa 0.0 l/m 0.7 km/h (0 Bft) N-NO 23 0 min 5.0 km/h (1 Bft)
31.12.2019 17:48 -0.1 C 87 % 1022.3 hPa 0.0 l/m 0.4 km/h (0 Bft) N-NW 338 0 min 2.9 km/h (1 Bft)
31.12.2019 17:47 -0.1 C 87 % 1022.3 hPa 0.0 l/m 0.4 km/h (0 Bft) N-NW 338 0 min 2.9 km/h (1 Bft)
31.12.2019 17:46 -0.1 C 86 % 1022.3 hPa 0.0 l/m 0.0 km/h (0 Bft) N 0 0 min 3.6 km/h (1 Bft)
31.12.2019 17:45 -0.1 C 86 % 1022.3 hPa 0.0 l/m 0.0 km/h (0 Bft) N 0 0 min 3.6 km/h (1 Bft)
31.12.2019 17:44 -0.1 C 86 % 1022.3 hPa 0.0 l/m 0.0 km/h (0 Bft) N-NO 23 0 min 0.0 km/h (0 Bft)
31.12.2019 17:43 -0.1 C 86 % 1022.3 hPa 0.0 l/m 0.0 km/h (0 Bft) N-NO 23 0 min 0.0 km/h (0 Bft)
31.12.2019 17:42 0.0 C 85 % 1022.3 hPa 0.0 l/m 0.0 km/h (0 Bft) S-SW 203 0 min 0.0 km/h (0 Bft)
31.12.2019 17:41 0.0 C 85 % 1022.3 hPa 0.0 l/m 0.0 km/h (0 Bft) S-SW 203 0 min 0.0 km/h (0 Bft)
31.12.2019 17:40 0.0 C 85 % 1022.3 hPa 0.0 l/m 0.0 km/h (0 Bft) W-SW 248 0 min 0.0 km/h (0 Bft)
31.12.2019 17:39 0.1 C 85 % 1022.3 hPa 0.0 l/m 0.0 km/h (0 Bft) W-SW 248 0 min 0.0 km/h (0 Bft)
31.12.2019 17:38 0.1 C 85 % 1022.3 hPa 0.0 l/m 0.4 km/h (0 Bft) N-NO 23 0 min 0.0 km/h (0 Bft)
31.12.2019 17:37 0.1 C 85 % 1022.3 hPa 0.0 l/m 0.4 km/h (0 Bft) N-NO 23 0 min 0.0 km/h (0 Bft)
31.12.2019 17:36 0.1 C 85 % 1022.2 hPa 0.0 l/m 0.4 km/h (0 Bft) W-SW 248 0 min 0.0 km/h (0 Bft)
31.12.2019 17:35 0.1 C 85 % 1022.2 hPa 0.0 l/m 0.4 km/h (0 Bft) W-SW 248 0 min 0.0 km/h (0 Bft)
31.12.2019 17:34 0.1 C 85 % 1022.2 hPa 0.0 l/m 0.4 km/h (0 Bft) W-SW 248 0 min 0.0 km/h (0 Bft)
31.12.2019 17:33 0.1 C 85 % 1022.2 hPa 0.0 l/m 0.4 km/h (0 Bft) SW 225 0 min 0.0 km/h (0 Bft)
31.12.2019 17:32 0.1 C 85 % 1022.2 hPa 0.0 l/m 0.4 km/h (0 Bft) SW 225 0 min 0.0 km/h (0 Bft)
31.12.2019 17:31 0.1 C 85 % 1022.2 hPa 0.0 l/m 0.4 km/h (0 Bft) W-SW 248 0 min 0.0 km/h (0 Bft)
31.12.2019 17:30 0.1 C 85 % 1022.2 hPa 0.0 l/m 0.4 km/h (0 Bft) W-SW 248 0 min 0.0 km/h (0 Bft)
31.12.2019 17:29 0.2 C 85 % 1022.2 hPa 0.0 l/m 0.4 km/h (0 Bft) W 270 0 min 0.0 km/h (0 Bft)
31.12.2019 17:28 0.2 C 85 % 1022.2 hPa 0.0 l/m 0.4 km/h (0 Bft) W 270 0 min 0.0 km/h (0 Bft)
31.12.2019 17:27 0.2 C 85 % 1022.2 hPa 0.0 l/m 0.4 km/h (0 Bft) W-NW 293 0 min 0.0 km/h (0 Bft)
31.12.2019 17:26 0.2 C 85 % 1022.2 hPa 0.0 l/m 0.4 km/h (0 Bft) W-NW 293 0 min 0.0 km/h (0 Bft)
31.12.2019 17:25 0.2 C 85 % 1022.2 hPa 0.0 l/m 0.4 km/h (0 Bft) W-NW 293 0 min 0.0 km/h (0 Bft)
31.12.2019 17:24 0.2 C 85 % 1022.2 hPa 0.0 l/m 0.4 km/h (0 Bft) W-NW 293 0 min 0.0 km/h (0 Bft)
31.12.2019 17:23 0.2 C 85 % 1022.2 hPa 0.0 l/m 0.4 km/h (0 Bft) W-SW 248 0 min 2.9 km/h (1 Bft)
31.12.2019 17:22 0.2 C 85 % 1022.2 hPa 0.0 l/m 0.4 km/h (0 Bft) W-SW 248 0 min 2.9 km/h (1 Bft)
31.12.2019 17:21 0.3 C 85 % 1022.2 hPa 0.0 l/m 0.4 km/h (0 Bft) SW 225 0 min 0.0 km/h (0 Bft)
31.12.2019 17:20 0.3 C 85 % 1022.2 hPa 0.0 l/m 0.4 km/h (0 Bft) SW 225 0 min 0.0 km/h (0 Bft)
31.12.2019 17:19 0.3 C 85 % 1022.2 hPa 0.0 l/m 0.4 km/h (0 Bft) W-SW 248 0 min 0.0 km/h (0 Bft)
31.12.2019 17:18 0.5 C 85 % 1022.2 hPa 0.0 l/m 0.4 km/h (0 Bft) W-SW 248 0 min 0.0 km/h (0 Bft)
31.12.2019 17:17 0.5 C 85 % 1022.2 hPa 0.0 l/m 0.4 km/h (0 Bft) W-SW 248 0 min 0.0 km/h (0 Bft)
31.12.2019 17:16 0.5 C 85 % 1021.8 hPa 0.0 l/m 0.4 km/h (0 Bft) W-NW 293 0 min 0.0 km/h (0 Bft)
31.12.2019 17:15 0.5 C 85 % 1021.8 hPa 0.0 l/m 0.4 km/h (0 Bft) W-NW 293 0 min 0.0 km/h (0 Bft)
31.12.2019 17:14 0.5 C 85 % 1021.8 hPa 0.0 l/m 0.4 km/h (0 Bft) W-NW 293 0 min 2.5 km/h (1 Bft)
31.12.2019 17:13 0.5 C 85 % 1021.8 hPa 0.0 l/m 0.4 km/h (0 Bft) W-NW 293 0 min 2.5 km/h (1 Bft)
31.12.2019 17:12 0.6 C 85 % 1021.8 hPa 0.0 l/m 0.0 km/h (0 Bft) W-SW 248 0 min 2.5 km/h (1 Bft)
31.12.2019 17:11 0.6 C 85 % 1021.8 hPa 0.0 l/m 0.0 km/h (0 Bft) W-SW 248 0 min 2.5 km/h (1 Bft)
31.12.2019 17:10 0.6 C 85 % 1021.8 hPa 0.0 l/m 0.0 km/h (0 Bft) SW 225 0 min 0.0 km/h (0 Bft)
31.12.2019 17:09 0.6 C 85 % 1021.8 hPa 0.0 l/m 0.0 km/h (0 Bft) SW 225 0 min 0.0 km/h (0 Bft)
31.12.2019 17:08 0.7 C 85 % 1021.8 hPa 0.0 l/m 0.0 km/h (0 Bft) N-NO 23 0 min 0.0 km/h (0 Bft)
31.12.2019 17:07 0.7 C 85 % 1021.8 hPa 0.0 l/m 0.0 km/h (0 Bft) N-NO 23 0 min 0.0 km/h (0 Bft)
31.12.2019 17:06 0.6 C 84 % 1021.8 hPa 0.0 l/m 0.0 km/h (0 Bft) N-NO 23 0 min 0.0 km/h (0 Bft)
31.12.2019 17:05 0.6 C 84 % 1021.8 hPa 0.0 l/m 0.0 km/h (0 Bft) N-NO 23 0 min 0.0 km/h (0 Bft)
31.12.2019 17:04 0.7 C 84 % 1021.8 hPa 0.0 l/m 0.0 km/h (0 Bft) W 270 0 min 0.0 km/h (0 Bft)
31.12.2019 17:03 0.7 C 84 % 1021.8 hPa 0.0 l/m 0.0 km/h (0 Bft) W 270 0 min 0.0 km/h (0 Bft)
31.12.2019 17:02 0.8 C 84 % 1021.8 hPa 0.0 l/m 0.0 km/h (0 Bft) W-NW 293 0 min 0.0 km/h (0 Bft)
31.12.2019 17:01 0.8 C 84 % 1021.8 hPa 0.0 l/m 0.0 km/h (0 Bft) W-NW 293 0 min 0.0 km/h (0 Bft)
31.12.2019 17:00 0.9 C 84 % 1021.8 hPa 0.0 l/m 0.0 km/h (0 Bft) W 270 0 min 0.0 km/h (0 Bft)
31.12.2019 16:59 0.9 C 84 % 1021.8 hPa 0.0 l/m 0.0 km/h (0 Bft) W 270 0 min 0.0 km/h (0 Bft)
31.12.2019 16:58 0.9 C 84 % 1021.8 hPa 0.0 l/m 0.0 km/h (0 Bft) W 270 0 min 0.0 km/h (0 Bft)
31.12.2019 16:57 0.9 C 84 % 1021.8 hPa 0.0 l/m 0.0 km/h (0 Bft) W 270 0 min 0.0 km/h (0 Bft)
31.12.2019 16:56 0.9 C 84 % 1022.2 hPa 0.0 l/m 0.4 km/h (0 Bft) NW 315 0 min 0.0 km/h (0 Bft)
31.12.2019 16:55 0.9 C 84 % 1022.2 hPa 0.0 l/m 0.4 km/h (0 Bft) NW 315 0 min 0.0 km/h (0 Bft)
31.12.2019 16:54 0.9 C 84 % 1022.2 hPa 0.0 l/m 0.4 km/h (0 Bft) NW 315 0 min 0.0 km/h (0 Bft)
31.12.2019 16:53 0.9 C 84 % 1022.2 hPa 0.0 l/m 0.4 km/h (0 Bft) NW 315 0 min 0.0 km/h (0 Bft)
31.12.2019 16:52 0.9 C 84 % 1022.2 hPa 0.0 l/m 0.4 km/h (0 Bft) NW 315 0 min 0.0 km/h (0 Bft)
31.12.2019 16:51 1.0 C 84 % 1022.2 hPa 0.0 l/m 0.4 km/h (0 Bft) NW 315 0 min 0.0 km/h (0 Bft)
31.12.2019 16:50 1.0 C 84 % 1022.2 hPa 0.0 l/m 0.4 km/h (0 Bft) NW 315 0 min 0.0 km/h (0 Bft)
31.12.2019 16:49 1.0 C 84 % 1022.2 hPa 0.0 l/m 0.4 km/h (0 Bft) NW 315 0 min 0.0 km/h (0 Bft)
31.12.2019 16:48 1.0 C 84 % 1022.2 hPa 0.0 l/m 0.4 km/h (0 Bft) NW 315 0 min 0.0 km/h (0 Bft)
31.12.2019 16:47 1.1 C 84 % 1022.2 hPa 0.0 l/m 0.4 km/h (0 Bft) NW 315 0 min 0.0 km/h (0 Bft)
31.12.2019 16:46 1.1 C 84 % 1022.2 hPa 0.0 l/m 0.4 km/h (0 Bft) NW 315 0 min 0.0 km/h (0 Bft)
31.12.2019 16:45 1.0 C 84 % 1022.2 hPa 0.0 l/m 0.4 km/h (0 Bft) W-NW 293 0 min 0.0 km/h (0 Bft)
31.12.2019 16:44 1.0 C 84 % 1022.2 hPa 0.0 l/m 0.4 km/h (0 Bft) W-NW 293 0 min 0.0 km/h (0 Bft)
31.12.2019 16:43 1.0 C 84 % 1022.2 hPa 0.0 l/m 0.0 km/h (0 Bft) W-SW 248 0 min 0.0 km/h (0 Bft)
31.12.2019 16:42 1.0 C 84 % 1022.2 hPa 0.0 l/m 0.0 km/h (0 Bft) W-SW 248 0 min 0.0 km/h (0 Bft)
31.12.2019 16:41 1.1 C 84 % 1022.2 hPa 0.0 l/m 0.0 km/h (0 Bft) N 0 0 min 0.0 km/h (0 Bft)
31.12.2019 16:40 1.1 C 84 % 1022.2 hPa 0.0 l/m 0.0 km/h (0 Bft) N 0 0 min 0.0 km/h (0 Bft)
31.12.2019 16:39 1.1 C 84 % 1022.2 hPa 0.0 l/m 0.0 km/h (0 Bft) NW 315 0 min 0.0 km/h (0 Bft)
31.12.2019 16:38 1.1 C 84 % 1022.2 hPa 0.0 l/m 0.0 km/h (0 Bft) NW 315 0 min 0.0 km/h (0 Bft)
31.12.2019 16:37 1.3 C 84 % 1022.2 hPa 0.0 l/m 0.0 km/h (0 Bft) W 270 0 min 0.0 km/h (0 Bft)
31.12.2019 16:36 1.3 C 84 % 1022.0 hPa 0.0 l/m 0.0 km/h (0 Bft) W 270 0 min 0.0 km/h (0 Bft)
31.12.2019 16:35 1.3 C 84 % 1021.8 hPa 0.0 l/m 0.0 km/h (0 Bft) W 270 0 min 0.0 km/h (0 Bft)
31.12.2019 16:34 1.3 C 84 % 1021.8 hPa 0.0 l/m 0.0 km/h (0 Bft) W 270 0 min 0.0 km/h (0 Bft)
31.12.2019 16:33 1.3 C 84 % 1021.8 hPa 0.0 l/m 0.0 km/h (0 Bft) W 270 0 min 0.0 km/h (0 Bft)
31.12.2019 16:32 1.2 C 84 % 1021.8 hPa 0.0 l/m 0.0 km/h (0 Bft) O-NO 68 0 min 0.0 km/h (0 Bft)
31.12.2019 16:31 1.2 C 84 % 1021.8 hPa 0.0 l/m 0.0 km/h (0 Bft) O-NO 68 0 min 0.0 km/h (0 Bft)
31.12.2019 16:30 1.2 C 84 % 1021.8 hPa 0.0 l/m 0.0 km/h (0 Bft) S-SO 158 0 min 0.0 km/h (0 Bft)
31.12.2019 16:29 1.2 C 84 % 1021.8 hPa 0.0 l/m 0.0 km/h (0 Bft) S-SO 158 0 min 0.0 km/h (0 Bft)
31.12.2019 16:28 1.3 C 84 % 1021.8 hPa 0.0 l/m 0.0 km/h (0 Bft) S-SO 158 0 min 0.0 km/h (0 Bft)
31.12.2019 16:27 1.3 C 84 % 1021.8 hPa 0.0 l/m 0.0 km/h (0 Bft) S-SO 158 0 min 0.0 km/h (0 Bft)
31.12.2019 16:26 1.3 C 84 % 1021.8 hPa 0.0 l/m 0.0 km/h (0 Bft) S-SO 158 0 min 0.0 km/h (0 Bft)
31.12.2019 16:25 1.3 C 84 % 1021.8 hPa 0.0 l/m 0.0 km/h (0 Bft) S-SO 158 0 min 0.0 km/h (0 Bft)
31.12.2019 16:24 1.4 C 84 % 1021.8 hPa 0.0 l/m 0.0 km/h (0 Bft) SO 135 0 min 0.0 km/h (0 Bft)
31.12.2019 16:23 1.4 C 84 % 1021.8 hPa 0.0 l/m 0.0 km/h (0 Bft) SO 135 0 min 0.0 km/h (0 Bft)
31.12.2019 16:22 1.4 C 84 % 1021.8 hPa 0.0 l/m 0.0 km/h (0 Bft) N 0 0 min 0.0 km/h (0 Bft)
31.12.2019 16:21 1.4 C 84 % 1021.8 hPa 0.0 l/m 0.0 km/h (0 Bft) N 0 0 min 0.0 km/h (0 Bft)
31.12.2019 16:20 1.4 C 84 % 1021.8 hPa 0.0 l/m 0.4 km/h (0 Bft) NO 45 0 min 0.0 km/h (0 Bft)
31.12.2019 16:19 1.4 C 84 % 1021.8 hPa 0.0 l/m 0.4 km/h (0 Bft) NO 45 0 min 0.0 km/h (0 Bft)
31.12.2019 16:18 1.5 C 84 % 1021.8 hPa 0.0 l/m 0.4 km/h (0 Bft) O 90 0 min 0.0 km/h (0 Bft)
31.12.2019 16:17 1.5 C 84 % 1021.8 hPa 0.0 l/m 0.4 km/h (0 Bft) O 90 0 min 0.0 km/h (0 Bft)
31.12.2019 16:16 1.5 C 84 % 1021.9 hPa 0.0 l/m 0.7 km/h (0 Bft) N 0 0 min 0.0 km/h (0 Bft)
31.12.2019 16:15 1.5 C 84 % 1021.9 hPa 0.0 l/m 0.7 km/h (0 Bft) N 0 0 min 0.0 km/h (0 Bft)
31.12.2019 16:14 1.4 C 84 % 1021.9 hPa 0.0 l/m 1.4 km/h (1 Bft) N-NO 23 0 min 0.0 km/h (0 Bft)
31.12.2019 16:13 1.4 C 84 % 1021.9 hPa 0.0 l/m 1.4 km/h (1 Bft) N-NO 23 0 min 0.0 km/h (0 Bft)
31.12.2019 16:12 1.4 C 84 % 1021.9 hPa 0.0 l/m 2.2 km/h (1 Bft) NO 45 0 min 2.5 km/h (1 Bft)
31.12.2019 16:11 1.5 C 84 % 1021.9 hPa 0.0 l/m 2.2 km/h (1 Bft) NO 45 0 min 2.5 km/h (1 Bft)
31.12.2019 16:10 1.5 C 84 % 1021.9 hPa 0.0 l/m 2.2 km/h (1 Bft) N-NO 23 0 min 0.0 km/h (0 Bft)
31.12.2019 16:09 1.5 C 84 % 1021.9 hPa 0.0 l/m 2.2 km/h (1 Bft) N-NO 23 0 min 0.0 km/h (0 Bft)
31.12.2019 16:08 1.5 C 84 % 1021.9 hPa 0.0 l/m 2.2 km/h (1 Bft) N-NO 23 0 min 0.0 km/h (0 Bft)
31.12.2019 16:07 1.5 C 84 % 1021.9 hPa 0.0 l/m 2.5 km/h (1 Bft) O-NO 68 0 min 0.0 km/h (0 Bft)
31.12.2019 16:06 1.5 C 84 % 1021.9 hPa 0.0 l/m 2.5 km/h (1 Bft) O-NO 68 0 min 0.0 km/h (0 Bft)
31.12.2019 16:05 1.7 C 84 % 1021.9 hPa 0.0 l/m 2.5 km/h (1 Bft) N 0 0 min 3.6 km/h (1 Bft)
31.12.2019 16:04 1.7 C 84 % 1021.9 hPa 0.0 l/m 2.5 km/h (1 Bft) N 0 0 min 3.6 km/h (1 Bft)
31.12.2019 16:03 1.6 C 83 % 1021.9 hPa 0.0 l/m 2.5 km/h (1 Bft) N 0 0 min 4.3 km/h (1 Bft)
31.12.2019 16:02 1.6 C 83 % 1021.9 hPa 0.0 l/m 2.5 km/h (1 Bft) N 0 0 min 4.3 km/h (1 Bft)
31.12.2019 16:01 1.7 C 83 % 1021.9 hPa 0.0 l/m 2.5 km/h (1 Bft) NO 45 0 min 5.0 km/h (1 Bft)
31.12.2019 16:00 1.7 C 83 % 1021.9 hPa 0.0 l/m 2.5 km/h (1 Bft) NO 45 0 min 5.0 km/h (1 Bft)
31.12.2019 15:59 1.7 C 83 % 1021.9 hPa 0.0 l/m 2.2 km/h (1 Bft) N-NO 23 0 min 2.9 km/h (1 Bft)
31.12.2019 15:58 1.7 C 83 % 1021.9 hPa 0.0 l/m 2.2 km/h (1 Bft) N-NO 23 0 min 2.9 km/h (1 Bft)
31.12.2019 15:57 1.8 C 83 % 1021.9 hPa 0.0 l/m 2.2 km/h (1 Bft) N 0 0 min 3.6 km/h (1 Bft)
31.12.2019 15:56 1.8 C 83 % 1021.9 hPa 0.0 l/m 2.2 km/h (1 Bft) N 0 0 min 3.6 km/h (1 Bft)
31.12.2019 15:55 1.8 C 83 % 1021.5 hPa 0.0 l/m 2.2 km/h (1 Bft) O-NO 68 0 min 0.0 km/h (0 Bft)
31.12.2019 15:54 1.8 C 83 % 1021.5 hPa 0.0 l/m 2.2 km/h (1 Bft) O-NO 68 0 min 0.0 km/h (0 Bft)
31.12.2019 15:53 1.9 C 83 % 1021.5 hPa 0.0 l/m 1.8 km/h (1 Bft) O-NO 68 0 min 5.0 km/h (1 Bft)
31.12.2019 15:52 1.9 C 83 % 1021.5 hPa 0.0 l/m 1.8 km/h (1 Bft) O-NO 68 0 min 5.0 km/h (1 Bft)
31.12.2019 15:51 2.0 C 83 % 1021.5 hPa 0.0 l/m 1.4 km/h (1 Bft) NO 45 0 min 3.6 km/h (1 Bft)
31.12.2019 15:50 2.0 C 83 % 1021.5 hPa 0.0 l/m 0.7 km/h (0 Bft) NO 45 0 min 2.5 km/h (1 Bft)
31.12.2019 15:49 2.0 C 83 % 1021.5 hPa 0.0 l/m 0.7 km/h (0 Bft) NO 45 0 min 2.5 km/h (1 Bft)
31.12.2019 15:48 2.0 C 82 % 1021.5 hPa 0.0 l/m 0.7 km/h (0 Bft) NO 45 0 min 5.0 km/h (1 Bft)
31.12.2019 15:47 2.0 C 82 % 1021.5 hPa 0.0 l/m 0.7 km/h (0 Bft) NO 45 0 min 5.0 km/h (1 Bft)
31.12.2019 15:46 2.1 C 82 % 1021.5 hPa 0.0 l/m 0.7 km/h (0 Bft) N 0 0 min 2.9 km/h (1 Bft)
31.12.2019 15:45 2.1 C 82 % 1021.5 hPa 0.0 l/m 0.7 km/h (0 Bft) N 0 0 min 2.9 km/h (1 Bft)
31.12.2019 15:44 2.2 C 82 % 1021.5 hPa 0.0 l/m 0.7 km/h (0 Bft) O-NO 68 0 min 0.0 km/h (0 Bft)
31.12.2019 15:43 2.2 C 82 % 1021.5 hPa 0.0 l/m 0.7 km/h (0 Bft) O-NO 68 0 min 0.0 km/h (0 Bft)
31.12.2019 15:42 2.2 C 82 % 1021.5 hPa 0.0 l/m 0.7 km/h (0 Bft) NO 45 0 min 0.0 km/h (0 Bft)
31.12.2019 15:41 2.2 C 82 % 1021.5 hPa 0.0 l/m 0.7 km/h (0 Bft) NO 45 0 min 0.0 km/h (0 Bft)
31.12.2019 15:40 2.2 C 82 % 1021.5 hPa 0.0 l/m 0.7 km/h (0 Bft) N-NO 23 0 min 0.0 km/h (0 Bft)
31.12.2019 15:39 2.2 C 82 % 1021.5 hPa 0.0 l/m 0.7 km/h (0 Bft) N-NO 23 0 min 0.0 km/h (0 Bft)
31.12.2019 15:38 2.2 C 82 % 1021.5 hPa 0.0 l/m 0.7 km/h (0 Bft) NO 45 0 min 0.0 km/h (0 Bft)
31.12.2019 15:37 2.2 C 82 % 1021.5 hPa 0.0 l/m 0.7 km/h (0 Bft) NO 45 0 min 0.0 km/h (0 Bft)
31.12.2019 15:36 2.2 C 82 % 1021.6 hPa 0.0 l/m 0.7 km/h (0 Bft) N-NO 23 0 min 2.5 km/h (1 Bft)
31.12.2019 15:35 2.2 C 82 % 1021.6 hPa 0.0 l/m 0.7 km/h (0 Bft) N-NO 23 0 min 2.5 km/h (1 Bft)
31.12.2019 15:34 2.2 C 82 % 1021.6 hPa 0.0 l/m 1.4 km/h (1 Bft) N 0 0 min 4.0 km/h (1 Bft)
31.12.2019 15:33 2.2 C 82 % 1021.6 hPa 0.0 l/m 1.4 km/h (1 Bft) N 0 0 min 4.0 km/h (1 Bft)
31.12.2019 15:32 2.2 C 82 % 1021.6 hPa 0.0 l/m 1.4 km/h (1 Bft) O-NO 68 0 min 0.0 km/h (0 Bft)
31.12.2019 15:31 2.2 C 82 % 1021.6 hPa 0.0 l/m 1.4 km/h (1 Bft) O-NO 68 0 min 0.0 km/h (0 Bft)
31.12.2019 15:30 2.2 C 82 % 1021.6 hPa 0.0 l/m 1.4 km/h (1 Bft) SO 135 0 min 0.0 km/h (0 Bft)
31.12.2019 15:29 2.2 C 82 % 1021.6 hPa 0.0 l/m 1.4 km/h (1 Bft) SO 135 0 min 0.0 km/h (0 Bft)
31.12.2019 15:28 2.2 C 82 % 1021.6 hPa 0.0 l/m 1.4 km/h (1 Bft) O-NO 68 0 min 0.0 km/h (0 Bft)
31.12.2019 15:27 2.3 C 82 % 1021.6 hPa 0.0 l/m 1.4 km/h (1 Bft) O-NO 68 0 min 0.0 km/h (0 Bft)
31.12.2019 15:26 2.3 C 82 % 1021.6 hPa 0.0 l/m 1.8 km/h (1 Bft) O-NO 68 0 min 0.0 km/h (0 Bft)
31.12.2019 15:25 2.3 C 82 % 1021.6 hPa 0.0 l/m 1.8 km/h (1 Bft) O-NO 68 0 min 0.0 km/h (0 Bft)
31.12.2019 15:24 2.3 C 82 % 1021.6 hPa 0.0 l/m 1.8 km/h (1 Bft) O-NO 68 0 min 0.0 km/h (0 Bft)
31.12.2019 15:23 2.5 C 82 % 1021.6 hPa 0.0 l/m 2.2 km/h (1 Bft) O-NO 68 0 min 4.0 km/h (1 Bft)
31.12.2019 15:22 2.5 C 82 % 1021.6 hPa 0.0 l/m 2.2 km/h (1 Bft) O-NO 68 0 min 4.0 km/h (1 Bft)
31.12.2019 15:21 2.5 C 82 % 1021.6 hPa 0.0 l/m 1.4 km/h (1 Bft) N 0 0 min 6.1 km/h (2 Bft)
31.12.2019 15:20 2.5 C 82 % 1021.6 hPa 0.0 l/m 1.4 km/h (1 Bft) N 0 0 min 6.1 km/h (2 Bft)
31.12.2019 15:19 2.5 C 81 % 1021.6 hPa 0.0 l/m 1.8 km/h (1 Bft) NO 45 0 min 0.0 km/h (0 Bft)
31.12.2019 15:18 2.5 C 81 % 1021.6 hPa 0.0 l/m 1.8 km/h (1 Bft) NO 45 0 min 0.0 km/h (0 Bft)
31.12.2019 15:17 2.6 C 81 % 1021.6 hPa 0.0 l/m 1.8 km/h (1 Bft) S-SW 203 0 min 2.5 km/h (1 Bft)
31.12.2019 15:16 2.6 C 81 % 1021.6 hPa 0.0 l/m 1.8 km/h (1 Bft) S-SW 203 0 min 2.5 km/h (1 Bft)
31.12.2019 15:15 2.6 C 81 % 1021.4 hPa 0.0 l/m 2.2 km/h (1 Bft) NO 45 0 min 4.0 km/h (1 Bft)
31.12.2019 15:14 2.6 C 81 % 1021.4 hPa 0.0 l/m 2.2 km/h (1 Bft) NO 45 0 min 4.0 km/h (1 Bft)
31.12.2019 15:13 2.7 C 81 % 1021.4 hPa 0.0 l/m 2.2 km/h (1 Bft) NW 315 0 min 4.3 km/h (1 Bft)
31.12.2019 15:12 2.7 C 81 % 1021.4 hPa 0.0 l/m 2.2 km/h (1 Bft) NW 315 0 min 4.3 km/h (1 Bft)
31.12.2019 15:11 2.6 C 81 % 1021.4 hPa 0.0 l/m 1.8 km/h (1 Bft) NO 45 0 min 0.0 km/h (0 Bft)
31.12.2019 15:10 2.6 C 81 % 1021.4 hPa 0.0 l/m 1.8 km/h (1 Bft) NO 45 0 min 0.0 km/h (0 Bft)
31.12.2019 15:09 2.7 C 81 % 1021.4 hPa 0.0 l/m 1.4 km/h (1 Bft) N-NO 23 0 min 2.5 km/h (1 Bft)
31.12.2019 15:08 2.8 C 81 % 1021.4 hPa 0.0 l/m 1.4 km/h (1 Bft) N-NO 23 0 min 4.7 km/h (1 Bft)
31.12.2019 15:07 2.8 C 81 % 1021.4 hPa 0.0 l/m 1.4 km/h (1 Bft) N 0 0 min 4.7 km/h (1 Bft)
31.12.2019 15:06 2.9 C 81 % 1021.4 hPa 0.0 l/m 0.7 km/h (0 Bft) N-NW 338 0 min 7.2 km/h (2 Bft)
31.12.2019 15:05 2.9 C 81 % 1021.4 hPa 0.0 l/m 0.7 km/h (0 Bft) N-NW 338 0 min 7.2 km/h (2 Bft)
31.12.2019 15:04 2.9 C 81 % 1021.4 hPa 0.0 l/m 0.7 km/h (0 Bft) SO 135 0 min 0.0 km/h (0 Bft)
31.12.2019 15:03 2.9 C 81 % 1021.4 hPa 0.0 l/m 0.7 km/h (0 Bft) SO 135 0 min 0.0 km/h (0 Bft)
31.12.2019 15:02 3.0 C 81 % 1021.4 hPa 0.0 l/m 0.7 km/h (0 Bft) N-NO 23 0 min 5.0 km/h (1 Bft)
31.12.2019 15:01 3.0 C 81 % 1021.4 hPa 0.0 l/m 0.7 km/h (0 Bft) N-NO 23 0 min 5.0 km/h (1 Bft)
31.12.2019 15:00 3.0 C 80 % 1021.4 hPa 0.0 l/m 0.4 km/h (0 Bft) N 0 0 min 3.6 km/h (1 Bft)
31.12.2019 14:59 3.0 C 80 % 1021.4 hPa 0.0 l/m 0.4 km/h (0 Bft) N 0 0 min 3.6 km/h (1 Bft)
31.12.2019 14:58 3.0 C 80 % 1021.4 hPa 0.0 l/m 0.4 km/h (0 Bft) SO 135 0 min 0.0 km/h (0 Bft)
31.12.2019 14:57 3.0 C 80 % 1021.4 hPa 0.0 l/m 0.4 km/h (0 Bft) SO 135 0 min 0.0 km/h (0 Bft)
31.12.2019 14:56 3.0 C 80 % 1021.3 hPa 0.0 l/m 0.7 km/h (0 Bft) O 90 0 min 0.0 km/h (0 Bft)
31.12.2019 14:55 3.0 C 80 % 1021.3 hPa 0.0 l/m 0.7 km/h (0 Bft) O 90 0 min 0.0 km/h (0 Bft)
31.12.2019 14:54 3.0 C 80 % 1021.3 hPa 0.0 l/m 1.4 km/h (1 Bft) NO 45 0 min 2.9 km/h (1 Bft)
31.12.2019 14:53 3.0 C 80 % 1021.3 hPa 0.0 l/m 1.4 km/h (1 Bft) NO 45 0 min 2.9 km/h (1 Bft)
31.12.2019 14:52 3.0 C 80 % 1021.3 hPa 0.0 l/m 1.4 km/h (1 Bft) N 0 0 min 0.0 km/h (0 Bft)
31.12.2019 14:51 3.0 C 80 % 1021.3 hPa 0.0 l/m 1.4 km/h (1 Bft) N 0 0 min 0.0 km/h (0 Bft)
31.12.2019 14:50 3.1 C 80 % 1021.3 hPa 0.0 l/m 0.7 km/h (0 Bft) N-NW 338 0 min 2.5 km/h (1 Bft)
31.12.2019 14:49 3.1 C 80 % 1021.3 hPa 0.0 l/m 0.7 km/h (0 Bft) N-NW 338 0 min 2.5 km/h (1 Bft)
31.12.2019 14:48 3.1 C 79 % 1021.3 hPa 0.0 l/m 0.7 km/h (0 Bft) O 90 0 min 0.0 km/h (0 Bft)
31.12.2019 14:47 3.1 C 79 % 1021.3 hPa 0.0 l/m 0.7 km/h (0 Bft) O 90 0 min 0.0 km/h (0 Bft)
31.12.2019 14:46 3.1 C 79 % 1021.3 hPa 0.0 l/m 0.7 km/h (0 Bft) NO 45 0 min 6.1 km/h (2 Bft)
31.12.2019 14:45 3.2 C 79 % 1021.3 hPa 0.0 l/m 0.7 km/h (0 Bft) NO 45 0 min 6.1 km/h (2 Bft)
31.12.2019 14:44 3.2 C 79 % 1021.3 hPa 0.0 l/m 0.4 km/h (0 Bft) NO 45 0 min 4.0 km/h (1 Bft)
31.12.2019 14:43 3.3 C 80 % 1021.3 hPa 0.0 l/m 0.4 km/h (0 Bft) NO 45 0 min 4.0 km/h (1 Bft)
31.12.2019 14:42 3.3 C 80 % 1021.3 hPa 0.0 l/m 0.4 km/h (0 Bft) NO 45 0 min 0.0 km/h (0 Bft)
31.12.2019 14:41 3.3 C 80 % 1021.3 hPa 0.0 l/m 0.4 km/h (0 Bft) NO 45 0 min 0.0 km/h (0 Bft)
31.12.2019 14:40 3.3 C 80 % 1021.3 hPa 0.0 l/m 0.4 km/h (0 Bft) NO 45 0 min 0.0 km/h (0 Bft)
31.12.2019 14:39 3.3 C 79 % 1021.3 hPa 0.0 l/m 0.4 km/h (0 Bft) N-NO 23 1 min 2.5 km/h (1 Bft)
31.12.2019 14:38 3.3 C 79 % 1021.3 hPa 0.0 l/m 0.4 km/h (0 Bft) N-NO 23 1 min 2.5 km/h (1 Bft)
31.12.2019 14:37 3.4 C 79 % 1021.3 hPa 0.0 l/m 0.4 km/h (0 Bft) O-NO 68 1 min 0.0 km/h (0 Bft)
31.12.2019 14:36 3.4 C 79 % 1021.3 hPa 0.0 l/m 0.4 km/h (0 Bft) O-NO 68 1 min 0.0 km/h (0 Bft)
31.12.2019 14:35 3.4 C 79 % 1021.6 hPa 0.0 l/m 0.0 km/h (0 Bft) N 0 1 min 0.0 km/h (0 Bft)
31.12.2019 14:34 3.4 C 79 % 1021.6 hPa 0.0 l/m 0.0 km/h (0 Bft) N 0 1 min 0.0 km/h (0 Bft)
31.12.2019 14:33 3.4 C 79 % 1021.6 hPa 0.0 l/m 0.0 km/h (0 Bft) O-NO 68 1 min 0.0 km/h (0 Bft)
31.12.2019 14:32 3.4 C 79 % 1021.6 hPa 0.0 l/m 0.0 km/h (0 Bft) O-NO 68 1 min 0.0 km/h (0 Bft)
31.12.2019 14:31 3.5 C 79 % 1021.6 hPa 0.0 l/m 0.0 km/h (0 Bft) N 0 1 min 0.0 km/h (0 Bft)
31.12.2019 14:30 3.5 C 79 % 1021.6 hPa 0.0 l/m 0.0 km/h (0 Bft) N 0 1 min 0.0 km/h (0 Bft)
31.12.2019 14:29 3.4 C 79 % 1021.6 hPa 0.0 l/m 0.0 km/h (0 Bft) NO 45 1 min 0.0 km/h (0 Bft)
31.12.2019 14:28 3.4 C 79 % 1021.6 hPa 0.0 l/m 0.0 km/h (0 Bft) NO 45 1 min 0.0 km/h (0 Bft)
31.12.2019 14:27 3.5 C 79 % 1021.6 hPa 0.0 l/m 0.0 km/h (0 Bft) N 0 1 min 2.9 km/h (1 Bft)
31.12.2019 14:26 3.5 C 79 % 1021.6 hPa 0.0 l/m 0.0 km/h (0 Bft) N 0 1 min 2.9 km/h (1 Bft)
31.12.2019 14:25 3.5 C 79 % 1021.6 hPa 0.0 l/m 0.4 km/h (0 Bft) N-NO 23 1 min 0.0 km/h (0 Bft)
31.12.2019 14:24 3.5 C 79 % 1021.6 hPa 0.0 l/m 0.4 km/h (0 Bft) N-NO 23 1 min 0.0 km/h (0 Bft)
31.12.2019 14:23 3.5 C 79 % 1021.6 hPa 0.0 l/m 0.4 km/h (0 Bft) N-NO 23 1 min 0.0 km/h (0 Bft)
31.12.2019 14:22 3.5 C 78 % 1021.6 hPa 0.0 l/m 0.7 km/h (0 Bft) NO 45 1 min 0.0 km/h (0 Bft)
31.12.2019 14:21 3.5 C 78 % 1021.6 hPa 0.0 l/m 0.7 km/h (0 Bft) NO 45 1 min 0.0 km/h (0 Bft)
31.12.2019 14:20 3.5 C 78 % 1021.6 hPa 0.0 l/m 0.7 km/h (0 Bft) SO 135 1 min 0.0 km/h (0 Bft)
31.12.2019 14:19 3.5 C 78 % 1021.6 hPa 0.0 l/m 0.7 km/h (0 Bft) SO 135 1 min 0.0 km/h (0 Bft)
31.12.2019 14:18 3.7 C 78 % 1021.6 hPa 0.0 l/m 1.4 km/h (1 Bft) O 90 0 min 0.0 km/h (0 Bft)
31.12.2019 14:17 3.7 C 78 % 1021.6 hPa 0.0 l/m 1.4 km/h (1 Bft) O 90 0 min 0.0 km/h (0 Bft)
31.12.2019 14:16 3.7 C 78 % 1021.6 hPa 0.0 l/m 0.7 km/h (0 Bft) N 0 0 min 4.0 km/h (1 Bft)
31.12.2019 14:15 3.7 C 78 % 1021.6 hPa 0.0 l/m 0.7 km/h (0 Bft) N 0 0 min 4.0 km/h (1 Bft)
31.12.2019 14:14 3.7 C 78 % 1021.6 hPa 0.0 l/m 0.7 km/h (0 Bft) O-NO 68 0 min 0.0 km/h (0 Bft)
31.12.2019 14:13 3.7 C 78 % 1021.6 hPa 0.0 l/m 0.7 km/h (0 Bft) O-NO 68 0 min 0.0 km/h (0 Bft)
31.12.2019 14:12 3.7 C 78 % 1021.6 hPa 0.0 l/m 0.7 km/h (0 Bft) N-NO 23 0 min 4.0 km/h (1 Bft)
31.12.2019 14:11 3.7 C 78 % 1021.6 hPa 0.0 l/m 0.7 km/h (0 Bft) N-NO 23 0 min 4.0 km/h (1 Bft)
31.12.2019 14:10 3.8 C 78 % 1021.6 hPa 0.0 l/m 0.7 km/h (0 Bft) NO 45 1 min 0.0 km/h (0 Bft)
31.12.2019 14:09 3.8 C 78 % 1021.6 hPa 0.0 l/m 0.7 km/h (0 Bft) NO 45 1 min 0.0 km/h (0 Bft)
31.12.2019 14:08 3.8 C 78 % 1021.6 hPa 0.0 l/m 1.4 km/h (1 Bft) N 0 1 min 2.5 km/h (1 Bft)
31.12.2019 14:07 3.8 C 78 % 1021.6 hPa 0.0 l/m 1.4 km/h (1 Bft) N 0 1 min 2.5 km/h (1 Bft)
31.12.2019 14:06 3.8 C 77 % 1021.6 hPa 0.0 l/m 2.2 km/h (1 Bft) O-SO 113 1 min 0.0 km/h (0 Bft)
31.12.2019 14:05 3.8 C 77 % 1021.6 hPa 0.0 l/m 2.2 km/h (1 Bft) O-SO 113 1 min 0.0 km/h (0 Bft)
31.12.2019 14:04 3.8 C 77 % 1021.6 hPa 0.0 l/m 2.9 km/h (1 Bft) N-NO 23 1 min 0.0 km/h (0 Bft)
31.12.2019 14:03 3.8 C 77 % 1021.6 hPa 0.0 l/m 2.9 km/h (1 Bft) N-NO 23 1 min 0.0 km/h (0 Bft)
31.12.2019 14:02 3.8 C 77 % 1021.6 hPa 0.0 l/m 3.6 km/h (1 Bft) O-SO 113 1 min 0.0 km/h (0 Bft)
31.12.2019 14:01 3.8 C 77 % 1021.6 hPa 0.0 l/m 3.6 km/h (1 Bft) O-SO 113 0 min 0.0 km/h (0 Bft)
31.12.2019 14:00 3.8 C 77 % 1021.6 hPa 0.0 l/m 4.0 km/h (1 Bft) O-NO 68 0 min 0.0 km/h (0 Bft)
31.12.2019 13:59 3.9 C 77 % 1021.6 hPa 0.0 l/m 4.0 km/h (1 Bft) O-NO 68 0 min 0.0 km/h (0 Bft)
31.12.2019 13:58 3.9 C 77 % 1021.6 hPa 0.0 l/m 4.0 km/h (1 Bft) O-NO 68 0 min 0.0 km/h (0 Bft)
31.12.2019 13:57 4.1 C 77 % 1021.6 hPa 0.0 l/m 4.0 km/h (1 Bft) NO 45 0 min 4.0 km/h (1 Bft)
31.12.2019 13:56 4.1 C 77 % 1021.6 hPa 0.0 l/m 4.0 km/h (1 Bft) NO 45 0 min 4.0 km/h (1 Bft)
31.12.2019 13:55 4.1 C 77 % 1021.4 hPa 0.0 l/m 3.6 km/h (1 Bft) O-NO 68 0 min 4.3 km/h (1 Bft)
31.12.2019 13:54 4.1 C 77 % 1021.4 hPa 0.0 l/m 3.6 km/h (1 Bft) O-NO 68 0 min 4.3 km/h (1 Bft)
31.12.2019 13:53 4.2 C 76 % 1021.4 hPa 0.0 l/m 2.5 km/h (1 Bft) NO 45 0 min 4.7 km/h (1 Bft)
31.12.2019 13:52 4.2 C 76 % 1021.4 hPa 0.0 l/m 2.5 km/h (1 Bft) NO 45 0 min 4.7 km/h (1 Bft)
31.12.2019 13:51 4.3 C 76 % 1021.4 hPa 0.0 l/m 2.2 km/h (1 Bft) O-NO 68 0 min 4.7 km/h (1 Bft)
31.12.2019 13:50 4.3 C 76 % 1021.4 hPa 0.0 l/m 2.2 km/h (1 Bft) O-NO 68 0 min 4.7 km/h (1 Bft)
31.12.2019 13:49 4.3 C 76 % 1021.4 hPa 0.0 l/m 1.8 km/h (1 Bft) N-NO 23 0 min 5.0 km/h (1 Bft)
31.12.2019 13:48 4.3 C 76 % 1021.4 hPa 0.0 l/m 1.8 km/h (1 Bft) N-NO 23 0 min 5.0 km/h (1 Bft)
31.12.2019 13:47 4.5 C 75 % 1021.4 hPa 0.0 l/m 1.4 km/h (1 Bft) N 0 0 min 6.8 km/h (2 Bft)
31.12.2019 13:46 4.5 C 75 % 1021.4 hPa 0.0 l/m 1.4 km/h (1 Bft) N 0 0 min 6.8 km/h (2 Bft)
31.12.2019 13:45 4.4 C 75 % 1021.4 hPa 0.0 l/m 0.7 km/h (0 Bft) N-NO 23 1 min 8.3 km/h (2 Bft)
31.12.2019 13:44 4.4 C 75 % 1021.4 hPa 0.0 l/m 0.7 km/h (0 Bft) N-NO 23 1 min 8.3 km/h (2 Bft)
31.12.2019 13:43 4.6 C 75 % 1021.4 hPa 0.0 l/m 0.7 km/h (0 Bft) N-NO 23 0 min 0.0 km/h (0 Bft)
31.12.2019 13:42 4.6 C 75 % 1021.4 hPa 0.0 l/m 0.7 km/h (0 Bft) N-NO 23 0 min 0.0 km/h (0 Bft)
31.12.2019 13:41 4.6 C 75 % 1021.4 hPa 0.0 l/m 1.4 km/h (1 Bft) N 0 0 min 4.7 km/h (1 Bft)
31.12.2019 13:40 4.8 C 74 % 1021.4 hPa 0.0 l/m 1.1 km/h (1 Bft) N 0 0 min 5.8 km/h (2 Bft)
31.12.2019 13:39 4.9 C 74 % 1021.4 hPa 0.0 l/m 0.7 km/h (0 Bft) NO 45 1 min 5.8 km/h (2 Bft)
31.12.2019 13:38 5.0 C 74 % 1021.4 hPa 0.0 l/m 0.7 km/h (0 Bft) N 0 1 min 0.0 km/h (0 Bft)
31.12.2019 13:37 5.0 C 74 % 1021.4 hPa 0.0 l/m 0.7 km/h (0 Bft) N 0 1 min 0.0 km/h (0 Bft)
31.12.2019 13:36 5.0 C 74 % 1021.4 hPa 0.0 l/m 1.8 km/h (1 Bft) N-NO 23 1 min 0.0 km/h (0 Bft)
31.12.2019 13:35 5.0 C 74 % 1021.4 hPa 0.0 l/m 1.8 km/h (1 Bft) N-NO 23 1 min 0.0 km/h (0 Bft)
31.12.2019 13:34 5.0 C 74 % 1021.4 hPa 0.0 l/m 2.2 km/h (1 Bft) NO 45 1 min 0.0 km/h (0 Bft)
31.12.2019 13:33 5.0 C 74 % 1021.4 hPa 0.0 l/m 2.2 km/h (1 Bft) NO 45 1 min 0.0 km/h (0 Bft)
31.12.2019 13:32 5.0 C 74 % 1021.4 hPa 0.0 l/m 2.5 km/h (1 Bft) NO 45 1 min 4.3 km/h (1 Bft)
31.12.2019 13:31 5.0 C 74 % 1021.4 hPa 0.0 l/m 2.5 km/h (1 Bft) NO 45 1 min 4.3 km/h (1 Bft)
31.12.2019 13:30 4.9 C 74 % 1021.4 hPa 0.0 l/m 2.5 km/h (1 Bft) SW 225 1 min 0.0 km/h (0 Bft)
31.12.2019 13:29 4.9 C 74 % 1021.4 hPa 0.0 l/m 2.5 km/h (1 Bft) SW 225 1 min 0.0 km/h (0 Bft)
31.12.2019 13:28 5.0 C 74 % 1021.4 hPa 0.0 l/m 2.5 km/h (1 Bft) NO 45 0 min 4.0 km/h (1 Bft)
31.12.2019 13:27 5.0 C 74 % 1021.4 hPa 0.0 l/m 2.5 km/h (1 Bft) NO 45 0 min 4.0 km/h (1 Bft)
31.12.2019 13:26 4.9 C 74 % 1021.4 hPa 0.0 l/m 2.5 km/h (1 Bft) NO 45 1 min 4.0 km/h (1 Bft)
31.12.2019 13:25 4.9 C 74 % 1021.4 hPa 0.0 l/m 2.5 km/h (1 Bft) NO 45 1 min 4.0 km/h (1 Bft)
31.12.2019 13:24 5.0 C 74 % 1021.4 hPa 0.0 l/m 2.2 km/h (1 Bft) N-NO 23 1 min 5.8 km/h (2 Bft)
31.12.2019 13:23 5.0 C 74 % 1021.4 hPa 0.0 l/m 2.2 km/h (1 Bft) N-NO 23 1 min 5.8 km/h (2 Bft)
31.12.2019 13:22 5.0 C 74 % 1021.4 hPa 0.0 l/m 2.2 km/h (1 Bft) O-NO 68 1 min 2.9 km/h (1 Bft)
31.12.2019 13:21 5.0 C 74 % 1021.4 hPa 0.0 l/m 2.2 km/h (1 Bft) O-NO 68 1 min 2.9 km/h (1 Bft)
31.12.2019 13:20 5.0 C 74 % 1021.4 hPa 0.0 l/m 2.5 km/h (1 Bft) O-NO 68 1 min 3.6 km/h (1 Bft)
31.12.2019 13:19 5.0 C 74 % 1021.4 hPa 0.0 l/m 2.5 km/h (1 Bft) O-NO 68 1 min 3.6 km/h (1 Bft)
31.12.2019 13:18 5.0 C 74 % 1021.4 hPa 0.0 l/m 2.9 km/h (1 Bft) O-NO 68 1 min 0.0 km/h (0 Bft)
31.12.2019 13:17 5.1 C 73 % 1021.4 hPa 0.0 l/m 2.9 km/h (1 Bft) O-NO 68 1 min 0.0 km/h (0 Bft)
31.12.2019 13:16 5.1 C 73 % 1021.8 hPa 0.0 l/m 4.0 km/h (1 Bft) N 0 1 min 5.0 km/h (1 Bft)
31.12.2019 13:15 5.1 C 73 % 1021.8 hPa 0.0 l/m 4.0 km/h (1 Bft) N 0 1 min 5.0 km/h (1 Bft)
31.12.2019 13:14 5.1 C 73 % 1021.8 hPa 0.0 l/m 4.0 km/h (1 Bft) N 0 1 min 5.0 km/h (1 Bft)
31.12.2019 13:13 5.3 C 73 % 1021.8 hPa 0.0 l/m 4.3 km/h (1 Bft) O-NO 68 1 min 0.0 km/h (0 Bft)
31.12.2019 13:12 5.3 C 73 % 1021.8 hPa 0.0 l/m 4.3 km/h (1 Bft) O-NO 68 1 min 0.0 km/h (0 Bft)
31.12.2019 13:11 5.3 C 73 % 1021.8 hPa 0.0 l/m 4.7 km/h (1 Bft) N 0 1 min 6.1 km/h (2 Bft)
31.12.2019 13:10 5.3 C 73 % 1021.8 hPa 0.0 l/m 4.7 km/h (1 Bft) N 0 1 min 6.1 km/h (2 Bft)
31.12.2019 13:09 5.3 C 73 % 1021.8 hPa 0.0 l/m 4.3 km/h (1 Bft) N 0 1 min 8.6 km/h (2 Bft)
31.12.2019 13:08 5.3 C 73 % 1021.8 hPa 0.0 l/m 4.3 km/h (1 Bft) N 0 1 min 8.6 km/h (2 Bft)
31.12.2019 13:07 5.3 C 73 % 1021.8 hPa 0.0 l/m 4.0 km/h (1 Bft) O-NO 68 1 min 4.0 km/h (1 Bft)
31.12.2019 13:06 5.3 C 73 % 1021.8 hPa 0.0 l/m 4.0 km/h (1 Bft) O-NO 68 1 min 4.0 km/h (1 Bft)
31.12.2019 13:05 5.4 C 73 % 1021.8 hPa 0.0 l/m 2.9 km/h (1 Bft) N 0 1 min 7.2 km/h (2 Bft)
31.12.2019 13:04 5.4 C 73 % 1021.8 hPa 0.0 l/m 2.9 km/h (1 Bft) N 0 1 min 7.2 km/h (2 Bft)
31.12.2019 13:03 5.5 C 73 % 1021.8 hPa 0.0 l/m 2.5 km/h (1 Bft) NO 45 1 min 9.4 km/h (2 Bft)
31.12.2019 13:02 5.5 C 73 % 1021.8 hPa 0.0 l/m 2.5 km/h (1 Bft) NO 45 1 min 9.4 km/h (2 Bft)
31.12.2019 13:01 5.4 C 73 % 1021.8 hPa 0.0 l/m 2.2 km/h (1 Bft) N-NO 23 1 min 8.6 km/h (2 Bft)
31.12.2019 13:00 5.4 C 73 % 1021.8 hPa 0.0 l/m 2.2 km/h (1 Bft) N-NO 23 1 min 8.6 km/h (2 Bft)
31.12.2019 12:59 5.4 C 73 % 1021.8 hPa 0.0 l/m 0.7 km/h (0 Bft) N-NO 23 1 min 0.0 km/h (0 Bft)
31.12.2019 12:58 5.4 C 73 % 1021.8 hPa 0.0 l/m 0.7 km/h (0 Bft) N-NO 23 1 min 0.0 km/h (0 Bft)
31.12.2019 12:57 5.3 C 72 % 1021.8 hPa 0.0 l/m 1.4 km/h (1 Bft) N 0 1 min 0.0 km/h (0 Bft)
31.12.2019 12:56 5.3 C 72 % 1022.1 hPa 0.0 l/m 1.8 km/h (1 Bft) O-NO 68 1 min 0.0 km/h (0 Bft)
31.12.2019 12:55 5.3 C 72 % 1022.1 hPa 0.0 l/m 1.8 km/h (1 Bft) O-NO 68 1 min 0.0 km/h (0 Bft)
31.12.2019 12:54 5.1 C 73 % 1022.1 hPa 0.0 l/m 1.4 km/h (1 Bft) N 0 1 min 4.0 km/h (1 Bft)
31.12.2019 12:53 5.1 C 73 % 1022.1 hPa 0.0 l/m 1.4 km/h (1 Bft) N 0 1 min 4.0 km/h (1 Bft)
31.12.2019 12:52 5.0 C 73 % 1022.1 hPa 0.0 l/m 0.7 km/h (0 Bft) N-NO 23 1 min 0.0 km/h (0 Bft)
31.12.2019 12:51 5.0 C 73 % 1022.1 hPa 0.0 l/m 0.7 km/h (0 Bft) N-NO 23 1 min 0.0 km/h (0 Bft)
31.12.2019 12:50 5.0 C 73 % 1022.1 hPa 0.0 l/m 0.7 km/h (0 Bft) N 0 1 min 0.0 km/h (0 Bft)
31.12.2019 12:49 5.0 C 73 % 1022.1 hPa 0.0 l/m 0.7 km/h (0 Bft) N 0 1 min 0.0 km/h (0 Bft)
31.12.2019 12:48 5.0 C 72 % 1022.1 hPa 0.0 l/m 1.8 km/h (1 Bft) NO 45 1 min 5.8 km/h (2 Bft)
31.12.2019 12:47 5.0 C 72 % 1022.1 hPa 0.0 l/m 1.8 km/h (1 Bft) NO 45 1 min 5.8 km/h (2 Bft)
31.12.2019 12:46 4.9 C 72 % 1022.1 hPa 0.0 l/m 2.2 km/h (1 Bft) N-NO 23 1 min 4.0 km/h (1 Bft)
31.12.2019 12:45 4.9 C 72 % 1022.1 hPa 0.0 l/m 2.2 km/h (1 Bft) N-NO 23 1 min 4.0 km/h (1 Bft)
31.12.2019 12:44 5.0 C 72 % 1022.1 hPa 0.0 l/m 2.2 km/h (1 Bft) O-NO 68 1 min 0.0 km/h (0 Bft)
31.12.2019 12:43 5.0 C 72 % 1022.1 hPa 0.0 l/m 2.2 km/h (1 Bft) O-NO 68 1 min 0.0 km/h (0 Bft)
31.12.2019 12:42 5.1 C 72 % 1022.1 hPa 0.0 l/m 2.5 km/h (1 Bft) O-NO 68 1 min 2.5 km/h (1 Bft)
31.12.2019 12:41 5.1 C 72 % 1022.1 hPa 0.0 l/m 2.5 km/h (1 Bft) O-NO 68 1 min 2.5 km/h (1 Bft)
31.12.2019 12:40 5.0 C 72 % 1022.1 hPa 0.0 l/m 3.6 km/h (1 Bft) O-NO 68 1 min 0.0 km/h (0 Bft)
31.12.2019 12:39 5.0 C 72 % 1022.1 hPa 0.0 l/m 3.6 km/h (1 Bft) O-NO 68 1 min 0.0 km/h (0 Bft)
31.12.2019 12:38 5.0 C 72 % 1022.1 hPa 0.0 l/m 4.0 km/h (1 Bft) O-NO 68 1 min 6.5 km/h (2 Bft)
31.12.2019 12:37 5.0 C 72 % 1022.1 hPa 0.0 l/m 4.0 km/h (1 Bft) O-NO 68 1 min 6.5 km/h (2 Bft)
31.12.2019 12:36 5.0 C 72 % 1022.4 hPa 0.0 l/m 3.6 km/h (1 Bft) N 0 1 min 4.7 km/h (1 Bft)
31.12.2019 12:35 5.0 C 72 % 1022.4 hPa 0.0 l/m 3.6 km/h (1 Bft) N 0 1 min 4.7 km/h (1 Bft)
31.12.2019 12:34 5.0 C 72 % 1022.4 hPa 0.0 l/m 4.0 km/h (1 Bft) NO 45 1 min 4.0 km/h (1 Bft)
31.12.2019 12:33 5.0 C 72 % 1022.4 hPa 0.0 l/m 4.0 km/h (1 Bft) NO 45 1 min 4.0 km/h (1 Bft)
31.12.2019 12:32 5.0 C 72 % 1022.4 hPa 0.0 l/m 4.0 km/h (1 Bft) NO 45 1 min 2.5 km/h (1 Bft)
31.12.2019 12:31 5.0 C 71 % 1022.4 hPa 0.0 l/m 4.0 km/h (1 Bft) NO 45 1 min 2.5 km/h (1 Bft)
31.12.2019 12:30 5.0 C 71 % 1022.4 hPa 0.0 l/m 4.0 km/h (1 Bft) NO 45 1 min 2.5 km/h (1 Bft)
31.12.2019 12:29 5.1 C 71 % 1022.4 hPa 0.0 l/m 4.3 km/h (1 Bft) O-NO 68 1 min 7.2 km/h (2 Bft)
31.12.2019 12:28 5.1 C 71 % 1022.4 hPa 0.0 l/m 4.3 km/h (1 Bft) O-NO 68 1 min 7.2 km/h (2 Bft)
31.12.2019 12:27 5.2 C 71 % 1022.4 hPa 0.0 l/m 4.3 km/h (1 Bft) N-NO 23 1 min 4.3 km/h (1 Bft)
31.12.2019 12:26 5.2 C 71 % 1022.4 hPa 0.0 l/m 4.3 km/h (1 Bft) N-NO 23 1 min 4.3 km/h (1 Bft)
31.12.2019 12:25 5.2 C 71 % 1022.4 hPa 0.0 l/m 4.3 km/h (1 Bft) N 0 1 min 6.1 km/h (2 Bft)
31.12.2019 12:24 5.2 C 71 % 1022.4 hPa 0.0 l/m 4.3 km/h (1 Bft) N 0 1 min 6.1 km/h (2 Bft)
31.12.2019 12:23 5.3 C 70 % 1022.4 hPa 0.0 l/m 4.3 km/h (1 Bft) O-NO 68 1 min 7.2 km/h (2 Bft)
31.12.2019 12:22 5.3 C 70 % 1022.4 hPa 0.0 l/m 4.3 km/h (1 Bft) O-NO 68 1 min 7.2 km/h (2 Bft)
31.12.2019 12:21 5.3 C 70 % 1022.4 hPa 0.0 l/m 4.3 km/h (1 Bft) NO 45 1 min 9.0 km/h (2 Bft)
31.12.2019 12:20 5.3 C 70 % 1022.4 hPa 0.0 l/m 4.3 km/h (1 Bft) NO 45 1 min 9.0 km/h (2 Bft)
31.12.2019 12:19 5.4 C 70 % 1022.4 hPa 0.0 l/m 4.3 km/h (1 Bft) N 0 1 min 10.1 km/h (2 Bft)
31.12.2019 12:18 5.4 C 70 % 1022.4 hPa 0.0 l/m 4.3 km/h (1 Bft) N 0 1 min 10.1 km/h (2 Bft)
31.12.2019 12:17 5.7 C 70 % 1022.4 hPa 0.0 l/m 4.0 km/h (1 Bft) N-NO 23 1 min 4.3 km/h (1 Bft)
31.12.2019 12:16 5.7 C 70 % 1022.4 hPa 0.0 l/m 4.0 km/h (1 Bft) N-NO 23 1 min 4.3 km/h (1 Bft)
31.12.2019 12:15 5.7 C 70 % 1022.1 hPa 0.0 l/m 4.0 km/h (1 Bft) NO 45 1 min 4.0 km/h (1 Bft)
31.12.2019 12:14 5.7 C 70 % 1022.1 hPa 0.0 l/m 4.0 km/h (1 Bft) NO 45 1 min 6.1 km/h (2 Bft)
31.12.2019 12:13 5.7 C 69 % 1022.1 hPa 0.0 l/m 4.0 km/h (1 Bft) NO 45 1 min 6.1 km/h (2 Bft)
31.12.2019 12:12 5.7 C 69 % 1022.1 hPa 0.0 l/m 4.0 km/h (1 Bft) N-NW 338 1 min 0.0 km/h (0 Bft)
31.12.2019 12:11 5.7 C 69 % 1022.1 hPa 0.0 l/m 4.0 km/h (1 Bft) N-NW 338 1 min 0.0 km/h (0 Bft)
31.12.2019 12:10 5.7 C 70 % 1022.1 hPa 0.0 l/m 3.6 km/h (1 Bft) N 0 1 min 4.0 km/h (1 Bft)
31.12.2019 12:09 5.7 C 70 % 1022.1 hPa 0.0 l/m 3.6 km/h (1 Bft) N 0 1 min 4.0 km/h (1 Bft)
31.12.2019 12:08 5.4 C 70 % 1022.1 hPa 0.0 l/m 2.5 km/h (1 Bft) NO 45 1 min 4.3 km/h (1 Bft)
31.12.2019 12:07 5.4 C 70 % 1022.1 hPa 0.0 l/m 2.5 km/h (1 Bft) NO 45 1 min 4.3 km/h (1 Bft)
31.12.2019 12:06 5.4 C 70 % 1022.1 hPa 0.0 l/m 2.5 km/h (1 Bft) N-NO 23 1 min 4.7 km/h (1 Bft)
31.12.2019 12:05 5.4 C 70 % 1022.1 hPa 0.0 l/m 2.5 km/h (1 Bft) N-NO 23 1 min 4.7 km/h (1 Bft)
31.12.2019 12:04 5.4 C 70 % 1022.1 hPa 0.0 l/m 2.5 km/h (1 Bft) NO 45 1 min 3.6 km/h (1 Bft)
31.12.2019 12:03 5.4 C 70 % 1022.1 hPa 0.0 l/m 2.5 km/h (1 Bft) NO 45 1 min 3.6 km/h (1 Bft)
31.12.2019 12:02 5.4 C 70 % 1022.1 hPa 0.0 l/m 2.5 km/h (1 Bft) NO 45 1 min 3.6 km/h (1 Bft)
31.12.2019 12:01 5.4 C 70 % 1022.1 hPa 0.0 l/m 2.5 km/h (1 Bft) NO 45 1 min 3.6 km/h (1 Bft)
31.12.2019 12:00 5.3 C 69 % 1022.1 hPa 0.0 l/m 2.5 km/h (1 Bft) SO 135 1 min 0.0 km/h (0 Bft)
31.12.2019 11:59 5.3 C 69 % 1022.1 hPa 0.0 l/m 2.5 km/h (1 Bft) SO 135 1 min 0.0 km/h (0 Bft)
31.12.2019 11:58 5.4 C 70 % 1022.1 hPa 0.0 l/m 3.6 km/h (1 Bft) O-NO 68 1 min 4.0 km/h (1 Bft)
31.12.2019 11:57 5.4 C 70 % 1022.1 hPa 0.0 l/m 3.6 km/h (1 Bft) O-NO 68 1 min 4.0 km/h (1 Bft)
31.12.2019 11:56 5.4 C 70 % 1022.4 hPa 0.0 l/m 3.6 km/h (1 Bft) W-SW 248 1 min 2.9 km/h (1 Bft)
31.12.2019 11:55 5.4 C 70 % 1022.4 hPa 0.0 l/m 3.6 km/h (1 Bft) W-SW 248 1 min 2.9 km/h (1 Bft)
31.12.2019 11:54 5.3 C 70 % 1022.4 hPa 0.0 l/m 3.6 km/h (1 Bft) SO 135 1 min 4.3 km/h (1 Bft)
31.12.2019 11:53 5.3 C 70 % 1022.4 hPa 0.0 l/m 3.6 km/h (1 Bft) SO 135 1 min 4.3 km/h (1 Bft)
31.12.2019 11:52 5.3 C 70 % 1022.4 hPa 0.0 l/m 3.6 km/h (1 Bft) SO 135 1 min 5.0 km/h (1 Bft)
31.12.2019 11:51 5.2 C 70 % 1022.4 hPa 0.0 l/m 3.6 km/h (1 Bft) SO 135 1 min 5.0 km/h (1 Bft)
31.12.2019 11:50 5.2 C 70 % 1022.4 hPa 0.0 l/m 2.5 km/h (1 Bft) O 90 1 min 5.8 km/h (2 Bft)
31.12.2019 11:49 5.3 C 70 % 1022.4 hPa 0.0 l/m 2.5 km/h (1 Bft) O 90 1 min 5.8 km/h (2 Bft)
31.12.2019 11:48 5.3 C 70 % 1022.4 hPa 0.0 l/m 2.5 km/h (1 Bft) O 90 1 min 5.8 km/h (2 Bft)
31.12.2019 11:47 5.1 C 71 % 1022.4 hPa 0.0 l/m 2.2 km/h (1 Bft) O-NO 68 1 min 8.6 km/h (2 Bft)
31.12.2019 11:46 5.1 C 71 % 1022.4 hPa 0.0 l/m 2.2 km/h (1 Bft) O-NO 68 1 min 8.6 km/h (2 Bft)
31.12.2019 11:45 5.1 C 70 % 1022.4 hPa 0.0 l/m 2.5 km/h (1 Bft) O 90 1 min 3.6 km/h (1 Bft)
31.12.2019 11:44 5.1 C 70 % 1022.4 hPa 0.0 l/m 2.5 km/h (1 Bft) O 90 1 min 3.6 km/h (1 Bft)
31.12.2019 11:43 5.1 C 71 % 1022.4 hPa 0.0 l/m 2.2 km/h (1 Bft) O-NO 68 1 min 0.0 km/h (0 Bft)
31.12.2019 11:42 5.1 C 71 % 1022.4 hPa 0.0 l/m 2.2 km/h (1 Bft) O-NO 68 1 min 0.0 km/h (0 Bft)
31.12.2019 11:41 5.0 C 71 % 1022.4 hPa 0.0 l/m 2.2 km/h (1 Bft) N-NO 23 1 min 5.8 km/h (2 Bft)
31.12.2019 11:40 5.0 C 71 % 1022.4 hPa 0.0 l/m 2.2 km/h (1 Bft) N-NO 23 1 min 5.8 km/h (2 Bft)
31.12.2019 11:39 5.1 C 71 % 1022.4 hPa 0.0 l/m 2.2 km/h (1 Bft) S-SW 203 1 min 0.0 km/h (0 Bft)
31.12.2019 11:38 5.1 C 71 % 1022.4 hPa 0.0 l/m 2.2 km/h (1 Bft) S-SW 203 1 min 0.0 km/h (0 Bft)
31.12.2019 11:37 5.1 C 72 % 1022.4 hPa 0.0 l/m 2.5 km/h (1 Bft) NW 315 1 min 2.5 km/h (1 Bft)
31.12.2019 11:36 5.1 C 72 % 1022.4 hPa 0.0 l/m 2.5 km/h (1 Bft) NW 315 1 min 2.5 km/h (1 Bft)
31.12.2019 11:35 5.1 C 72 % 1022.3 hPa 0.0 l/m 1.8 km/h (1 Bft) NO 45 1 min 8.3 km/h (2 Bft)
31.12.2019 11:34 5.1 C 72 % 1022.3 hPa 0.0 l/m 1.8 km/h (1 Bft) NO 45 1 min 8.3 km/h (2 Bft)
31.12.2019 11:33 5.1 C 72 % 1022.3 hPa 0.0 l/m 2.2 km/h (1 Bft) O 90 1 min 0.0 km/h (0 Bft)
31.12.2019 11:32 5.1 C 72 % 1022.3 hPa 0.0 l/m 2.2 km/h (1 Bft) O 90 1 min 0.0 km/h (0 Bft)
31.12.2019 11:31 4.9 C 73 % 1022.3 hPa 0.0 l/m 2.5 km/h (1 Bft) O 90 1 min 3.6 km/h (1 Bft)
31.12.2019 11:30 4.6 C 73 % 1022.3 hPa 0.0 l/m 2.5 km/h (1 Bft) SO 135 1 min 4.0 km/h (1 Bft)
31.12.2019 11:29 4.6 C 73 % 1022.3 hPa 0.0 l/m 2.5 km/h (1 Bft) SO 135 1 min 4.0 km/h (1 Bft)
31.12.2019 11:28 4.6 C 73 % 1022.3 hPa 0.0 l/m 2.5 km/h (1 Bft) NO 45 1 min 0.0 km/h (0 Bft)
31.12.2019 11:27 4.6 C 73 % 1022.3 hPa 0.0 l/m 2.5 km/h (1 Bft) NO 45 1 min 0.0 km/h (0 Bft)
31.12.2019 11:26 4.5 C 74 % 1022.3 hPa 0.0 l/m 2.9 km/h (1 Bft) O-NO 68 1 min 0.0 km/h (0 Bft)
31.12.2019 11:25 4.5 C 74 % 1022.3 hPa 0.0 l/m 2.9 km/h (1 Bft) O-NO 68 1 min 0.0 km/h (0 Bft)
31.12.2019 11:24 4.3 C 74 % 1022.3 hPa 0.0 l/m 3.6 km/h (1 Bft) O 90 1 min 6.1 km/h (2 Bft)
31.12.2019 11:23 4.3 C 74 % 1022.3 hPa 0.0 l/m 3.6 km/h (1 Bft) O 90 1 min 6.1 km/h (2 Bft)
31.12.2019 11:22 4.3 C 74 % 1022.3 hPa 0.0 l/m 3.6 km/h (1 Bft) O 90 1 min 5.8 km/h (2 Bft)
31.12.2019 11:21 4.3 C 74 % 1022.3 hPa 0.0 l/m 3.6 km/h (1 Bft) O 90 1 min 5.8 km/h (2 Bft)
31.12.2019 11:20 4.1 C 74 % 1022.3 hPa 0.0 l/m 2.5 km/h (1 Bft) S-SO 158 1 min 4.0 km/h (1 Bft)
31.12.2019 11:19 4.1 C 74 % 1022.3 hPa 0.0 l/m 2.5 km/h (1 Bft) S-SO 158 1 min 4.0 km/h (1 Bft)
31.12.2019 11:18 3.8 C 75 % 1022.3 hPa 0.0 l/m 2.5 km/h (1 Bft) O 90 1 min 3.6 km/h (1 Bft)
31.12.2019 11:17 3.8 C 75 % 1022.3 hPa 0.0 l/m 2.5 km/h (1 Bft) O 90 1 min 3.6 km/h (1 Bft)
31.12.2019 11:16 3.8 C 75 % 1022.9 hPa 0.0 l/m 3.6 km/h (1 Bft) O-NO 68 1 min 3.6 km/h (1 Bft)
31.12.2019 11:15 3.8 C 75 % 1022.9 hPa 0.0 l/m 3.6 km/h (1 Bft) O-NO 68 1 min 3.6 km/h (1 Bft)
31.12.2019 11:14 3.8 C 75 % 1022.9 hPa 0.0 l/m 4.0 km/h (1 Bft) NO 45 1 min 6.8 km/h (2 Bft)
31.12.2019 11:13 3.8 C 75 % 1022.9 hPa 0.0 l/m 4.0 km/h (1 Bft) NO 45 1 min 6.8 km/h (2 Bft)
31.12.2019 11:12 3.6 C 75 % 1022.9 hPa 0.0 l/m 3.6 km/h (1 Bft) SO 135 1 min 8.6 km/h (2 Bft)
31.12.2019 11:11 3.6 C 75 % 1022.9 hPa 0.0 l/m 3.6 km/h (1 Bft) SO 135 1 min 8.6 km/h (2 Bft)
31.12.2019 11:10 3.6 C 76 % 1022.9 hPa 0.0 l/m 4.0 km/h (1 Bft) N-NW 338 1 min 0.0 km/h (0 Bft)
31.12.2019 11:09 3.6 C 76 % 1022.9 hPa 0.0 l/m 4.0 km/h (1 Bft) N-NW 338 1 min 0.0 km/h (0 Bft)
31.12.2019 11:08 3.6 C 76 % 1022.9 hPa 0.0 l/m 4.3 km/h (1 Bft) SO 135 1 min 4.0 km/h (1 Bft)
31.12.2019 11:07 3.5 C 76 % 1022.9 hPa 0.0 l/m 4.3 km/h (1 Bft) SO 135 1 min 4.0 km/h (1 Bft)
31.12.2019 11:06 3.5 C 76 % 1022.9 hPa 0.0 l/m 2.9 km/h (1 Bft) O-SO 113 1 min 5.8 km/h (2 Bft)
31.12.2019 11:05 3.5 C 76 % 1022.9 hPa 0.0 l/m 2.9 km/h (1 Bft) O-SO 113 1 min 5.8 km/h (2 Bft)
31.12.2019 11:04 3.5 C 76 % 1022.9 hPa 0.0 l/m 2.9 km/h (1 Bft) O-SO 113 1 min 5.8 km/h (2 Bft)
31.12.2019 11:03 3.4 C 77 % 1022.9 hPa 0.0 l/m 2.5 km/h (1 Bft) O 90 1 min 4.3 km/h (1 Bft)
31.12.2019 11:02 3.4 C 77 % 1022.9 hPa 0.0 l/m 2.5 km/h (1 Bft) O 90 1 min 4.3 km/h (1 Bft)
31.12.2019 11:01 3.3 C 78 % 1022.9 hPa 0.0 l/m 2.2 km/h (1 Bft) S-SO 158 1 min 0.0 km/h (0 Bft)
31.12.2019 11:00 3.3 C 78 % 1022.9 hPa 0.0 l/m 2.2 km/h (1 Bft) S-SO 158 1 min 0.0 km/h (0 Bft)
31.12.2019 10:59 3.0 C 78 % 1022.9 hPa 0.0 l/m 2.5 km/h (1 Bft) NO 45 1 min 4.7 km/h (1 Bft)
31.12.2019 10:58 3.0 C 78 % 1022.9 hPa 0.0 l/m 2.5 km/h (1 Bft) NO 45 1 min 4.7 km/h (1 Bft)
31.12.2019 10:57 2.8 C 78 % 1022.9 hPa 0.0 l/m 3.6 km/h (1 Bft) SO 135 1 min 4.3 km/h (1 Bft)
31.12.2019 10:56 2.8 C 78 % 1022.9 hPa 0.0 l/m 3.6 km/h (1 Bft) SO 135 1 min 4.3 km/h (1 Bft)
31.12.2019 10:55 2.7 C 79 % 1022.8 hPa 0.0 l/m 3.6 km/h (1 Bft) S-SO 158 1 min 0.0 km/h (0 Bft)
31.12.2019 10:54 2.7 C 79 % 1022.8 hPa 0.0 l/m 3.6 km/h (1 Bft) S-SO 158 1 min 0.0 km/h (0 Bft)
31.12.2019 10:53 2.5 C 78 % 1022.8 hPa 0.0 l/m 4.0 km/h (1 Bft) S-SO 158 1 min 2.5 km/h (1 Bft)
31.12.2019 10:52 2.5 C 78 % 1022.8 hPa 0.0 l/m 4.0 km/h (1 Bft) S-SO 158 1 min 2.5 km/h (1 Bft)
31.12.2019 10:51 2.3 C 77 % 1022.8 hPa 0.0 l/m 3.6 km/h (1 Bft) NW 315 1 min 2.5 km/h (1 Bft)
31.12.2019 10:50 2.3 C 77 % 1022.8 hPa 0.0 l/m 3.6 km/h (1 Bft) NW 315 1 min 2.5 km/h (1 Bft)
31.12.2019 10:49 2.5 C 78 % 1022.8 hPa 0.0 l/m 2.5 km/h (1 Bft) SO 135 1 min 12.6 km/h (3 Bft)
31.12.2019 10:48 2.5 C 78 % 1022.8 hPa 0.0 l/m 2.5 km/h (1 Bft) SO 135 1 min 12.6 km/h (3 Bft)
31.12.2019 10:47 2.5 C 79 % 1022.8 hPa 0.0 l/m 1.4 km/h (1 Bft) SO 135 1 min 6.5 km/h (2 Bft)
31.12.2019 10:46 2.3 C 79 % 1022.8 hPa 0.0 l/m 0.7 km/h (0 Bft) O-SO 113 1 min 4.0 km/h (1 Bft)
31.12.2019 10:45 2.3 C 79 % 1022.8 hPa 0.0 l/m 0.7 km/h (0 Bft) O-SO 113 1 min 4.0 km/h (1 Bft)
31.12.2019 10:44 2.3 C 79 % 1022.8 hPa 0.0 l/m 0.4 km/h (0 Bft) NO 45 1 min 0.0 km/h (0 Bft)
31.12.2019 10:43 2.3 C 79 % 1022.8 hPa 0.0 l/m 0.4 km/h (0 Bft) NO 45 1 min 0.0 km/h (0 Bft)
31.12.2019 10:42 2.0 C 79 % 1022.8 hPa 0.0 l/m 0.4 km/h (0 Bft) S-SO 158 1 min 0.0 km/h (0 Bft)
31.12.2019 10:41 2.0 C 79 % 1022.8 hPa 0.0 l/m 0.4 km/h (0 Bft) S-SO 158 1 min 0.0 km/h (0 Bft)
31.12.2019 10:40 2.1 C 80 % 1022.8 hPa 0.0 l/m 0.0 km/h (0 Bft) S-SW 203 1 min 0.0 km/h (0 Bft)
31.12.2019 10:39 2.1 C 80 % 1022.8 hPa 0.0 l/m 0.0 km/h (0 Bft) S-SW 203 1 min 0.0 km/h (0 Bft)
31.12.2019 10:38 2.1 C 80 % 1022.8 hPa 0.0 l/m 0.4 km/h (0 Bft) SO 135 1 min 0.0 km/h (0 Bft)
31.12.2019 10:37 2.1 C 80 % 1022.8 hPa 0.0 l/m 0.4 km/h (0 Bft) SO 135 1 min 0.0 km/h (0 Bft)
31.12.2019 10:36 1.9 C 80 % 1022.8 hPa 0.0 l/m 0.4 km/h (0 Bft) W 270 1 min 0.0 km/h (0 Bft)
31.12.2019 10:35 1.9 C 80 % 1022.8 hPa 0.0 l/m 0.4 km/h (0 Bft) W 270 1 min 0.0 km/h (0 Bft)
31.12.2019 10:34 1.8 C 81 % 1022.8 hPa 0.0 l/m 0.4 km/h (0 Bft) N-NO 23 1 min 0.0 km/h (0 Bft)
31.12.2019 10:33 1.8 C 81 % 1022.8 hPa 0.0 l/m 0.4 km/h (0 Bft) N-NO 23 1 min 0.0 km/h (0 Bft)
31.12.2019 10:32 1.7 C 81 % 1022.8 hPa 0.0 l/m 0.7 km/h (0 Bft) S-SO 158 1 min 0.0 km/h (0 Bft)
31.12.2019 10:31 1.7 C 81 % 1022.8 hPa 0.0 l/m 0.7 km/h (0 Bft) S-SO 158 1 min 0.0 km/h (0 Bft)
31.12.2019 10:30 1.6 C 81 % 1022.8 hPa 0.0 l/m 0.7 km/h (0 Bft) S-SW 203 1 min 0.0 km/h (0 Bft)
31.12.2019 10:29 1.6 C 81 % 1022.8 hPa 0.0 l/m 0.7 km/h (0 Bft) S-SW 203 1 min 0.0 km/h (0 Bft)
31.12.2019 10:28 1.4 C 81 % 1022.8 hPa 0.0 l/m 0.7 km/h (0 Bft) O-SO 113 1 min 0.0 km/h (0 Bft)
31.12.2019 10:27 1.4 C 81 % 1022.8 hPa 0.0 l/m 0.7 km/h (0 Bft) O-SO 113 1 min 0.0 km/h (0 Bft)
31.12.2019 10:26 1.3 C 82 % 1022.8 hPa 0.0 l/m 0.7 km/h (0 Bft) S-SO 158 1 min 0.0 km/h (0 Bft)
31.12.2019 10:25 1.3 C 82 % 1022.8 hPa 0.0 l/m 0.7 km/h (0 Bft) S-SO 158 1 min 0.0 km/h (0 Bft)
31.12.2019 10:24 1.3 C 82 % 1022.8 hPa 0.0 l/m 0.7 km/h (0 Bft) S-SO 158 1 min 0.0 km/h (0 Bft)
31.12.2019 10:23 1.0 C 82 % 1022.8 hPa 0.0 l/m 0.7 km/h (0 Bft) S-SO 158 1 min 0.0 km/h (0 Bft)
31.12.2019 10:22 1.0 C 82 % 1022.8 hPa 0.0 l/m 0.7 km/h (0 Bft) O 90 1 min 4.0 km/h (1 Bft)
31.12.2019 10:21 0.9 C 82 % 1022.8 hPa 0.0 l/m 0.7 km/h (0 Bft) O 90 1 min 4.0 km/h (1 Bft)
31.12.2019 10:20 0.9 C 82 % 1022.8 hPa 0.0 l/m 0.7 km/h (0 Bft) O 90 1 min 4.0 km/h (1 Bft)
31.12.2019 10:19 0.9 C 82 % 1022.8 hPa 0.0 l/m 0.7 km/h (0 Bft) O 90 1 min 0.0 km/h (0 Bft)
31.12.2019 10:18 0.9 C 82 % 1022.8 hPa 0.0 l/m 0.7 km/h (0 Bft) O 90 1 min 0.0 km/h (0 Bft)
31.12.2019 10:17 0.8 C 82 % 1022.8 hPa 0.0 l/m 0.7 km/h (0 Bft) O-NO 68 1 min 0.0 km/h (0 Bft)
31.12.2019 10:16 0.8 C 82 % 1022.8 hPa 0.0 l/m 0.7 km/h (0 Bft) O-NO 68 1 min 0.0 km/h (0 Bft)
31.12.2019 10:15 0.9 C 83 % 1022.6 hPa 0.0 l/m 0.7 km/h (0 Bft) O 90 1 min 3.6 km/h (1 Bft)
31.12.2019 10:14 0.9 C 83 % 1022.6 hPa 0.0 l/m 0.7 km/h (0 Bft) O 90 1 min 3.6 km/h (1 Bft)
31.12.2019 10:13 0.9 C 83 % 1022.6 hPa 0.0 l/m 1.4 km/h (1 Bft) W-SW 248 1 min 0.0 km/h (0 Bft)
31.12.2019 10:12 0.9 C 83 % 1022.6 hPa 0.0 l/m 1.4 km/h (1 Bft) W-SW 248 1 min 0.0 km/h (0 Bft)
31.12.2019 10:11 0.8 C 83 % 1022.6 hPa 0.0 l/m 1.8 km/h (1 Bft) SW 225 1 min 2.5 km/h (1 Bft)
31.12.2019 10:10 0.8 C 83 % 1022.6 hPa 0.0 l/m 1.8 km/h (1 Bft) SW 225 1 min 2.5 km/h (1 Bft)
31.12.2019 10:09 0.7 C 83 % 1022.6 hPa 0.0 l/m 2.2 km/h (1 Bft) SO 135 1 min 0.0 km/h (0 Bft)
31.12.2019 10:08 0.7 C 83 % 1022.6 hPa 0.0 l/m 2.2 km/h (1 Bft) SO 135 1 min 0.0 km/h (0 Bft)
31.12.2019 10:07 0.6 C 83 % 1022.6 hPa 0.0 l/m 3.6 km/h (1 Bft) S-SW 203 1 min 0.0 km/h (0 Bft)
31.12.2019 10:06 0.6 C 83 % 1022.6 hPa 0.0 l/m 3.6 km/h (1 Bft) S-SW 203 1 min 0.0 km/h (0 Bft)
31.12.2019 10:05 0.5 C 84 % 1022.6 hPa 0.0 l/m 4.0 km/h (1 Bft) O-SO 113 1 min 0.0 km/h (0 Bft)
31.12.2019 10:04 0.3 C 84 % 1022.6 hPa 0.0 l/m 4.3 km/h (1 Bft) SO 135 1 min 4.3 km/h (1 Bft)
31.12.2019 10:03 0.3 C 84 % 1022.6 hPa 0.0 l/m 4.3 km/h (1 Bft) SO 135 1 min 4.3 km/h (1 Bft)
31.12.2019 10:02 0.1 C 84 % 1022.6 hPa 0.0 l/m 4.3 km/h (1 Bft) S-SW 203 1 min 4.0 km/h (1 Bft)
31.12.2019 10:01 0.1 C 84 % 1022.6 hPa 0.0 l/m 4.3 km/h (1 Bft) S-SW 203 1 min 4.0 km/h (1 Bft)
31.12.2019 10:00 0.1 C 85 % 1022.6 hPa 0.0 l/m 4.3 km/h (1 Bft) NO 45 1 min 5.0 km/h (1 Bft)
31.12.2019 09:59 0.1 C 85 % 1022.6 hPa 0.0 l/m 4.3 km/h (1 Bft) NO 45 1 min 5.0 km/h (1 Bft)
31.12.2019 09:58 0.0 C 85 % 1022.6 hPa 0.0 l/m 3.6 km/h (1 Bft) O-NO 68 1 min 6.1 km/h (2 Bft)
31.12.2019 09:57 0.0 C 85 % 1022.6 hPa 0.0 l/m 3.6 km/h (1 Bft) O-NO 68 1 min 6.1 km/h (2 Bft)
31.12.2019 09:56 0.0 C 85 % 1022.4 hPa 0.0 l/m 2.5 km/h (1 Bft) O-NO 68 1 min 5.0 km/h (1 Bft)
31.12.2019 09:55 0.0 C 85 % 1022.4 hPa 0.0 l/m 2.5 km/h (1 Bft) O-NO 68 1 min 5.0 km/h (1 Bft)
31.12.2019 09:54 -0.1 C 85 % 1022.4 hPa 0.0 l/m 2.2 km/h (1 Bft) O-NO 68 1 min 4.7 km/h (1 Bft)
31.12.2019 09:53 -0.1 C 85 % 1022.4 hPa 0.0 l/m 2.2 km/h (1 Bft) O-NO 68 1 min 4.7 km/h (1 Bft)
31.12.2019 09:52 -0.2 C 86 % 1022.4 hPa 0.0 l/m 2.2 km/h (1 Bft) O-NO 68 1 min 5.0 km/h (1 Bft)
31.12.2019 09:51 -0.2 C 86 % 1022.4 hPa 0.0 l/m 2.2 km/h (1 Bft) O-NO 68 1 min 5.0 km/h (1 Bft)
31.12.2019 09:50 -0.3 C 86 % 1022.4 hPa 0.0 l/m 2.2 km/h (1 Bft) NO 45 1 min 6.8 km/h (2 Bft)
31.12.2019 09:49 -0.3 C 86 % 1022.4 hPa 0.0 l/m 2.2 km/h (1 Bft) NO 45 1 min 6.8 km/h (2 Bft)
31.12.2019 09:48 -0.3 C 86 % 1022.4 hPa 0.0 l/m 2.2 km/h (1 Bft) S-SW 203 1 min 0.0 km/h (0 Bft)
31.12.2019 09:47 -0.3 C 86 % 1022.4 hPa 0.0 l/m 2.2 km/h (1 Bft) S-SW 203 1 min 0.0 km/h (0 Bft)
31.12.2019 09:46 -0.5 C 86 % 1022.4 hPa 0.0 l/m 1.8 km/h (1 Bft) SO 135 1 min 2.5 km/h (1 Bft)
31.12.2019 09:45 -0.5 C 86 % 1022.4 hPa 0.0 l/m 1.8 km/h (1 Bft) SO 135 1 min 2.5 km/h (1 Bft)
31.12.2019 09:44 -0.6 C 86 % 1022.4 hPa 0.0 l/m 1.4 km/h (1 Bft) S 180 1 min 0.0 km/h (0 Bft)
31.12.2019 09:43 -0.6 C 86 % 1022.4 hPa 0.0 l/m 1.4 km/h (1 Bft) S 180 1 min 0.0 km/h (0 Bft)
31.12.2019 09:42 -0.6 C 86 % 1022.4 hPa 0.0 l/m 1.4 km/h (1 Bft) O-NO 68 1 min 5.8 km/h (2 Bft)
31.12.2019 09:41 -0.6 C 86 % 1022.4 hPa 0.0 l/m 1.4 km/h (1 Bft) O-NO 68 1 min 5.8 km/h (2 Bft)
31.12.2019 09:40 -0.6 C 86 % 1022.4 hPa 0.0 l/m 0.7 km/h (0 Bft) SO 135 1 min 6.1 km/h (2 Bft)
31.12.2019 09:39 -0.7 C 86 % 1022.4 hPa 0.0 l/m 0.7 km/h (0 Bft) SO 135 1 min 6.1 km/h (2 Bft)
31.12.2019 09:38 -0.7 C 86 % 1022.4 hPa 0.0 l/m 0.4 km/h (0 Bft) O-NO 68 1 min 2.5 km/h (1 Bft)
31.12.2019 09:37 -0.7 C 87 % 1022.4 hPa 0.0 l/m 0.4 km/h (0 Bft) O-NO 68 1 min 2.5 km/h (1 Bft)
31.12.2019 09:36 -0.7 C 87 % 1022.4 hPa 0.0 l/m 0.4 km/h (0 Bft) O-NO 68 1 min 2.5 km/h (1 Bft)
31.12.2019 09:35 -0.8 C 87 % 1022.4 hPa 0.0 l/m 0.0 km/h (0 Bft) O-NO 68 1 min 0.0 km/h (0 Bft)
31.12.2019 09:34 -0.8 C 87 % 1022.4 hPa 0.0 l/m 0.0 km/h (0 Bft) O-NO 68 1 min 0.0 km/h (0 Bft)
31.12.2019 09:33 -0.7 C 87 % 1022.4 hPa 0.0 l/m 0.0 km/h (0 Bft) W-SW 248 1 min 0.0 km/h (0 Bft)
31.12.2019 09:32 -0.7 C 87 % 1022.4 hPa 0.0 l/m 0.0 km/h (0 Bft) W-SW 248 1 min 0.0 km/h (0 Bft)
31.12.2019 09:31 -1.0 C 87 % 1022.4 hPa 0.0 l/m 0.0 km/h (0 Bft) W 270 1 min 2.5 km/h (1 Bft)
31.12.2019 09:30 -1.0 C 87 % 1022.4 hPa 0.0 l/m 0.0 km/h (0 Bft) W 270 1 min 2.5 km/h (1 Bft)
31.12.2019 09:29 -1.0 C 87 % 1022.4 hPa 0.0 l/m 0.0 km/h (0 Bft) W-SW 248 1 min 0.0 km/h (0 Bft)
31.12.2019 09:28 -1.0 C 87 % 1022.4 hPa 0.0 l/m 0.0 km/h (0 Bft) W-SW 248 1 min 0.0 km/h (0 Bft)
31.12.2019 09:27 -1.1 C 87 % 1022.4 hPa 0.0 l/m 0.4 km/h (0 Bft) SW 225 1 min 0.0 km/h (0 Bft)
31.12.2019 09:26 -1.1 C 87 % 1022.4 hPa 0.0 l/m 0.4 km/h (0 Bft) SW 225 1 min 0.0 km/h (0 Bft)
31.12.2019 09:25 -1.2 C 87 % 1022.4 hPa 0.0 l/m 0.7 km/h (0 Bft) W-SW 248 1 min 0.0 km/h (0 Bft)
31.12.2019 09:24 -1.2 C 87 % 1022.4 hPa 0.0 l/m 0.7 km/h (0 Bft) W-SW 248 1 min 0.0 km/h (0 Bft)
31.12.2019 09:23 -1.3 C 87 % 1022.4 hPa 0.0 l/m 1.4 km/h (1 Bft) W-SW 248 1 min 0.0 km/h (0 Bft)
31.12.2019 09:22 -1.3 C 87 % 1022.4 hPa 0.0 l/m 1.4 km/h (1 Bft) W-SW 248 1 min 0.0 km/h (0 Bft)
31.12.2019 09:21 -1.5 C 87 % 1022.4 hPa 0.0 l/m 2.2 km/h (1 Bft) N-NW 338 1 min 0.0 km/h (0 Bft)
31.12.2019 09:20 -1.6 C 87 % 1022.4 hPa 0.0 l/m 2.2 km/h (1 Bft) N-NW 338 1 min 0.0 km/h (0 Bft)
31.12.2019 09:19 -1.6 C 87 % 1022.4 hPa 0.0 l/m 2.2 km/h (1 Bft) W-SW 248 1 min 0.0 km/h (0 Bft)
31.12.2019 09:18 -1.7 C 87 % 1022.4 hPa 0.0 l/m 2.2 km/h (1 Bft) SO 135 1 min 7.2 km/h (2 Bft)
31.12.2019 09:17 -1.7 C 87 % 1022.4 hPa 0.0 l/m 2.2 km/h (1 Bft) SO 135 1 min 7.2 km/h (2 Bft)
31.12.2019 09:16 -1.7 C 87 % 1022.6 hPa 0.0 l/m 2.2 km/h (1 Bft) O-NO 68 1 min 3.6 km/h (1 Bft)
31.12.2019 09:15 -1.7 C 87 % 1022.6 hPa 0.0 l/m 2.2 km/h (1 Bft) O-NO 68 1 min 3.6 km/h (1 Bft)
31.12.2019 09:14 -1.9 C 88 % 1022.6 hPa 0.0 l/m 1.8 km/h (1 Bft) O 90 1 min 6.8 km/h (2 Bft)
31.12.2019 09:13 -1.9 C 88 % 1022.6 hPa 0.0 l/m 1.8 km/h (1 Bft) O 90 1 min 6.8 km/h (2 Bft)
31.12.2019 09:12 -2.1 C 88 % 1022.6 hPa 0.0 l/m 1.4 km/h (1 Bft) O 90 1 min 6.1 km/h (2 Bft)
31.12.2019 09:11 -2.1 C 88 % 1022.6 hPa 0.0 l/m 1.4 km/h (1 Bft) O 90 1 min 6.1 km/h (2 Bft)
31.12.2019 09:10 -2.2 C 87 % 1022.6 hPa 0.0 l/m 1.4 km/h (1 Bft) N-NO 23 0 min 0.0 km/h (0 Bft)
31.12.2019 09:09 -2.2 C 87 % 1022.6 hPa 0.0 l/m 1.4 km/h (1 Bft) N-NO 23 0 min 0.0 km/h (0 Bft)
31.12.2019 09:08 -2.2 C 88 % 1022.6 hPa 0.0 l/m 1.4 km/h (1 Bft) N 0 0 min 3.6 km/h (1 Bft)
31.12.2019 09:07 -2.2 C 88 % 1022.6 hPa 0.0 l/m 1.4 km/h (1 Bft) N 0 0 min 3.6 km/h (1 Bft)
31.12.2019 09:06 -2.1 C 88 % 1022.6 hPa 0.0 l/m 0.7 km/h (0 Bft) N 0 1 min 4.7 km/h (1 Bft)
31.12.2019 09:05 -2.1 C 88 % 1022.6 hPa 0.0 l/m 0.7 km/h (0 Bft) N 0 1 min 4.7 km/h (1 Bft)
31.12.2019 09:04 -2.2 C 88 % 1022.6 hPa 0.0 l/m 0.4 km/h (0 Bft) N 0 1 min 0.0 km/h (0 Bft)
31.12.2019 09:03 -2.2 C 88 % 1022.6 hPa 0.0 l/m 0.4 km/h (0 Bft) N 0 1 min 0.0 km/h (0 Bft)
31.12.2019 09:02 -2.3 C 88 % 1022.6 hPa 0.0 l/m 0.4 km/h (0 Bft) SO 135 1 min 0.0 km/h (0 Bft)
31.12.2019 09:01 -2.3 C 88 % 1022.6 hPa 0.0 l/m 0.4 km/h (0 Bft) SO 135 1 min 0.0 km/h (0 Bft)
31.12.2019 09:00 -2.3 C 88 % 1022.6 hPa 0.0 l/m 0.4 km/h (0 Bft) NO 45 1 min 4.0 km/h (1 Bft)
31.12.2019 08:59 -2.3 C 88 % 1022.6 hPa 0.0 l/m 0.4 km/h (0 Bft) NO 45 0 min 4.0 km/h (1 Bft)
31.12.2019 08:58 -2.3 C 88 % 1022.6 hPa 0.0 l/m 0.4 km/h (0 Bft) O-NO 68 0 min 2.5 km/h (1 Bft)
31.12.2019 08:57 -2.3 C 87 % 1022.6 hPa 0.0 l/m 0.4 km/h (0 Bft) O-NO 68 0 min 2.5 km/h (1 Bft)
31.12.2019 08:56 -2.3 C 87 % 1022.7 hPa 0.0 l/m 0.4 km/h (0 Bft) O 90 0 min 0.0 km/h (0 Bft)
31.12.2019 08:55 -2.5 C 87 % 1022.7 hPa 0.0 l/m 0.4 km/h (0 Bft) O 90 0 min 0.0 km/h (0 Bft)
31.12.2019 08:54 -2.5 C 87 % 1022.7 hPa 0.0 l/m 0.4 km/h (0 Bft) O 90 0 min 0.0 km/h (0 Bft)
31.12.2019 08:53 -2.6 C 87 % 1022.7 hPa 0.0 l/m 0.4 km/h (0 Bft) O-NO 68 0 min 0.0 km/h (0 Bft)
31.12.2019 08:52 -2.6 C 87 % 1022.7 hPa 0.0 l/m 0.4 km/h (0 Bft) O-NO 68 0 min 0.0 km/h (0 Bft)
31.12.2019 08:51 -2.5 C 87 % 1022.7 hPa 0.0 l/m 0.4 km/h (0 Bft) W-NW 293 0 min 0.0 km/h (0 Bft)
31.12.2019 08:50 -2.5 C 87 % 1022.7 hPa 0.0 l/m 0.4 km/h (0 Bft) W-NW 293 0 min 0.0 km/h (0 Bft)
31.12.2019 08:49 -2.6 C 87 % 1022.7 hPa 0.0 l/m 0.4 km/h (0 Bft) W 270 0 min 0.0 km/h (0 Bft)
31.12.2019 08:48 -2.6 C 87 % 1022.7 hPa 0.0 l/m 0.4 km/h (0 Bft) W 270 0 min 0.0 km/h (0 Bft)
31.12.2019 08:47 -2.6 C 87 % 1022.7 hPa 0.0 l/m 0.0 km/h (0 Bft) W-SW 248 0 min 2.5 km/h (1 Bft)
31.12.2019 08:46 -2.6 C 87 % 1022.7 hPa 0.0 l/m 0.0 km/h (0 Bft) W-SW 248 0 min 2.5 km/h (1 Bft)
31.12.2019 08:45 -2.6 C 87 % 1022.7 hPa 0.0 l/m 0.0 km/h (0 Bft) W-NW 293 0 min 0.0 km/h (0 Bft)
31.12.2019 08:44 -2.6 C 87 % 1022.7 hPa 0.0 l/m 0.0 km/h (0 Bft) W-NW 293 0 min 0.0 km/h (0 Bft)
31.12.2019 08:43 -2.6 C 87 % 1022.7 hPa 0.0 l/m 0.4 km/h (0 Bft) W 270 0 min 0.0 km/h (0 Bft)
31.12.2019 08:42 -2.6 C 87 % 1022.7 hPa 0.0 l/m 0.4 km/h (0 Bft) W 270 0 min 0.0 km/h (0 Bft)
31.12.2019 08:41 -2.6 C 87 % 1022.7 hPa 0.0 l/m 0.4 km/h (0 Bft) W-NW 293 0 min 0.0 km/h (0 Bft)
31.12.2019 08:40 -2.6 C 87 % 1022.7 hPa 0.0 l/m 0.4 km/h (0 Bft) W-NW 293 0 min 0.0 km/h (0 Bft)
31.12.2019 08:39 -2.6 C 87 % 1022.7 hPa 0.0 l/m 0.4 km/h (0 Bft) S 180 0 min 0.0 km/h (0 Bft)
31.12.2019 08:38 -2.6 C 87 % 1022.7 hPa 0.0 l/m 0.4 km/h (0 Bft) S 180 0 min 0.0 km/h (0 Bft)
31.12.2019 08:37 -2.5 C 87 % 1022.7 hPa 0.0 l/m 0.4 km/h (0 Bft) NW 315 0 min 0.0 km/h (0 Bft)
31.12.2019 08:36 -2.6 C 87 % 1022.8 hPa 0.0 l/m 0.4 km/h (0 Bft) S-SW 203 0 min 0.0 km/h (0 Bft)
31.12.2019 08:35 -2.6 C 87 % 1022.8 hPa 0.0 l/m 0.4 km/h (0 Bft) S-SW 203 0 min 0.0 km/h (0 Bft)
31.12.2019 08:34 -2.6 C 87 % 1022.8 hPa 0.0 l/m 0.4 km/h (0 Bft) S-SW 203 0 min 2.5 km/h (1 Bft)
31.12.2019 08:33 -2.6 C 87 % 1022.8 hPa 0.0 l/m 0.4 km/h (0 Bft) S-SW 203 0 min 2.5 km/h (1 Bft)
31.12.2019 08:32 -2.5 C 87 % 1022.8 hPa 0.0 l/m 0.0 km/h (0 Bft) W-SW 248 0 min 0.0 km/h (0 Bft)
31.12.2019 08:31 -2.5 C 87 % 1022.8 hPa 0.0 l/m 0.0 km/h (0 Bft) W-SW 248 0 min 0.0 km/h (0 Bft)
31.12.2019 08:30 -2.6 C 87 % 1022.8 hPa 0.0 l/m 0.0 km/h (0 Bft) W-SW 248 0 min 0.0 km/h (0 Bft)
31.12.2019 08:29 -2.6 C 87 % 1022.8 hPa 0.0 l/m 0.0 km/h (0 Bft) W-SW 248 0 min 0.0 km/h (0 Bft)
31.12.2019 08:28 -2.6 C 87 % 1022.8 hPa 0.0 l/m 0.4 km/h (0 Bft) N 0 0 min 0.0 km/h (0 Bft)
31.12.2019 08:27 -2.6 C 87 % 1022.8 hPa 0.0 l/m 0.4 km/h (0 Bft) N 0 0 min 0.0 km/h (0 Bft)
31.12.2019 08:26 -2.6 C 87 % 1022.8 hPa 0.0 l/m 0.4 km/h (0 Bft) S-SW 203 0 min 0.0 km/h (0 Bft)
31.12.2019 08:25 -2.6 C 87 % 1022.8 hPa 0.0 l/m 0.4 km/h (0 Bft) S-SW 203 0 min 0.0 km/h (0 Bft)
31.12.2019 08:24 -2.6 C 87 % 1022.8 hPa 0.0 l/m 0.4 km/h (0 Bft) O 90 0 min 0.0 km/h (0 Bft)
31.12.2019 08:23 -2.6 C 87 % 1022.8 hPa 0.0 l/m 0.4 km/h (0 Bft) O 90 0 min 0.0 km/h (0 Bft)
31.12.2019 08:22 -2.6 C 87 % 1022.8 hPa 0.0 l/m 0.4 km/h (0 Bft) S-SW 203 0 min 0.0 km/h (0 Bft)
31.12.2019 08:21 -2.6 C 87 % 1022.8 hPa 0.0 l/m 0.4 km/h (0 Bft) S-SW 203 0 min 0.0 km/h (0 Bft)
31.12.2019 08:20 -2.6 C 87 % 1022.8 hPa 0.0 l/m 0.4 km/h (0 Bft) NO 45 0 min 0.0 km/h (0 Bft)
31.12.2019 08:19 -2.6 C 87 % 1022.8 hPa 0.0 l/m 0.4 km/h (0 Bft) NO 45 0 min 0.0 km/h (0 Bft)
31.12.2019 08:18 -2.5 C 87 % 1022.8 hPa 0.0 l/m 0.7 km/h (0 Bft) N-NO 23 0 min 0.0 km/h (0 Bft)
31.12.2019 08:17 -2.5 C 87 % 1022.8 hPa 0.0 l/m 0.7 km/h (0 Bft) N-NO 23 0 min 0.0 km/h (0 Bft)
31.12.2019 08:16 -2.5 C 87 % 1022.2 hPa 0.0 l/m 0.7 km/h (0 Bft) NW 315 0 min 2.5 km/h (1 Bft)
31.12.2019 08:15 -2.6 C 87 % 1022.2 hPa 0.0 l/m 0.7 km/h (0 Bft) NW 315 0 min 2.5 km/h (1 Bft)
31.12.2019 08:14 -2.6 C 87 % 1022.2 hPa 0.0 l/m 0.7 km/h (0 Bft) N-NO 23 0 min 0.0 km/h (0 Bft)
31.12.2019 08:13 -2.7 C 88 % 1022.2 hPa 0.0 l/m 0.7 km/h (0 Bft) N-NO 23 0 min 0.0 km/h (0 Bft)
31.12.2019 08:12 -2.7 C 88 % 1022.2 hPa 0.0 l/m 0.7 km/h (0 Bft) SO 135 0 min 0.0 km/h (0 Bft)
31.12.2019 08:11 -2.5 C 88 % 1022.2 hPa 0.0 l/m 0.7 km/h (0 Bft) SO 135 0 min 0.0 km/h (0 Bft)
31.12.2019 08:10 -2.5 C 88 % 1022.2 hPa 0.0 l/m 0.7 km/h (0 Bft) SO 135 0 min 0.0 km/h (0 Bft)
31.12.2019 08:09 -2.7 C 88 % 1022.2 hPa 0.0 l/m 0.7 km/h (0 Bft) W 270 0 min 0.0 km/h (0 Bft)
31.12.2019 08:08 -2.7 C 88 % 1022.2 hPa 0.0 l/m 0.7 km/h (0 Bft) W 270 0 min 0.0 km/h (0 Bft)
31.12.2019 08:07 -2.7 C 87 % 1022.2 hPa 0.0 l/m 0.4 km/h (0 Bft) O-NO 68 0 min 0.0 km/h (0 Bft)
31.12.2019 08:06 -2.7 C 87 % 1022.2 hPa 0.0 l/m 0.4 km/h (0 Bft) O-NO 68 0 min 0.0 km/h (0 Bft)
31.12.2019 08:05 -2.7 C 87 % 1022.2 hPa 0.0 l/m 0.4 km/h (0 Bft) NO 45 0 min 3.6 km/h (1 Bft)
31.12.2019 08:04 -2.7 C 87 % 1022.2 hPa 0.0 l/m 0.4 km/h (0 Bft) NO 45 0 min 3.6 km/h (1 Bft)
31.12.2019 08:03 -2.7 C 87 % 1022.2 hPa 0.0 l/m 0.4 km/h (0 Bft) NO 45 0 min 0.0 km/h (0 Bft)
31.12.2019 08:02 -2.7 C 87 % 1022.2 hPa 0.0 l/m 0.4 km/h (0 Bft) NO 45 0 min 0.0 km/h (0 Bft)
31.12.2019 08:01 -2.7 C 87 % 1022.2 hPa 0.0 l/m 0.4 km/h (0 Bft) W-SW 248 0 min 0.0 km/h (0 Bft)
31.12.2019 08:00 -2.7 C 87 % 1022.2 hPa 0.0 l/m 0.4 km/h (0 Bft) W-SW 248 0 min 0.0 km/h (0 Bft)
31.12.2019 07:59 -2.7 C 87 % 1022.2 hPa 0.0 l/m 0.4 km/h (0 Bft) N-NW 338 0 min 3.6 km/h (1 Bft)
31.12.2019 07:58 -2.7 C 87 % 1022.2 hPa 0.0 l/m 0.4 km/h (0 Bft) N-NW 338 0 min 3.6 km/h (1 Bft)
31.12.2019 07:57 -2.7 C 87 % 1022.2 hPa 0.0 l/m 0.4 km/h (0 Bft) W-NW 293 0 min 0.0 km/h (0 Bft)
31.12.2019 07:56 -2.7 C 87 % 1022.2 hPa 0.0 l/m 0.4 km/h (0 Bft) W-NW 293 0 min 0.0 km/h (0 Bft)
31.12.2019 07:55 -2.5 C 87 % 1022.4 hPa 0.0 l/m 0.4 km/h (0 Bft) W 270 0 min 0.0 km/h (0 Bft)
31.12.2019 07:54 -2.5 C 87 % 1022.4 hPa 0.0 l/m 0.4 km/h (0 Bft) W 270 0 min 0.0 km/h (0 Bft)
31.12.2019 07:53 -2.5 C 87 % 1022.4 hPa 0.0 l/m 0.4 km/h (0 Bft) W-SW 248 0 min 0.0 km/h (0 Bft)
31.12.2019 07:52 -2.5 C 87 % 1022.4 hPa 0.0 l/m 0.4 km/h (0 Bft) W 270 0 min 0.0 km/h (0 Bft)
31.12.2019 07:51 -2.5 C 87 % 1022.4 hPa 0.0 l/m 0.4 km/h (0 Bft) W 270 0 min 0.0 km/h (0 Bft)
31.12.2019 07:50 -2.6 C 87 % 1022.4 hPa 0.0 l/m 0.4 km/h (0 Bft) W-NW 293 0 min 0.0 km/h (0 Bft)
31.12.2019 07:49 -2.6 C 87 % 1022.4 hPa 0.0 l/m 0.4 km/h (0 Bft) W-NW 293 0 min 0.0 km/h (0 Bft)
31.12.2019 07:48 -2.6 C 87 % 1022.4 hPa 0.0 l/m 0.4 km/h (0 Bft) S-SW 203 0 min 0.0 km/h (0 Bft)
31.12.2019 07:47 -2.6 C 87 % 1022.4 hPa 0.0 l/m 0.4 km/h (0 Bft) S-SW 203 0 min 0.0 km/h (0 Bft)
31.12.2019 07:46 -2.5 C 87 % 1022.4 hPa 0.0 l/m 0.7 km/h (0 Bft) W 270 0 min 2.5 km/h (1 Bft)
31.12.2019 07:45 -2.5 C 87 % 1022.4 hPa 0.0 l/m 0.7 km/h (0 Bft) W 270 0 min 2.5 km/h (1 Bft)
31.12.2019 07:44 -2.5 C 87 % 1022.4 hPa 0.0 l/m 0.7 km/h (0 Bft) W-SW 248 0 min 2.5 km/h (1 Bft)
31.12.2019 07:43 -2.5 C 87 % 1022.4 hPa 0.0 l/m 0.7 km/h (0 Bft) W-SW 248 0 min 2.5 km/h (1 Bft)
31.12.2019 07:42 -2.5 C 87 % 1022.4 hPa 0.0 l/m 1.4 km/h (1 Bft) N 0 0 min 0.0 km/h (0 Bft)
31.12.2019 07:41 -2.5 C 87 % 1022.4 hPa 0.0 l/m 1.4 km/h (1 Bft) N 0 0 min 0.0 km/h (0 Bft)
31.12.2019 07:40 -2.5 C 87 % 1022.4 hPa 0.0 l/m 1.4 km/h (1 Bft) W-SW 248 0 min 0.0 km/h (0 Bft)
31.12.2019 07:39 -2.5 C 87 % 1022.4 hPa 0.0 l/m 1.4 km/h (1 Bft) W-SW 248 0 min 0.0 km/h (0 Bft)
31.12.2019 07:38 -2.5 C 87 % 1022.4 hPa 0.0 l/m 1.4 km/h (1 Bft) N-NO 23 0 min 0.0 km/h (0 Bft)
31.12.2019 07:37 -2.5 C 87 % 1022.4 hPa 0.0 l/m 1.4 km/h (1 Bft) N-NO 23 0 min 0.0 km/h (0 Bft)
31.12.2019 07:36 -2.5 C 87 % 1022.4 hPa 0.0 l/m 0.7 km/h (0 Bft) S-SW 203 0 min 0.0 km/h (0 Bft)
31.12.2019 07:35 -2.5 C 87 % 1022.4 hPa 0.0 l/m 0.7 km/h (0 Bft) S-SW 203 0 min 0.0 km/h (0 Bft)
31.12.2019 07:34 -2.5 C 87 % 1022.4 hPa 0.0 l/m 0.4 km/h (0 Bft) W-NW 293 0 min 3.6 km/h (1 Bft)
31.12.2019 07:33 -2.5 C 87 % 1022.4 hPa 0.0 l/m 0.4 km/h (0 Bft) W-NW 293 0 min 3.6 km/h (1 Bft)
31.12.2019 07:32 -2.5 C 87 % 1022.4 hPa 0.0 l/m 0.4 km/h (0 Bft) W-NW 293 0 min 2.5 km/h (1 Bft)
31.12.2019 07:31 -2.5 C 87 % 1022.4 hPa 0.0 l/m 0.4 km/h (0 Bft) W-NW 293 0 min 2.5 km/h (1 Bft)
31.12.2019 07:30 -2.5 C 87 % 1022.4 hPa 0.0 l/m 0.0 km/h (0 Bft) N-NO 23 0 min 0.0 km/h (0 Bft)
31.12.2019 07:29 -2.3 C 88 % 1022.4 hPa 0.0 l/m 0.0 km/h (0 Bft) N-NO 23 0 min 0.0 km/h (0 Bft)
31.12.2019 07:28 -2.3 C 88 % 1022.4 hPa 0.0 l/m 0.0 km/h (0 Bft) N-NO 23 0 min 0.0 km/h (0 Bft)
31.12.2019 07:27 -2.3 C 88 % 1022.4 hPa 0.0 l/m 0.7 km/h (0 Bft) S-SW 203 0 min 2.9 km/h (1 Bft)
31.12.2019 07:26 -2.3 C 88 % 1022.4 hPa 0.0 l/m 0.7 km/h (0 Bft) S-SW 203 0 min 2.9 km/h (1 Bft)
31.12.2019 07:25 -2.3 C 88 % 1022.4 hPa 0.0 l/m 1.4 km/h (1 Bft) SO 135 0 min 0.0 km/h (0 Bft)
31.12.2019 07:24 -2.3 C 88 % 1022.4 hPa 0.0 l/m 1.4 km/h (1 Bft) SO 135 0 min 0.0 km/h (0 Bft)
31.12.2019 07:23 -2.3 C 88 % 1022.4 hPa 0.0 l/m 1.8 km/h (1 Bft) W-NW 293 0 min 0.0 km/h (0 Bft)
31.12.2019 07:22 -2.3 C 88 % 1022.4 hPa 0.0 l/m 1.8 km/h (1 Bft) W-NW 293 0 min 0.0 km/h (0 Bft)
31.12.2019 07:21 -2.3 C 88 % 1022.4 hPa 0.0 l/m 2.5 km/h (1 Bft) W-NW 293 0 min 0.0 km/h (0 Bft)
31.12.2019 07:20 -2.3 C 88 % 1022.4 hPa 0.0 l/m 2.5 km/h (1 Bft) W-NW 293 0 min 0.0 km/h (0 Bft)
31.12.2019 07:19 -2.3 C 88 % 1022.4 hPa 0.0 l/m 2.5 km/h (1 Bft) O-NO 68 0 min 0.0 km/h (0 Bft)
31.12.2019 07:18 -2.3 C 88 % 1022.4 hPa 0.0 l/m 2.5 km/h (1 Bft) O-NO 68 0 min 0.0 km/h (0 Bft)
31.12.2019 07:17 -2.5 C 88 % 1022.4 hPa 0.0 l/m 3.6 km/h (1 Bft) O-NO 68 0 min 4.0 km/h (1 Bft)
31.12.2019 07:16 -2.5 C 88 % 1022.4 hPa 0.0 l/m 3.6 km/h (1 Bft) O-NO 68 0 min 4.0 km/h (1 Bft)
31.12.2019 07:15 -2.5 C 88 % 1022.3 hPa 0.0 l/m 3.6 km/h (1 Bft) S 180 0 min 4.0 km/h (1 Bft)
31.12.2019 07:14 -2.5 C 88 % 1022.3 hPa 0.0 l/m 3.6 km/h (1 Bft) S 180 0 min 4.0 km/h (1 Bft)
31.12.2019 07:13 -2.5 C 87 % 1022.3 hPa 0.0 l/m 4.0 km/h (1 Bft) N-NO 23 0 min 0.0 km/h (0 Bft)
31.12.2019 07:12 -2.5 C 87 % 1022.3 hPa 0.0 l/m 2.9 km/h (1 Bft) O-NO 68 0 min 5.8 km/h (2 Bft)
31.12.2019 07:11 -2.5 C 87 % 1022.3 hPa 0.0 l/m 2.9 km/h (1 Bft) O-NO 68 0 min 5.8 km/h (2 Bft)
31.12.2019 07:10 -2.5 C 87 % 1022.3 hPa 0.0 l/m 2.9 km/h (1 Bft) NO 45 0 min 4.3 km/h (1 Bft)
31.12.2019 07:09 -2.5 C 87 % 1022.3 hPa 0.0 l/m 2.9 km/h (1 Bft) NO 45 0 min 4.3 km/h (1 Bft)
31.12.2019 07:08 -2.5 C 87 % 1022.3 hPa 0.0 l/m 1.8 km/h (1 Bft) N-NO 23 0 min 4.0 km/h (1 Bft)
31.12.2019 07:07 -2.5 C 87 % 1022.3 hPa 0.0 l/m 1.8 km/h (1 Bft) N-NO 23 0 min 4.0 km/h (1 Bft)
31.12.2019 07:06 -2.5 C 87 % 1022.3 hPa 0.0 l/m 1.4 km/h (1 Bft) N-NO 23 0 min 4.0 km/h (1 Bft)
31.12.2019 07:05 -2.5 C 87 % 1022.3 hPa 0.0 l/m 1.4 km/h (1 Bft) N-NO 23 0 min 4.0 km/h (1 Bft)
31.12.2019 07:04 -2.5 C 87 % 1022.3 hPa 0.0 l/m 0.7 km/h (0 Bft) NO 45 0 min 3.6 km/h (1 Bft)
31.12.2019 07:03 -2.5 C 87 % 1022.3 hPa 0.0 l/m 0.7 km/h (0 Bft) NO 45 0 min 3.6 km/h (1 Bft)
31.12.2019 07:02 -2.5 C 87 % 1022.3 hPa 0.0 l/m 0.4 km/h (0 Bft) N 0 0 min 2.9 km/h (1 Bft)
31.12.2019 07:01 -2.5 C 87 % 1022.3 hPa 0.0 l/m 0.4 km/h (0 Bft) N 0 0 min 2.9 km/h (1 Bft)
31.12.2019 07:00 -2.6 C 87 % 1022.3 hPa 0.0 l/m 0.0 km/h (0 Bft) O-SO 113 0 min 0.0 km/h (0 Bft)
31.12.2019 06:59 -2.6 C 87 % 1022.3 hPa 0.0 l/m 0.0 km/h (0 Bft) O-SO 113 0 min 0.0 km/h (0 Bft)
31.12.2019 06:58 -2.6 C 87 % 1022.3 hPa 0.0 l/m 0.0 km/h (0 Bft) N 0 0 min 0.0 km/h (0 Bft)
31.12.2019 06:57 -2.6 C 87 % 1022.3 hPa 0.0 l/m 0.0 km/h (0 Bft) N 0 0 min 0.0 km/h (0 Bft)
31.12.2019 06:56 -2.5 C 87 % 1022.1 hPa 0.0 l/m 0.0 km/h (0 Bft) NW 315 0 min 0.0 km/h (0 Bft)
31.12.2019 06:55 -2.5 C 87 % 1022.1 hPa 0.0 l/m 0.0 km/h (0 Bft) NW 315 0 min 0.0 km/h (0 Bft)
31.12.2019 06:54 -2.5 C 87 % 1022.1 hPa 0.0 l/m 0.0 km/h (0 Bft) W-SW 248 0 min 0.0 km/h (0 Bft)
31.12.2019 06:53 -2.5 C 87 % 1022.1 hPa 0.0 l/m 0.0 km/h (0 Bft) W-SW 248 0 min 0.0 km/h (0 Bft)
31.12.2019 06:52 -2.5 C 87 % 1022.1 hPa 0.0 l/m 0.4 km/h (0 Bft) O-NO 68 0 min 0.0 km/h (0 Bft)
31.12.2019 06:51 -2.5 C 87 % 1022.1 hPa 0.0 l/m 0.4 km/h (0 Bft) O-NO 68 0 min 0.0 km/h (0 Bft)
31.12.2019 06:50 -2.5 C 87 % 1022.1 hPa 0.0 l/m 0.4 km/h (0 Bft) SO 135 0 min 0.0 km/h (0 Bft)
31.12.2019 06:49 -2.5 C 87 % 1022.1 hPa 0.0 l/m 0.4 km/h (0 Bft) SO 135 0 min 0.0 km/h (0 Bft)
31.12.2019 06:48 -2.5 C 87 % 1022.1 hPa 0.0 l/m 0.4 km/h (0 Bft) SO 135 0 min 0.0 km/h (0 Bft)
31.12.2019 06:47 -2.5 C 87 % 1022.1 hPa 0.0 l/m 0.4 km/h (0 Bft) S-SW 203 0 min 0.0 km/h (0 Bft)
31.12.2019 06:46 -2.5 C 87 % 1022.1 hPa 0.0 l/m 0.4 km/h (0 Bft) S-SW 203 0 min 0.0 km/h (0 Bft)
31.12.2019 06:45 -2.5 C 87 % 1022.1 hPa 0.0 l/m 0.4 km/h (0 Bft) S-SW 203 0 min 0.0 km/h (0 Bft)
31.12.2019 06:44 -2.5 C 87 % 1022.1 hPa 0.0 l/m 0.4 km/h (0 Bft) S-SW 203 0 min 0.0 km/h (0 Bft)
31.12.2019 06:43 -2.5 C 87 % 1022.1 hPa 0.0 l/m 1.4 km/h (1 Bft) W-NW 293 0 min 0.0 km/h (0 Bft)
31.12.2019 06:42 -2.5 C 87 % 1022.1 hPa 0.0 l/m 1.4 km/h (1 Bft) W-NW 293 0 min 0.0 km/h (0 Bft)
31.12.2019 06:41 -2.3 C 87 % 1022.1 hPa 0.0 l/m 1.4 km/h (1 Bft) W 270 0 min 2.5 km/h (1 Bft)
31.12.2019 06:40 -2.3 C 87 % 1022.1 hPa 0.0 l/m 1.4 km/h (1 Bft) W 270 0 min 2.5 km/h (1 Bft)
31.12.2019 06:39 -2.3 C 88 % 1022.1 hPa 0.0 l/m 1.4 km/h (1 Bft) SW 225 0 min 0.0 km/h (0 Bft)
31.12.2019 06:38 -2.3 C 88 % 1022.1 hPa 0.0 l/m 1.4 km/h (1 Bft) SW 225 0 min 0.0 km/h (0 Bft)
31.12.2019 06:37 -2.3 C 88 % 1022.1 hPa 0.0 l/m 1.8 km/h (1 Bft) N-NW 338 0 min 2.5 km/h (1 Bft)
31.12.2019 06:36 -2.3 C 88 % 1022.1 hPa 0.0 l/m 1.8 km/h (1 Bft) N-NW 338 0 min 2.5 km/h (1 Bft)
31.12.2019 06:35 -2.3 C 87 % 1022.3 hPa 0.0 l/m 1.4 km/h (1 Bft) O-SO 113 0 min 5.0 km/h (1 Bft)
31.12.2019 06:34 -2.3 C 87 % 1022.3 hPa 0.0 l/m 1.4 km/h (1 Bft) O-SO 113 0 min 5.0 km/h (1 Bft)
31.12.2019 06:33 -2.5 C 87 % 1022.3 hPa 0.0 l/m 0.7 km/h (0 Bft) SO 135 0 min 3.6 km/h (1 Bft)
31.12.2019 06:32 -2.5 C 87 % 1022.3 hPa 0.0 l/m 0.7 km/h (0 Bft) SO 135 0 min 3.6 km/h (1 Bft)
31.12.2019 06:31 -2.5 C 87 % 1022.3 hPa 0.0 l/m 0.7 km/h (0 Bft) W-NW 293 0 min 0.0 km/h (0 Bft)
31.12.2019 06:30 -2.3 C 87 % 1022.3 hPa 0.0 l/m 0.7 km/h (0 Bft) W-NW 293 0 min 0.0 km/h (0 Bft)
31.12.2019 06:29 -2.3 C 87 % 1022.3 hPa 0.0 l/m 0.7 km/h (0 Bft) W-NW 293 0 min 0.0 km/h (0 Bft)
31.12.2019 06:28 -2.3 C 87 % 1022.3 hPa 0.0 l/m 1.4 km/h (1 Bft) W-SW 248 0 min 3.6 km/h (1 Bft)
31.12.2019 06:27 -2.3 C 87 % 1022.3 hPa 0.0 l/m 1.4 km/h (1 Bft) W-SW 248 0 min 3.6 km/h (1 Bft)
31.12.2019 06:26 -2.3 C 87 % 1022.3 hPa 0.0 l/m 0.7 km/h (0 Bft) S-SW 203 0 min 0.0 km/h (0 Bft)
31.12.2019 06:25 -2.3 C 87 % 1022.3 hPa 0.0 l/m 0.7 km/h (0 Bft) S-SW 203 0 min 0.0 km/h (0 Bft)
31.12.2019 06:24 -2.3 C 87 % 1022.3 hPa 0.0 l/m 0.7 km/h (0 Bft) SW 225 0 min 0.0 km/h (0 Bft)
31.12.2019 06:23 -2.3 C 87 % 1022.3 hPa 0.0 l/m 0.7 km/h (0 Bft) SW 225 0 min 0.0 km/h (0 Bft)
31.12.2019 06:22 -2.3 C 87 % 1022.3 hPa 0.0 l/m 1.4 km/h (1 Bft) W-NW 293 0 min 0.0 km/h (0 Bft)
31.12.2019 06:21 -2.3 C 87 % 1022.3 hPa 0.0 l/m 1.4 km/h (1 Bft) W-NW 293 0 min 0.0 km/h (0 Bft)
31.12.2019 06:20 -2.3 C 87 % 1022.3 hPa 0.0 l/m 0.7 km/h (0 Bft) SW 225 0 min 4.0 km/h (1 Bft)
31.12.2019 06:19 -2.3 C 87 % 1022.3 hPa 0.0 l/m 0.7 km/h (0 Bft) SW 225 0 min 4.0 km/h (1 Bft)
31.12.2019 06:18 -2.3 C 87 % 1022.3 hPa 0.0 l/m 0.4 km/h (0 Bft) SW 225 0 min 2.5 km/h (1 Bft)
31.12.2019 06:17 -2.3 C 87 % 1022.3 hPa 0.0 l/m 0.4 km/h (0 Bft) SW 225 0 min 2.5 km/h (1 Bft)
31.12.2019 06:16 -2.3 C 87 % 1022.6 hPa 0.0 l/m 0.4 km/h (0 Bft) SW 225 0 min 0.0 km/h (0 Bft)
31.12.2019 06:15 -2.3 C 87 % 1022.6 hPa 0.0 l/m 0.4 km/h (0 Bft) SW 225 0 min 0.0 km/h (0 Bft)
31.12.2019 06:14 -2.3 C 87 % 1022.6 hPa 0.0 l/m 0.4 km/h (0 Bft) N 0 0 min 0.0 km/h (0 Bft)
31.12.2019 06:13 -2.3 C 87 % 1022.6 hPa 0.0 l/m 0.4 km/h (0 Bft) N 0 0 min 0.0 km/h (0 Bft)
31.12.2019 06:12 -2.3 C 87 % 1022.6 hPa 0.0 l/m 0.4 km/h (0 Bft) NO 45 0 min 0.0 km/h (0 Bft)
31.12.2019 06:11 -2.3 C 87 % 1022.6 hPa 0.0 l/m 0.4 km/h (0 Bft) NO 45 0 min 0.0 km/h (0 Bft)
31.12.2019 06:10 -2.3 C 87 % 1022.6 hPa 0.0 l/m 0.0 km/h (0 Bft) O-SO 113 0 min 0.0 km/h (0 Bft)
31.12.2019 06:09 -2.3 C 87 % 1022.6 hPa 0.0 l/m 0.0 km/h (0 Bft) O-SO 113 0 min 0.0 km/h (0 Bft)
31.12.2019 06:08 -2.3 C 87 % 1022.6 hPa 0.0 l/m 0.0 km/h (0 Bft) O 90 0 min 2.5 km/h (1 Bft)
31.12.2019 06:07 -2.3 C 87 % 1022.6 hPa 0.0 l/m 0.0 km/h (0 Bft) O 90 0 min 2.5 km/h (1 Bft)
31.12.2019 06:06 -2.3 C 87 % 1022.6 hPa 0.0 l/m 0.0 km/h (0 Bft) NO 45 0 min 0.0 km/h (0 Bft)
31.12.2019 06:05 -2.3 C 87 % 1022.6 hPa 0.0 l/m 0.0 km/h (0 Bft) NO 45 0 min 0.0 km/h (0 Bft)
31.12.2019 06:04 -2.3 C 87 % 1022.6 hPa 0.0 l/m 0.4 km/h (0 Bft) O-NO 68 0 min 0.0 km/h (0 Bft)
31.12.2019 06:03 -2.3 C 87 % 1022.6 hPa 0.0 l/m 0.4 km/h (0 Bft) O-NO 68 0 min 0.0 km/h (0 Bft)
31.12.2019 06:02 -2.3 C 87 % 1022.6 hPa 0.0 l/m 0.4 km/h (0 Bft) O-NO 68 0 min 0.0 km/h (0 Bft)
31.12.2019 06:01 -2.3 C 87 % 1022.6 hPa 0.0 l/m 0.4 km/h (0 Bft) O-NO 68 0 min 0.0 km/h (0 Bft)
31.12.2019 06:00 -2.3 C 87 % 1022.6 hPa 0.0 l/m 0.4 km/h (0 Bft) O-NO 68 0 min 0.0 km/h (0 Bft)
31.12.2019 05:59 -2.3 C 86 % 1022.6 hPa 0.0 l/m 0.7 km/h (0 Bft) O-NO 68 0 min 0.0 km/h (0 Bft)
31.12.2019 05:58 -2.3 C 86 % 1022.6 hPa 0.0 l/m 0.7 km/h (0 Bft) O-NO 68 0 min 0.0 km/h (0 Bft)
31.12.2019 05:57 -2.3 C 86 % 1022.6 hPa 0.0 l/m 0.7 km/h (0 Bft) N 0 0 min 0.0 km/h (0 Bft)
31.12.2019 05:56 -2.3 C 86 % 1022.6 hPa 0.0 l/m 0.7 km/h (0 Bft) N 0 0 min 0.0 km/h (0 Bft)
31.12.2019 05:55 -2.3 C 87 % 1022.3 hPa 0.0 l/m 1.4 km/h (1 Bft) N 0 0 min 0.0 km/h (0 Bft)
31.12.2019 05:54 -2.3 C 87 % 1022.3 hPa 0.0 l/m 1.4 km/h (1 Bft) N 0 0 min 0.0 km/h (0 Bft)
31.12.2019 05:53 -2.3 C 86 % 1022.3 hPa 0.0 l/m 1.4 km/h (1 Bft) W-SW 248 0 min 3.6 km/h (1 Bft)
31.12.2019 05:52 -2.3 C 86 % 1022.3 hPa 0.0 l/m 1.4 km/h (1 Bft) W-SW 248 0 min 3.6 km/h (1 Bft)
31.12.2019 05:51 -2.3 C 86 % 1022.3 hPa 0.0 l/m 1.4 km/h (1 Bft) W-SW 248 0 min 2.9 km/h (1 Bft)
31.12.2019 05:50 -2.3 C 86 % 1022.3 hPa 0.0 l/m 1.4 km/h (1 Bft) W-SW 248 0 min 2.9 km/h (1 Bft)
31.12.2019 05:49 -2.3 C 86 % 1022.3 hPa 0.0 l/m 0.7 km/h (0 Bft) S-SW 203 0 min 5.0 km/h (1 Bft)
31.12.2019 05:48 -2.3 C 86 % 1022.3 hPa 0.0 l/m 0.7 km/h (0 Bft) S-SW 203 0 min 5.0 km/h (1 Bft)
31.12.2019 05:47 -2.1 C 86 % 1022.3 hPa 0.0 l/m 0.4 km/h (0 Bft) W-NW 293 0 min 0.0 km/h (0 Bft)
31.12.2019 05:46 -2.1 C 87 % 1022.3 hPa 0.0 l/m 0.7 km/h (0 Bft) W-SW 248 0 min 3.6 km/h (1 Bft)
31.12.2019 05:45 -2.1 C 87 % 1022.3 hPa 0.0 l/m 0.7 km/h (0 Bft) W-SW 248 0 min 3.6 km/h (1 Bft)
31.12.2019 05:44 -2.1 C 87 % 1022.3 hPa 0.0 l/m 0.4 km/h (0 Bft) NW 315 0 min 0.0 km/h (0 Bft)
31.12.2019 05:43 -2.1 C 87 % 1022.3 hPa 0.0 l/m 0.4 km/h (0 Bft) NW 315 0 min 0.0 km/h (0 Bft)
31.12.2019 05:42 -2.1 C 87 % 1022.3 hPa 0.0 l/m 0.7 km/h (0 Bft) S-SW 203 0 min 0.0 km/h (0 Bft)
31.12.2019 05:41 -2.1 C 87 % 1022.3 hPa 0.0 l/m 0.7 km/h (0 Bft) S-SW 203 0 min 0.0 km/h (0 Bft)
31.12.2019 05:40 -2.1 C 87 % 1022.3 hPa 0.0 l/m 1.4 km/h (1 Bft) O-SO 113 0 min 0.0 km/h (0 Bft)
31.12.2019 05:39 -2.1 C 87 % 1022.3 hPa 0.0 l/m 1.4 km/h (1 Bft) O-SO 113 0 min 0.0 km/h (0 Bft)
31.12.2019 05:38 -2.1 C 87 % 1022.3 hPa 0.0 l/m 1.8 km/h (1 Bft) W-NW 293 0 min 0.0 km/h (0 Bft)
31.12.2019 05:37 -2.1 C 87 % 1022.3 hPa 0.0 l/m 1.8 km/h (1 Bft) W-NW 293 0 min 0.0 km/h (0 Bft)
31.12.2019 05:36 -2.1 C 87 % 1022.2 hPa 0.0 l/m 2.5 km/h (1 Bft) SW 225 0 min 3.6 km/h (1 Bft)
31.12.2019 05:35 -2.1 C 87 % 1022.2 hPa 0.0 l/m 2.5 km/h (1 Bft) SW 225 0 min 3.6 km/h (1 Bft)
31.12.2019 05:34 -2.1 C 87 % 1022.2 hPa 0.0 l/m 2.5 km/h (1 Bft) SO 135 0 min 0.0 km/h (0 Bft)
31.12.2019 05:33 -2.1 C 87 % 1022.2 hPa 0.0 l/m 2.5 km/h (1 Bft) SO 135 0 min 0.0 km/h (0 Bft)
31.12.2019 05:32 -2.1 C 87 % 1022.2 hPa 0.0 l/m 2.9 km/h (1 Bft) O-NO 68 0 min 4.0 km/h (1 Bft)
31.12.2019 05:31 -2.1 C 87 % 1022.2 hPa 0.0 l/m 2.9 km/h (1 Bft) O-NO 68 0 min 4.0 km/h (1 Bft)
31.12.2019 05:30 -2.1 C 87 % 1022.2 hPa 0.0 l/m 4.0 km/h (1 Bft) O-NO 68 0 min 4.0 km/h (1 Bft)
31.12.2019 05:29 -2.1 C 87 % 1022.2 hPa 0.0 l/m 4.0 km/h (1 Bft) O-NO 68 0 min 4.0 km/h (1 Bft)
31.12.2019 05:28 -2.1 C 87 % 1022.2 hPa 0.0 l/m 4.3 km/h (1 Bft) N 0 0 min 3.6 km/h (1 Bft)
31.12.2019 05:27 -2.1 C 87 % 1022.2 hPa 0.0 l/m 4.3 km/h (1 Bft) N 0 0 min 3.6 km/h (1 Bft)
31.12.2019 05:26 -2.1 C 87 % 1022.2 hPa 0.0 l/m 4.3 km/h (1 Bft) O 90 0 min 5.8 km/h (2 Bft)
31.12.2019 05:25 -2.1 C 87 % 1022.2 hPa 0.0 l/m 4.3 km/h (1 Bft) O 90 0 min 5.8 km/h (2 Bft)
31.12.2019 05:24 -2.1 C 87 % 1022.2 hPa 0.0 l/m 4.0 km/h (1 Bft) N 0 0 min 4.7 km/h (1 Bft)
31.12.2019 05:23 -2.1 C 87 % 1022.2 hPa 0.0 l/m 4.0 km/h (1 Bft) N 0 0 min 4.7 km/h (1 Bft)
31.12.2019 05:22 -2.1 C 87 % 1022.2 hPa 0.0 l/m 2.5 km/h (1 Bft) NO 45 0 min 3.6 km/h (1 Bft)
31.12.2019 05:21 -2.1 C 87 % 1022.2 hPa 0.0 l/m 2.5 km/h (1 Bft) NO 45 0 min 3.6 km/h (1 Bft)
31.12.2019 05:20 -2.1 C 87 % 1022.2 hPa 0.0 l/m 2.5 km/h (1 Bft) NO 45 0 min 3.6 km/h (1 Bft)
31.12.2019 05:19 -2.1 C 86 % 1022.2 hPa 0.0 l/m 2.2 km/h (1 Bft) O-NO 68 0 min 8.6 km/h (2 Bft)
31.12.2019 05:18 -2.1 C 86 % 1022.2 hPa 0.0 l/m 2.2 km/h (1 Bft) O-NO 68 0 min 8.6 km/h (2 Bft)
31.12.2019 05:17 -2.2 C 86 % 1022.2 hPa 0.0 l/m 1.4 km/h (1 Bft) O-NO 68 0 min 5.0 km/h (1 Bft)
31.12.2019 05:16 -2.2 C 86 % 1022.2 hPa 0.0 l/m 1.4 km/h (1 Bft) O-NO 68 0 min 5.0 km/h (1 Bft)
31.12.2019 05:15 -2.2 C 86 % 1022.4 hPa 0.0 l/m 0.7 km/h (0 Bft) O-NO 68 0 min 3.6 km/h (1 Bft)
31.12.2019 05:14 -2.2 C 86 % 1022.4 hPa 0.0 l/m 0.7 km/h (0 Bft) O-NO 68 0 min 3.6 km/h (1 Bft)
31.12.2019 05:13 -2.2 C 86 % 1022.4 hPa 0.0 l/m 0.7 km/h (0 Bft) NO 45 0 min 0.0 km/h (0 Bft)
31.12.2019 05:12 -2.2 C 86 % 1022.4 hPa 0.0 l/m 0.7 km/h (0 Bft) NO 45 0 min 0.0 km/h (0 Bft)
31.12.2019 05:11 -2.1 C 86 % 1022.4 hPa 0.0 l/m 0.7 km/h (0 Bft) NW 315 0 min 0.0 km/h (0 Bft)
31.12.2019 05:10 -2.1 C 86 % 1022.4 hPa 0.0 l/m 0.7 km/h (0 Bft) NW 315 0 min 0.0 km/h (0 Bft)
31.12.2019 05:09 -2.2 C 85 % 1022.4 hPa 0.0 l/m 0.7 km/h (0 Bft) W-NW 293 0 min 0.0 km/h (0 Bft)
31.12.2019 05:08 -2.2 C 85 % 1022.4 hPa 0.0 l/m 0.7 km/h (0 Bft) W-NW 293 0 min 0.0 km/h (0 Bft)
31.12.2019 05:07 -2.2 C 85 % 1022.4 hPa 0.0 l/m 1.4 km/h (1 Bft) W-NW 293 0 min 0.0 km/h (0 Bft)
31.12.2019 05:06 -2.2 C 85 % 1022.4 hPa 0.0 l/m 1.4 km/h (1 Bft) W-NW 293 0 min 0.0 km/h (0 Bft)
31.12.2019 05:05 -2.1 C 86 % 1022.4 hPa 0.0 l/m 1.4 km/h (1 Bft) W-SW 248 0 min 2.9 km/h (1 Bft)
31.12.2019 05:04 -2.1 C 86 % 1022.4 hPa 0.0 l/m 1.4 km/h (1 Bft) W-SW 248 0 min 4.0 km/h (1 Bft)
31.12.2019 05:03 -2.1 C 86 % 1022.4 hPa 0.0 l/m 1.4 km/h (1 Bft) W-SW 248 0 min 4.0 km/h (1 Bft)
31.12.2019 05:02 -2.1 C 86 % 1022.4 hPa 0.0 l/m 0.7 km/h (0 Bft) W 270 0 min 0.0 km/h (0 Bft)
31.12.2019 05:01 -2.1 C 86 % 1022.4 hPa 0.0 l/m 0.7 km/h (0 Bft) W 270 0 min 0.0 km/h (0 Bft)
31.12.2019 05:00 -2.1 C 86 % 1022.4 hPa 0.0 l/m 0.7 km/h (0 Bft) W 270 0 min 0.0 km/h (0 Bft)
31.12.2019 04:59 -2.1 C 86 % 1022.4 hPa 0.0 l/m 0.7 km/h (0 Bft) W 270 0 min 0.0 km/h (0 Bft)
31.12.2019 04:58 -1.9 C 86 % 1022.4 hPa 0.0 l/m 1.4 km/h (1 Bft) W-SW 248 0 min 3.6 km/h (1 Bft)
31.12.2019 04:57 -1.9 C 86 % 1022.4 hPa 0.0 l/m 1.4 km/h (1 Bft) W-SW 248 0 min 3.6 km/h (1 Bft)
31.12.2019 04:56 -1.9 C 86 % 1022.1 hPa 0.0 l/m 0.7 km/h (0 Bft) W-SW 248 0 min 0.0 km/h (0 Bft)
31.12.2019 04:55 -1.9 C 86 % 1022.1 hPa 0.0 l/m 0.7 km/h (0 Bft) W-SW 248 0 min 0.0 km/h (0 Bft)
31.12.2019 04:54 -1.9 C 86 % 1022.1 hPa 0.0 l/m 0.4 km/h (0 Bft) W-SW 248 0 min 2.5 km/h (1 Bft)
31.12.2019 04:53 -1.9 C 86 % 1022.1 hPa 0.0 l/m 0.4 km/h (0 Bft) W-SW 248 0 min 2.5 km/h (1 Bft)
31.12.2019 04:52 -1.9 C 86 % 1022.1 hPa 0.0 l/m 0.4 km/h (0 Bft) W-SW 248 0 min 0.0 km/h (0 Bft)
31.12.2019 04:51 -1.9 C 86 % 1022.1 hPa 0.0 l/m 0.4 km/h (0 Bft) W-SW 248 0 min 0.0 km/h (0 Bft)
31.12.2019 04:50 -1.9 C 86 % 1022.1 hPa 0.0 l/m 0.4 km/h (0 Bft) W-NW 293 0 min 0.0 km/h (0 Bft)
31.12.2019 04:49 -1.9 C 86 % 1022.1 hPa 0.0 l/m 0.4 km/h (0 Bft) W-NW 293 0 min 0.0 km/h (0 Bft)
31.12.2019 04:48 -1.9 C 86 % 1022.1 hPa 0.0 l/m 0.0 km/h (0 Bft) SW 225 0 min 0.0 km/h (0 Bft)
31.12.2019 04:47 -1.9 C 86 % 1022.1 hPa 0.0 l/m 0.0 km/h (0 Bft) SW 225 0 min 0.0 km/h (0 Bft)
31.12.2019 04:46 -1.9 C 86 % 1022.1 hPa 0.0 l/m 0.0 km/h (0 Bft) SO 135 0 min 0.0 km/h (0 Bft)
31.12.2019 04:45 -1.9 C 86 % 1022.1 hPa 0.0 l/m 0.0 km/h (0 Bft) SO 135 0 min 0.0 km/h (0 Bft)
31.12.2019 04:44 -1.9 C 86 % 1022.1 hPa 0.0 l/m 0.0 km/h (0 Bft) NW 315 0 min 0.0 km/h (0 Bft)
31.12.2019 04:43 -1.9 C 86 % 1022.1 hPa 0.0 l/m 0.0 km/h (0 Bft) NW 315 0 min 0.0 km/h (0 Bft)
31.12.2019 04:42 -1.9 C 86 % 1022.1 hPa 0.0 l/m 0.0 km/h (0 Bft) SW 225 0 min 0.0 km/h (0 Bft)
31.12.2019 04:41 -1.9 C 86 % 1022.1 hPa 0.0 l/m 0.0 km/h (0 Bft) SW 225 0 min 0.0 km/h (0 Bft)
31.12.2019 04:40 -1.9 C 86 % 1022.1 hPa 0.0 l/m 0.4 km/h (0 Bft) SW 225 0 min 0.0 km/h (0 Bft)
31.12.2019 04:39 -1.7 C 85 % 1022.1 hPa 0.0 l/m 0.4 km/h (0 Bft) SW 225 0 min 0.0 km/h (0 Bft)
31.12.2019 04:38 -1.7 C 85 % 1022.1 hPa 0.0 l/m 0.4 km/h (0 Bft) SW 225 0 min 0.0 km/h (0 Bft)
31.12.2019 04:37 -1.8 C 85 % 1022.1 hPa 0.0 l/m 0.4 km/h (0 Bft) W-NW 293 0 min 0.0 km/h (0 Bft)
31.12.2019 04:36 -1.8 C 85 % 1022.1 hPa 0.0 l/m 0.4 km/h (0 Bft) W-NW 293 0 min 0.0 km/h (0 Bft)
31.12.2019 04:35 -1.8 C 85 % 1022.6 hPa 0.0 l/m 0.4 km/h (0 Bft) S-SW 203 0 min 0.0 km/h (0 Bft)
31.12.2019 04:34 -1.8 C 85 % 1022.6 hPa 0.0 l/m 0.4 km/h (0 Bft) S-SW 203 0 min 0.0 km/h (0 Bft)
31.12.2019 04:33 -1.7 C 85 % 1022.6 hPa 0.0 l/m 0.4 km/h (0 Bft) W-SW 248 0 min 0.0 km/h (0 Bft)
31.12.2019 04:32 -1.7 C 85 % 1022.6 hPa 0.0 l/m 0.4 km/h (0 Bft) W-SW 248 0 min 0.0 km/h (0 Bft)
31.12.2019 04:31 -1.7 C 85 % 1022.6 hPa 0.0 l/m 0.4 km/h (0 Bft) W-SW 248 0 min 3.6 km/h (1 Bft)
31.12.2019 04:30 -1.7 C 85 % 1022.6 hPa 0.0 l/m 0.4 km/h (0 Bft) W-SW 248 0 min 3.6 km/h (1 Bft)
31.12.2019 04:29 -1.7 C 85 % 1022.6 hPa 0.0 l/m 0.0 km/h (0 Bft) W-SW 248 0 min 0.0 km/h (0 Bft)
31.12.2019 04:28 -1.7 C 85 % 1022.6 hPa 0.0 l/m 0.0 km/h (0 Bft) W-SW 248 0 min 0.0 km/h (0 Bft)
31.12.2019 04:27 -1.5 C 85 % 1022.6 hPa 0.0 l/m 0.0 km/h (0 Bft) W-NW 293 0 min 0.0 km/h (0 Bft)
31.12.2019 04:26 -1.5 C 85 % 1022.6 hPa 0.0 l/m 0.0 km/h (0 Bft) W-NW 293 0 min 0.0 km/h (0 Bft)
31.12.2019 04:25 -1.5 C 85 % 1022.6 hPa 0.0 l/m 0.0 km/h (0 Bft) W-NW 293 0 min 0.0 km/h (0 Bft)
31.12.2019 04:24 -1.5 C 85 % 1022.6 hPa 0.0 l/m 0.0 km/h (0 Bft) W-NW 293 0 min 0.0 km/h (0 Bft)
31.12.2019 04:23 -1.5 C 85 % 1022.6 hPa 0.0 l/m 0.0 km/h (0 Bft) NW 315 0 min 0.0 km/h (0 Bft)
31.12.2019 04:22 -1.5 C 85 % 1022.6 hPa 0.0 l/m 0.0 km/h (0 Bft) NW 315 0 min 0.0 km/h (0 Bft)
31.12.2019 04:21 -1.5 C 85 % 1022.6 hPa 0.0 l/m 0.0 km/h (0 Bft) S-SW 203 0 min 0.0 km/h (0 Bft)
31.12.2019 04:20 -1.5 C 85 % 1022.6 hPa 0.0 l/m 0.0 km/h (0 Bft) S-SW 203 0 min 0.0 km/h (0 Bft)
31.12.2019 04:19 -1.5 C 85 % 1022.6 hPa 0.0 l/m 0.0 km/h (0 Bft) SW 225 0 min 0.0 km/h (0 Bft)
31.12.2019 04:18 -1.5 C 85 % 1022.6 hPa 0.0 l/m 0.0 km/h (0 Bft) N 0 0 min 0.0 km/h (0 Bft)
31.12.2019 04:17 -1.5 C 85 % 1022.6 hPa 0.0 l/m 0.0 km/h (0 Bft) N 0 0 min 0.0 km/h (0 Bft)
31.12.2019 04:16 -1.5 C 85 % 1022.3 hPa 0.0 l/m 0.0 km/h (0 Bft) N-NO 23 0 min 0.0 km/h (0 Bft)
31.12.2019 04:15 -1.5 C 85 % 1022.3 hPa 0.0 l/m 0.0 km/h (0 Bft) N-NO 23 0 min 0.0 km/h (0 Bft)
31.12.2019 04:14 -1.5 C 85 % 1022.3 hPa 0.0 l/m 0.4 km/h (0 Bft) N 0 0 min 0.0 km/h (0 Bft)
31.12.2019 04:13 -1.5 C 85 % 1022.3 hPa 0.0 l/m 0.4 km/h (0 Bft) N 0 0 min 0.0 km/h (0 Bft)
31.12.2019 04:12 -1.5 C 85 % 1022.3 hPa 0.0 l/m 0.4 km/h (0 Bft) NW 315 0 min 0.0 km/h (0 Bft)
31.12.2019 04:11 -1.5 C 85 % 1022.3 hPa 0.0 l/m 0.4 km/h (0 Bft) NW 315 0 min 0.0 km/h (0 Bft)
31.12.2019 04:10 -1.4 C 85 % 1022.3 hPa 0.0 l/m 0.4 km/h (0 Bft) O-SO 113 0 min 2.5 km/h (1 Bft)
31.12.2019 04:09 -1.4 C 85 % 1022.3 hPa 0.0 l/m 0.4 km/h (0 Bft) O-SO 113 0 min 2.5 km/h (1 Bft)
31.12.2019 04:08 -1.4 C 85 % 1022.3 hPa 0.0 l/m 0.4 km/h (0 Bft) W-NW 293 0 min 0.0 km/h (0 Bft)
31.12.2019 04:07 -1.4 C 85 % 1022.3 hPa 0.0 l/m 0.4 km/h (0 Bft) W-NW 293 0 min 0.0 km/h (0 Bft)
31.12.2019 04:06 -1.4 C 85 % 1022.3 hPa 0.0 l/m 0.4 km/h (0 Bft) O-SO 113 0 min 0.0 km/h (0 Bft)
31.12.2019 04:05 -1.4 C 85 % 1022.3 hPa 0.0 l/m 0.4 km/h (0 Bft) O-SO 113 0 min 0.0 km/h (0 Bft)
31.12.2019 04:04 -1.4 C 85 % 1022.3 hPa 0.0 l/m 0.7 km/h (0 Bft) O-NO 68 0 min 2.5 km/h (1 Bft)
31.12.2019 04:03 -1.4 C 85 % 1022.3 hPa 0.0 l/m 0.7 km/h (0 Bft) O-NO 68 0 min 2.5 km/h (1 Bft)
31.12.2019 04:02 -1.4 C 85 % 1022.3 hPa 0.0 l/m 1.4 km/h (1 Bft) O 90 0 min 2.5 km/h (1 Bft)
31.12.2019 04:01 -1.4 C 85 % 1022.3 hPa 0.0 l/m 1.4 km/h (1 Bft) O 90 0 min 2.5 km/h (1 Bft)
31.12.2019 04:00 -1.3 C 85 % 1022.3 hPa 0.0 l/m 1.4 km/h (1 Bft) N-NO 23 0 min 0.0 km/h (0 Bft)
31.12.2019 03:59 -1.3 C 85 % 1022.3 hPa 0.0 l/m 1.4 km/h (1 Bft) N-NO 23 0 min 0.0 km/h (0 Bft)
31.12.2019 03:58 -1.3 C 85 % 1022.3 hPa 0.0 l/m 1.4 km/h (1 Bft) O 90 0 min 0.0 km/h (0 Bft)
31.12.2019 03:57 -1.4 C 85 % 1022.3 hPa 0.0 l/m 1.4 km/h (1 Bft) O 90 0 min 0.0 km/h (0 Bft)
31.12.2019 03:56 -1.4 C 85 % 1022.4 hPa 0.0 l/m 1.4 km/h (1 Bft) O 90 0 min 0.0 km/h (0 Bft)
31.12.2019 03:55 -1.4 C 85 % 1022.4 hPa 0.0 l/m 1.4 km/h (1 Bft) O 90 0 min 0.0 km/h (0 Bft)
31.12.2019 03:54 -1.4 C 85 % 1022.4 hPa 0.0 l/m 1.4 km/h (1 Bft) O 90 0 min 0.0 km/h (0 Bft)
31.12.2019 03:53 -1.4 C 85 % 1022.4 hPa 0.0 l/m 0.7 km/h (0 Bft) N-NO 23 0 min 0.0 km/h (0 Bft)
31.12.2019 03:52 -1.4 C 85 % 1022.4 hPa 0.0 l/m 0.7 km/h (0 Bft) N-NO 23 0 min 0.0 km/h (0 Bft)
31.12.2019 03:51 -1.3 C 85 % 1022.4 hPa 0.0 l/m 0.7 km/h (0 Bft) SO 135 0 min 6.5 km/h (2 Bft)
31.12.2019 03:50 -1.3 C 85 % 1022.4 hPa 0.0 l/m 0.7 km/h (0 Bft) SO 135 0 min 6.5 km/h (2 Bft)
31.12.2019 03:49 -1.4 C 85 % 1022.4 hPa 0.0 l/m 0.4 km/h (0 Bft) SO 135 0 min 0.0 km/h (0 Bft)
31.12.2019 03:48 -1.4 C 85 % 1022.4 hPa 0.0 l/m 0.4 km/h (0 Bft) SO 135 0 min 0.0 km/h (0 Bft)
31.12.2019 03:47 -1.4 C 85 % 1022.4 hPa 0.0 l/m 0.4 km/h (0 Bft) N 0 0 min 0.0 km/h (0 Bft)
31.12.2019 03:46 -1.4 C 85 % 1022.4 hPa 0.0 l/m 0.4 km/h (0 Bft) N 0 0 min 0.0 km/h (0 Bft)
31.12.2019 03:45 -1.4 C 85 % 1022.4 hPa 0.0 l/m 0.4 km/h (0 Bft) O 90 0 min 0.0 km/h (0 Bft)
31.12.2019 03:44 -1.4 C 85 % 1022.4 hPa 0.0 l/m 0.4 km/h (0 Bft) O 90 0 min 0.0 km/h (0 Bft)
31.12.2019 03:43 -1.3 C 85 % 1022.4 hPa 0.0 l/m 0.4 km/h (0 Bft) SW 225 0 min 2.5 km/h (1 Bft)
31.12.2019 03:42 -1.3 C 85 % 1022.4 hPa 0.0 l/m 0.4 km/h (0 Bft) SW 225 0 min 2.5 km/h (1 Bft)
31.12.2019 03:41 -1.3 C 85 % 1022.4 hPa 0.0 l/m 0.7 km/h (0 Bft) W 270 0 min 0.0 km/h (0 Bft)
31.12.2019 03:40 -1.3 C 85 % 1022.4 hPa 0.0 l/m 0.7 km/h (0 Bft) W 270 0 min 0.0 km/h (0 Bft)
31.12.2019 03:39 -1.3 C 85 % 1022.4 hPa 0.0 l/m 0.7 km/h (0 Bft) W 270 0 min 2.9 km/h (1 Bft)
31.12.2019 03:38 -1.2 C 85 % 1022.4 hPa 0.0 l/m 0.7 km/h (0 Bft) W 270 0 min 2.9 km/h (1 Bft)
31.12.2019 03:37 -1.1 C 85 % 1022.4 hPa 0.0 l/m 0.7 km/h (0 Bft) S-SW 203 0 min 0.0 km/h (0 Bft)
31.12.2019 03:36 -1.1 C 85 % 1022.4 hPa 0.0 l/m 1.4 km/h (1 Bft) O 90 0 min 0.0 km/h (0 Bft)
31.12.2019 03:35 -1.1 C 85 % 1022.4 hPa 0.0 l/m 1.4 km/h (1 Bft) O 90 0 min 0.0 km/h (0 Bft)
31.12.2019 03:34 -1.1 C 85 % 1022.4 hPa 0.0 l/m 2.2 km/h (1 Bft) O-NO 68 0 min 0.0 km/h (0 Bft)
31.12.2019 03:33 -1.1 C 85 % 1022.4 hPa 0.0 l/m 2.2 km/h (1 Bft) O-NO 68 0 min 0.0 km/h (0 Bft)
31.12.2019 03:32 -1.1 C 85 % 1022.4 hPa 0.0 l/m 2.5 km/h (1 Bft) O 90 0 min 3.6 km/h (1 Bft)
31.12.2019 03:31 -1.1 C 85 % 1022.4 hPa 0.0 l/m 2.5 km/h (1 Bft) O 90 0 min 3.6 km/h (1 Bft)
31.12.2019 03:30 -1.1 C 85 % 1022.4 hPa 0.0 l/m 2.9 km/h (1 Bft) N 0 0 min 0.0 km/h (0 Bft)
31.12.2019 03:29 -1.1 C 85 % 1022.4 hPa 0.0 l/m 2.9 km/h (1 Bft) N 0 0 min 0.0 km/h (0 Bft)
31.12.2019 03:28 -1.1 C 85 % 1022.4 hPa 0.0 l/m 2.9 km/h (1 Bft) O 90 0 min 3.6 km/h (1 Bft)
31.12.2019 03:27 -1.1 C 85 % 1022.4 hPa 0.0 l/m 2.9 km/h (1 Bft) O 90 0 min 3.6 km/h (1 Bft)
31.12.2019 03:26 -1.3 C 85 % 1022.4 hPa 0.0 l/m 2.9 km/h (1 Bft) SO 135 0 min 5.0 km/h (1 Bft)
31.12.2019 03:25 -1.3 C 85 % 1022.4 hPa 0.0 l/m 2.9 km/h (1 Bft) SO 135 0 min 5.0 km/h (1 Bft)
31.12.2019 03:24 -1.3 C 85 % 1022.4 hPa 0.0 l/m 2.5 km/h (1 Bft) SO 135 0 min 8.3 km/h (2 Bft)
31.12.2019 03:23 -1.3 C 85 % 1022.4 hPa 0.0 l/m 2.5 km/h (1 Bft) SO 135 0 min 8.3 km/h (2 Bft)
31.12.2019 03:22 -1.3 C 85 % 1022.4 hPa 0.0 l/m 1.8 km/h (1 Bft) SO 135 0 min 0.0 km/h (0 Bft)
31.12.2019 03:21 -1.3 C 85 % 1022.4 hPa 0.0 l/m 1.8 km/h (1 Bft) SO 135 0 min 0.0 km/h (0 Bft)
31.12.2019 03:20 -1.3 C 85 % 1022.4 hPa 0.0 l/m 1.4 km/h (1 Bft) W-SW 248 0 min 5.0 km/h (1 Bft)
31.12.2019 03:19 -1.3 C 85 % 1022.4 hPa 0.0 l/m 1.4 km/h (1 Bft) W-SW 248 0 min 5.0 km/h (1 Bft)
31.12.2019 03:18 -1.3 C 85 % 1022.4 hPa 0.0 l/m 0.7 km/h (0 Bft) SW 225 0 min 0.0 km/h (0 Bft)
31.12.2019 03:17 -1.3 C 85 % 1022.4 hPa 0.0 l/m 0.7 km/h (0 Bft) SW 225 0 min 0.0 km/h (0 Bft)
31.12.2019 03:16 -1.3 C 85 % 1022.6 hPa 0.0 l/m 0.7 km/h (0 Bft) SO 135 0 min 4.3 km/h (1 Bft)
31.12.2019 03:15 -1.3 C 85 % 1022.6 hPa 0.0 l/m 0.7 km/h (0 Bft) SO 135 0 min 4.3 km/h (1 Bft)
31.12.2019 03:14 -1.3 C 85 % 1022.6 hPa 0.0 l/m 0.4 km/h (0 Bft) W-SW 248 0 min 0.0 km/h (0 Bft)
31.12.2019 03:13 -1.1 C 84 % 1022.6 hPa 0.0 l/m 0.4 km/h (0 Bft) W-SW 248 0 min 0.0 km/h (0 Bft)
31.12.2019 03:12 -1.1 C 84 % 1022.6 hPa 0.0 l/m 0.4 km/h (0 Bft) SW 225 0 min 0.0 km/h (0 Bft)
31.12.2019 03:11 -1.1 C 84 % 1022.6 hPa 0.0 l/m 0.4 km/h (0 Bft) SW 225 0 min 0.0 km/h (0 Bft)
31.12.2019 03:10 -1.1 C 84 % 1022.6 hPa 0.0 l/m 0.4 km/h (0 Bft) SW 225 0 min 0.0 km/h (0 Bft)
31.12.2019 03:09 -1.1 C 84 % 1022.6 hPa 0.0 l/m 0.4 km/h (0 Bft) W-SW 248 0 min 0.0 km/h (0 Bft)
31.12.2019 03:08 -1.1 C 84 % 1022.6 hPa 0.0 l/m 0.4 km/h (0 Bft) W-SW 248 0 min 0.0 km/h (0 Bft)
31.12.2019 03:07 -1.2 C 84 % 1022.6 hPa 0.0 l/m 0.4 km/h (0 Bft) W-NW 293 0 min 0.0 km/h (0 Bft)
31.12.2019 03:06 -1.2 C 84 % 1022.6 hPa 0.0 l/m 0.4 km/h (0 Bft) W-NW 293 0 min 0.0 km/h (0 Bft)
31.12.2019 03:05 -1.1 C 84 % 1022.6 hPa 0.0 l/m 0.4 km/h (0 Bft) SW 225 0 min 0.0 km/h (0 Bft)
31.12.2019 03:04 -1.1 C 84 % 1022.6 hPa 0.0 l/m 0.4 km/h (0 Bft) SW 225 0 min 0.0 km/h (0 Bft)
31.12.2019 03:03 -1.1 C 84 % 1022.6 hPa 0.0 l/m 0.0 km/h (0 Bft) W-NW 293 0 min 0.0 km/h (0 Bft)
31.12.2019 03:02 -1.1 C 84 % 1022.6 hPa 0.0 l/m 0.0 km/h (0 Bft) W-NW 293 0 min 0.0 km/h (0 Bft)
31.12.2019 03:01 -1.1 C 84 % 1022.6 hPa 0.0 l/m 0.0 km/h (0 Bft) W-NW 293 0 min 0.0 km/h (0 Bft)
31.12.2019 03:00 -1.1 C 84 % 1022.6 hPa 0.0 l/m 0.0 km/h (0 Bft) W-NW 293 0 min 0.0 km/h (0 Bft)
31.12.2019 02:59 -1.1 C 84 % 1022.6 hPa 0.0 l/m 0.0 km/h (0 Bft) W-SW 248 0 min 0.0 km/h (0 Bft)
31.12.2019 02:58 -1.1 C 84 % 1022.6 hPa 0.0 l/m 0.0 km/h (0 Bft) W-SW 248 0 min 0.0 km/h (0 Bft)
31.12.2019 02:57 -1.1 C 84 % 1022.6 hPa 0.0 l/m 0.0 km/h (0 Bft) NW 315 0 min 0.0 km/h (0 Bft)
31.12.2019 02:56 -1.1 C 84 % 1022.6 hPa 0.0 l/m 0.0 km/h (0 Bft) NW 315 0 min 0.0 km/h (0 Bft)
31.12.2019 02:55 -0.9 C 84 % 1022.5 hPa 0.0 l/m 0.0 km/h (0 Bft) W 270 0 min 0.0 km/h (0 Bft)
31.12.2019 02:54 -0.9 C 84 % 1022.5 hPa 0.0 l/m 0.0 km/h (0 Bft) W 270 0 min 0.0 km/h (0 Bft)
31.12.2019 02:53 -1.0 C 84 % 1022.5 hPa 0.0 l/m 0.0 km/h (0 Bft) S-SW 203 0 min 0.0 km/h (0 Bft)
31.12.2019 02:52 -1.0 C 84 % 1022.5 hPa 0.0 l/m 0.0 km/h (0 Bft) N-NO 23 0 min 0.0 km/h (0 Bft)
31.12.2019 02:51 -1.0 C 84 % 1022.5 hPa 0.0 l/m 0.0 km/h (0 Bft) N-NO 23 0 min 0.0 km/h (0 Bft)
31.12.2019 02:50 -0.9 C 84 % 1022.5 hPa 0.0 l/m 0.0 km/h (0 Bft) W-SW 248 0 min 0.0 km/h (0 Bft)
31.12.2019 02:49 -0.9 C 84 % 1022.5 hPa 0.0 l/m 0.0 km/h (0 Bft) W-SW 248 0 min 0.0 km/h (0 Bft)
31.12.2019 02:48 -0.9 C 84 % 1022.5 hPa 0.0 l/m 0.0 km/h (0 Bft) S-SO 158 0 min 0.0 km/h (0 Bft)
31.12.2019 02:47 -0.9 C 84 % 1022.5 hPa 0.0 l/m 0.0 km/h (0 Bft) S-SO 158 0 min 0.0 km/h (0 Bft)
31.12.2019 02:46 -0.9 C 84 % 1022.5 hPa 0.0 l/m 0.0 km/h (0 Bft) W 270 0 min 0.0 km/h (0 Bft)
31.12.2019 02:45 -0.9 C 84 % 1022.5 hPa 0.0 l/m 0.0 km/h (0 Bft) W 270 0 min 0.0 km/h (0 Bft)
31.12.2019 02:44 -0.9 C 84 % 1022.5 hPa 0.0 l/m 0.4 km/h (0 Bft) O-NO 68 0 min 0.0 km/h (0 Bft)
31.12.2019 02:43 -0.9 C 84 % 1022.5 hPa 0.0 l/m 0.4 km/h (0 Bft) O-NO 68 0 min 0.0 km/h (0 Bft)
31.12.2019 02:42 -0.9 C 84 % 1022.5 hPa 0.0 l/m 0.7 km/h (0 Bft) N-NO 23 0 min 0.0 km/h (0 Bft)
31.12.2019 02:41 -0.9 C 84 % 1022.5 hPa 0.0 l/m 0.7 km/h (0 Bft) N-NO 23 0 min 0.0 km/h (0 Bft)
31.12.2019 02:40 -0.9 C 84 % 1022.5 hPa 0.0 l/m 1.4 km/h (1 Bft) O-NO 68 0 min 0.0 km/h (0 Bft)
31.12.2019 02:39 -0.9 C 84 % 1022.5 hPa 0.0 l/m 1.4 km/h (1 Bft) O-NO 68 0 min 0.0 km/h (0 Bft)
31.12.2019 02:38 -0.9 C 84 % 1022.5 hPa 0.0 l/m 1.4 km/h (1 Bft) W-NW 293 0 min 0.0 km/h (0 Bft)
31.12.2019 02:37 -0.9 C 84 % 1022.5 hPa 0.0 l/m 1.4 km/h (1 Bft) W-NW 293 0 min 0.0 km/h (0 Bft)
31.12.2019 02:36 -0.9 C 84 % 1022.1 hPa 0.0 l/m 1.4 km/h (1 Bft) O-NO 68 0 min 0.0 km/h (0 Bft)
31.12.2019 02:35 -0.9 C 84 % 1022.1 hPa 0.0 l/m 1.4 km/h (1 Bft) O-NO 68 0 min 0.0 km/h (0 Bft)
31.12.2019 02:34 -0.9 C 84 % 1022.1 hPa 0.0 l/m 1.4 km/h (1 Bft) O-NO 68 0 min 5.8 km/h (2 Bft)
31.12.2019 02:33 -0.9 C 84 % 1022.1 hPa 0.0 l/m 1.4 km/h (1 Bft) O-NO 68 0 min 5.8 km/h (2 Bft)
31.12.2019 02:32 -0.9 C 84 % 1022.1 hPa 0.0 l/m 1.4 km/h (1 Bft) O 90 0 min 0.0 km/h (0 Bft)
31.12.2019 02:31 -0.9 C 84 % 1022.1 hPa 0.0 l/m 1.4 km/h (1 Bft) O 90 0 min 0.0 km/h (0 Bft)
31.12.2019 02:30 -0.9 C 84 % 1022.1 hPa 0.0 l/m 1.4 km/h (1 Bft) NO 45 0 min 4.0 km/h (1 Bft)
31.12.2019 02:29 -0.9 C 84 % 1022.1 hPa 0.0 l/m 1.4 km/h (1 Bft) NO 45 0 min 4.0 km/h (1 Bft)
31.12.2019 02:28 -0.9 C 84 % 1022.1 hPa 0.0 l/m 1.4 km/h (1 Bft) O-NO 68 0 min 0.0 km/h (0 Bft)
31.12.2019 02:27 -0.9 C 84 % 1022.1 hPa 0.0 l/m 1.4 km/h (1 Bft) O-NO 68 0 min 0.0 km/h (0 Bft)
31.12.2019 02:26 -0.9 C 84 % 1022.1 hPa 0.0 l/m 1.4 km/h (1 Bft) O-NO 68 0 min 0.0 km/h (0 Bft)
31.12.2019 02:25 -0.9 C 84 % 1022.1 hPa 0.0 l/m 2.2 km/h (1 Bft) S-SO 158 0 min 2.5 km/h (1 Bft)
31.12.2019 02:24 -0.9 C 84 % 1022.1 hPa 0.0 l/m 2.2 km/h (1 Bft) S-SO 158 0 min 2.5 km/h (1 Bft)
31.12.2019 02:23 -0.9 C 84 % 1022.1 hPa 0.0 l/m 2.2 km/h (1 Bft) W-SW 248 0 min 0.0 km/h (0 Bft)
31.12.2019 02:22 -0.9 C 84 % 1022.1 hPa 0.0 l/m 2.2 km/h (1 Bft) W-SW 248 0 min 0.0 km/h (0 Bft)
31.12.2019 02:21 -0.9 C 84 % 1022.1 hPa 0.0 l/m 2.2 km/h (1 Bft) SO 135 0 min 3.6 km/h (1 Bft)
31.12.2019 02:20 -0.9 C 84 % 1022.1 hPa 0.0 l/m 2.2 km/h (1 Bft) SO 135 0 min 3.6 km/h (1 Bft)
31.12.2019 02:19 -0.7 C 84 % 1022.1 hPa 0.0 l/m 2.2 km/h (1 Bft) SO 135 0 min 0.0 km/h (0 Bft)
31.12.2019 02:18 -0.7 C 84 % 1022.1 hPa 0.0 l/m 2.2 km/h (1 Bft) SO 135 0 min 0.0 km/h (0 Bft)
31.12.2019 02:17 -0.9 C 84 % 1022.1 hPa 0.0 l/m 1.8 km/h (1 Bft) NO 45 0 min 0.0 km/h (0 Bft)
31.12.2019 02:16 -0.9 C 84 % 1022.1 hPa 0.0 l/m 1.8 km/h (1 Bft) NO 45 0 min 0.0 km/h (0 Bft)
31.12.2019 02:15 -0.9 C 84 % 1022.1 hPa 0.0 l/m 1.8 km/h (1 Bft) SO 135 0 min 4.3 km/h (1 Bft)
31.12.2019 02:14 -0.9 C 84 % 1022.1 hPa 0.0 l/m 1.8 km/h (1 Bft) SO 135 0 min 4.3 km/h (1 Bft)
31.12.2019 02:13 -0.9 C 84 % 1022.1 hPa 0.0 l/m 1.4 km/h (1 Bft) S-SW 203 0 min 4.7 km/h (1 Bft)
31.12.2019 02:12 -0.9 C 84 % 1022.1 hPa 0.0 l/m 1.4 km/h (1 Bft) S-SW 203 0 min 4.7 km/h (1 Bft)
31.12.2019 02:11 -0.9 C 84 % 1022.1 hPa 0.0 l/m 1.4 km/h (1 Bft) S-SW 203 0 min 2.5 km/h (1 Bft)
31.12.2019 02:10 -0.9 C 84 % 1022.1 hPa 0.0 l/m 1.4 km/h (1 Bft) S-SW 203 0 min 2.5 km/h (1 Bft)
31.12.2019 02:09 -0.9 C 84 % 1022.1 hPa 0.0 l/m 1.4 km/h (1 Bft) S-SO 158 0 min 6.5 km/h (2 Bft)
31.12.2019 02:08 -0.9 C 84 % 1022.1 hPa 0.0 l/m 2.2 km/h (1 Bft) S-SO 158 0 min 0.0 km/h (0 Bft)
31.12.2019 02:07 -0.9 C 84 % 1022.1 hPa 0.0 l/m 2.2 km/h (1 Bft) S-SO 158 0 min 0.0 km/h (0 Bft)
31.12.2019 02:06 -0.9 C 84 % 1022.1 hPa 0.0 l/m 3.6 km/h (1 Bft) O 90 0 min 2.5 km/h (1 Bft)
31.12.2019 02:05 -0.9 C 84 % 1022.1 hPa 0.0 l/m 3.6 km/h (1 Bft) O 90 0 min 2.5 km/h (1 Bft)
31.12.2019 02:04 -0.9 C 85 % 1022.1 hPa 0.0 l/m 3.6 km/h (1 Bft) O-SO 113 0 min 0.0 km/h (0 Bft)
31.12.2019 02:03 -0.9 C 85 % 1022.1 hPa 0.0 l/m 3.6 km/h (1 Bft) O-SO 113 0 min 0.0 km/h (0 Bft)
31.12.2019 02:02 -1.0 C 85 % 1022.1 hPa 0.0 l/m 4.0 km/h (1 Bft) NO 45 0 min 4.0 km/h (1 Bft)
31.12.2019 02:01 -1.0 C 85 % 1022.1 hPa 0.0 l/m 4.0 km/h (1 Bft) NO 45 0 min 4.0 km/h (1 Bft)
31.12.2019 02:00 -1.0 C 85 % 1022.1 hPa 0.0 l/m 4.3 km/h (1 Bft) SO 135 0 min 5.0 km/h (1 Bft)
31.12.2019 01:59 -1.0 C 85 % 1022.1 hPa 0.0 l/m 4.3 km/h (1 Bft) SO 135 0 min 5.0 km/h (1 Bft)
31.12.2019 01:58 -1.0 C 85 % 1022.1 hPa 0.0 l/m 4.0 km/h (1 Bft) SO 135 0 min 6.1 km/h (2 Bft)
31.12.2019 01:57 -1.0 C 85 % 1022.1 hPa 0.0 l/m 4.0 km/h (1 Bft) SO 135 0 min 6.1 km/h (2 Bft)
31.12.2019 01:56 -1.0 C 85 % 1022.3 hPa 0.0 l/m 4.0 km/h (1 Bft) O-SO 113 0 min 10.4 km/h (2 Bft)
31.12.2019 01:55 -1.0 C 85 % 1022.3 hPa 0.0 l/m 4.0 km/h (1 Bft) O-SO 113 0 min 10.4 km/h (2 Bft)
31.12.2019 01:54 -1.0 C 85 % 1022.3 hPa 0.0 l/m 3.6 km/h (1 Bft) N 0 0 min 0.0 km/h (0 Bft)
31.12.2019 01:53 -1.0 C 85 % 1022.3 hPa 0.0 l/m 3.6 km/h (1 Bft) N 0 0 min 0.0 km/h (0 Bft)
31.12.2019 01:52 -1.0 C 85 % 1022.3 hPa 0.0 l/m 3.6 km/h (1 Bft) SW 225 0 min 4.0 km/h (1 Bft)
31.12.2019 01:51 -1.0 C 85 % 1022.3 hPa 0.0 l/m 3.6 km/h (1 Bft) SW 225 0 min 4.0 km/h (1 Bft)
31.12.2019 01:50 -1.0 C 85 % 1022.3 hPa 0.0 l/m 2.5 km/h (1 Bft) SO 135 0 min 8.3 km/h (2 Bft)
31.12.2019 01:49 -1.0 C 85 % 1022.3 hPa 0.0 l/m 2.5 km/h (1 Bft) SO 135 0 min 8.3 km/h (2 Bft)
31.12.2019 01:48 -0.9 C 85 % 1022.3 hPa 0.0 l/m 2.2 km/h (1 Bft) NO 45 0 min 0.0 km/h (0 Bft)
31.12.2019 01:47 -0.9 C 85 % 1022.3 hPa 0.0 l/m 2.2 km/h (1 Bft) NO 45 0 min 0.0 km/h (0 Bft)
31.12.2019 01:46 -0.9 C 85 % 1022.3 hPa 0.0 l/m 2.2 km/h (1 Bft) W-NW 293 0 min 7.2 km/h (2 Bft)
31.12.2019 01:45 -1.1 C 85 % 1022.3 hPa 0.0 l/m 2.2 km/h (1 Bft) W-NW 293 0 min 7.2 km/h (2 Bft)
31.12.2019 01:44 -1.1 C 85 % 1022.3 hPa 0.0 l/m 1.4 km/h (1 Bft) O-SO 113 0 min 7.2 km/h (2 Bft)
31.12.2019 01:43 -1.1 C 85 % 1022.3 hPa 0.0 l/m 1.4 km/h (1 Bft) O-SO 113 0 min 7.2 km/h (2 Bft)
31.12.2019 01:42 -1.1 C 85 % 1022.3 hPa 0.0 l/m 1.4 km/h (1 Bft) O-SO 113 0 min 7.2 km/h (2 Bft)
31.12.2019 01:41 -1.1 C 85 % 1022.3 hPa 0.0 l/m 1.4 km/h (1 Bft) S-SO 158 0 min 2.5 km/h (1 Bft)
31.12.2019 01:40 -1.1 C 85 % 1022.3 hPa 0.0 l/m 1.4 km/h (1 Bft) S-SO 158 0 min 2.5 km/h (1 Bft)
31.12.2019 01:39 -1.1 C 85 % 1022.3 hPa 0.0 l/m 2.2 km/h (1 Bft) NW 315 0 min 0.0 km/h (0 Bft)
31.12.2019 01:38 -1.1 C 85 % 1022.3 hPa 0.0 l/m 2.2 km/h (1 Bft) NW 315 0 min 0.0 km/h (0 Bft)
31.12.2019 01:37 -1.1 C 85 % 1022.3 hPa 0.0 l/m 2.2 km/h (1 Bft) W-SW 248 0 min 0.0 km/h (0 Bft)
31.12.2019 01:36 -1.1 C 85 % 1022.3 hPa 0.0 l/m 2.2 km/h (1 Bft) W-SW 248 0 min 0.0 km/h (0 Bft)
31.12.2019 01:35 -1.1 C 85 % 1022.1 hPa 0.0 l/m 1.8 km/h (1 Bft) SO 135 0 min 0.0 km/h (0 Bft)
31.12.2019 01:34 -1.1 C 85 % 1022.1 hPa 0.0 l/m 1.8 km/h (1 Bft) SO 135 0 min 0.0 km/h (0 Bft)
31.12.2019 01:33 -1.1 C 85 % 1022.1 hPa 0.0 l/m 1.4 km/h (1 Bft) O-SO 113 0 min 0.0 km/h (0 Bft)
31.12.2019 01:32 -1.1 C 85 % 1022.1 hPa 0.0 l/m 1.4 km/h (1 Bft) O-SO 113 0 min 0.0 km/h (0 Bft)
31.12.2019 01:31 -1.1 C 85 % 1022.1 hPa 0.0 l/m 1.4 km/h (1 Bft) W-SW 248 0 min 4.7 km/h (1 Bft)
31.12.2019 01:30 -1.1 C 85 % 1022.1 hPa 0.0 l/m 1.4 km/h (1 Bft) W-SW 248 0 min 4.7 km/h (1 Bft)
31.12.2019 01:29 -1.1 C 85 % 1022.1 hPa 0.0 l/m 0.7 km/h (0 Bft) SW 225 0 min 5.8 km/h (2 Bft)
31.12.2019 01:28 -1.1 C 85 % 1022.1 hPa 0.0 l/m 0.7 km/h (0 Bft) SW 225 0 min 5.8 km/h (2 Bft)
31.12.2019 01:27 -1.1 C 85 % 1022.1 hPa 0.0 l/m 0.0 km/h (0 Bft) W-SW 248 0 min 6.5 km/h (2 Bft)
31.12.2019 01:26 -1.1 C 85 % 1022.1 hPa 0.0 l/m 0.0 km/h (0 Bft) W-SW 248 0 min 6.5 km/h (2 Bft)
31.12.2019 01:25 -1.1 C 85 % 1022.1 hPa 0.0 l/m 0.0 km/h (0 Bft) W 270 0 min 0.0 km/h (0 Bft)
31.12.2019 01:24 -1.1 C 85 % 1022.1 hPa 0.0 l/m 0.0 km/h (0 Bft) W-SW 248 0 min 0.0 km/h (0 Bft)
31.12.2019 01:23 -1.1 C 85 % 1022.1 hPa 0.0 l/m 0.0 km/h (0 Bft) W-SW 248 0 min 0.0 km/h (0 Bft)
31.12.2019 01:22 -1.1 C 85 % 1022.1 hPa 0.0 l/m 0.4 km/h (0 Bft) S-SW 203 0 min 0.0 km/h (0 Bft)
31.12.2019 01:21 -1.1 C 85 % 1022.1 hPa 0.0 l/m 0.4 km/h (0 Bft) S-SW 203 0 min 0.0 km/h (0 Bft)
31.12.2019 01:20 -1.1 C 85 % 1022.1 hPa 0.0 l/m 0.4 km/h (0 Bft) SO 135 0 min 0.0 km/h (0 Bft)
31.12.2019 01:19 -1.1 C 85 % 1022.1 hPa 0.0 l/m 0.4 km/h (0 Bft) SO 135 0 min 0.0 km/h (0 Bft)
31.12.2019 01:18 -1.1 C 85 % 1022.1 hPa 0.0 l/m 0.7 km/h (0 Bft) O 90 0 min 0.0 km/h (0 Bft)
31.12.2019 01:17 -1.1 C 85 % 1022.1 hPa 0.0 l/m 0.7 km/h (0 Bft) O 90 0 min 0.0 km/h (0 Bft)
31.12.2019 01:16 -1.1 C 85 % 1021.9 hPa 0.0 l/m 1.4 km/h (1 Bft) O-NO 68 0 min 0.0 km/h (0 Bft)
31.12.2019 01:15 -1.1 C 85 % 1021.9 hPa 0.0 l/m 1.4 km/h (1 Bft) O-NO 68 0 min 0.0 km/h (0 Bft)
31.12.2019 01:14 -1.1 C 85 % 1021.9 hPa 0.0 l/m 2.2 km/h (1 Bft) N-NW 338 0 min 0.0 km/h (0 Bft)
31.12.2019 01:13 -1.1 C 85 % 1021.9 hPa 0.0 l/m 2.2 km/h (1 Bft) N-NW 338 0 min 0.0 km/h (0 Bft)
31.12.2019 01:12 -1.1 C 85 % 1021.9 hPa 0.0 l/m 2.2 km/h (1 Bft) O 90 0 min 3.6 km/h (1 Bft)
31.12.2019 01:11 -1.1 C 85 % 1021.9 hPa 0.0 l/m 2.2 km/h (1 Bft) O 90 0 min 3.6 km/h (1 Bft)
31.12.2019 01:10 -1.1 C 85 % 1021.9 hPa 0.0 l/m 1.8 km/h (1 Bft) O-NO 68 0 min 0.0 km/h (0 Bft)
31.12.2019 01:09 -1.1 C 85 % 1021.9 hPa 0.0 l/m 1.8 km/h (1 Bft) O-NO 68 0 min 0.0 km/h (0 Bft)
31.12.2019 01:08 -1.2 C 85 % 1021.9 hPa 0.0 l/m 1.8 km/h (1 Bft) SO 135 0 min 2.5 km/h (1 Bft)
31.12.2019 01:07 -1.2 C 85 % 1021.9 hPa 0.0 l/m 1.8 km/h (1 Bft) SO 135 0 min 2.5 km/h (1 Bft)
31.12.2019 01:06 -1.1 C 85 % 1021.9 hPa 0.0 l/m 1.4 km/h (1 Bft) SO 135 0 min 6.8 km/h (2 Bft)
31.12.2019 01:05 -1.1 C 85 % 1021.9 hPa 0.0 l/m 1.4 km/h (1 Bft) SO 135 0 min 6.8 km/h (2 Bft)
31.12.2019 01:04 -1.1 C 85 % 1021.9 hPa 0.0 l/m 0.4 km/h (0 Bft) O-SO 113 0 min 2.5 km/h (1 Bft)
31.12.2019 01:03 -1.1 C 85 % 1021.9 hPa 0.0 l/m 0.4 km/h (0 Bft) O-SO 113 0 min 2.5 km/h (1 Bft)
31.12.2019 01:02 -1.1 C 85 % 1021.9 hPa 0.0 l/m 0.4 km/h (0 Bft) O-NO 68 0 min 0.0 km/h (0 Bft)
31.12.2019 01:01 -1.2 C 85 % 1021.9 hPa 0.0 l/m 0.4 km/h (0 Bft) O-NO 68 0 min 0.0 km/h (0 Bft)
31.12.2019 01:00 -1.2 C 85 % 1021.9 hPa 0.0 l/m 0.4 km/h (0 Bft) O-NO 68 0 min 0.0 km/h (0 Bft)
31.12.2019 00:59 -1.2 C 85 % 1021.9 hPa 0.0 l/m 0.4 km/h (0 Bft) O-NO 68 0 min 0.0 km/h (0 Bft)
31.12.2019 00:58 -1.2 C 85 % 1021.9 hPa 0.0 l/m 0.4 km/h (0 Bft) O-NO 68 0 min 0.0 km/h (0 Bft)
31.12.2019 00:57 -1.2 C 85 % 1021.9 hPa 0.0 l/m 0.7 km/h (0 Bft) SO 135 0 min 0.0 km/h (0 Bft)
31.12.2019 00:56 -1.2 C 85 % 1021.9 hPa 0.0 l/m 0.7 km/h (0 Bft) SO 135 0 min 0.0 km/h (0 Bft)
31.12.2019 00:55 -1.1 C 85 % 1021.9 hPa 0.0 l/m 1.4 km/h (1 Bft) O 90 0 min 0.0 km/h (0 Bft)
31.12.2019 00:54 -1.1 C 85 % 1021.9 hPa 0.0 l/m 1.4 km/h (1 Bft) O 90 0 min 0.0 km/h (0 Bft)
31.12.2019 00:53 -1.1 C 85 % 1021.9 hPa 0.0 l/m 1.4 km/h (1 Bft) SO 135 0 min 0.0 km/h (0 Bft)
31.12.2019 00:52 -1.1 C 85 % 1021.9 hPa 0.0 l/m 1.4 km/h (1 Bft) SO 135 0 min 0.0 km/h (0 Bft)
31.12.2019 00:51 -1.1 C 85 % 1021.9 hPa 0.0 l/m 2.5 km/h (1 Bft) O 90 0 min 0.0 km/h (0 Bft)
31.12.2019 00:50 -1.1 C 85 % 1021.9 hPa 0.0 l/m 2.5 km/h (1 Bft) O 90 0 min 0.0 km/h (0 Bft)
31.12.2019 00:49 -1.3 C 85 % 1021.9 hPa 0.0 l/m 2.9 km/h (1 Bft) SW 225 0 min 0.0 km/h (0 Bft)
31.12.2019 00:48 -1.3 C 85 % 1021.9 hPa 0.0 l/m 2.9 km/h (1 Bft) SW 225 0 min 0.0 km/h (0 Bft)
31.12.2019 00:47 -1.3 C 85 % 1021.9 hPa 0.0 l/m 2.5 km/h (1 Bft) O-NO 68 0 min 2.9 km/h (1 Bft)
31.12.2019 00:46 -1.3 C 85 % 1021.9 hPa 0.0 l/m 2.5 km/h (1 Bft) O-NO 68 0 min 2.9 km/h (1 Bft)
31.12.2019 00:45 -1.3 C 85 % 1021.9 hPa 0.0 l/m 2.5 km/h (1 Bft) S-SO 158 0 min 4.3 km/h (1 Bft)
31.12.2019 00:44 -1.3 C 85 % 1021.9 hPa 0.0 l/m 2.5 km/h (1 Bft) S-SO 158 0 min 4.3 km/h (1 Bft)
31.12.2019 00:43 -1.3 C 85 % 1021.9 hPa 0.0 l/m 2.5 km/h (1 Bft) O-NO 68 0 min 3.6 km/h (1 Bft)
31.12.2019 00:42 -1.3 C 85 % 1021.9 hPa 0.0 l/m 2.3 km/h (1 Bft) O-NO 68 0 min 5.8 km/h (2 Bft)
31.12.2019 00:41 -1.3 C 85 % 1021.9 hPa 0.0 l/m 2.2 km/h (1 Bft) S-SO 158 0 min 5.8 km/h (2 Bft)
31.12.2019 00:40 -1.3 C 85 % 1021.9 hPa 0.0 l/m 1.4 km/h (1 Bft) N 0 0 min 4.3 km/h (1 Bft)
31.12.2019 00:39 -1.3 C 85 % 1021.9 hPa 0.0 l/m 1.4 km/h (1 Bft) N 0 0 min 4.3 km/h (1 Bft)
31.12.2019 00:38 -1.4 C 85 % 1021.9 hPa 0.0 l/m 1.4 km/h (1 Bft) NO 45 0 min 5.0 km/h (1 Bft)
31.12.2019 00:37 -1.4 C 85 % 1021.9 hPa 0.0 l/m 1.4 km/h (1 Bft) NO 45 0 min 5.0 km/h (1 Bft)
31.12.2019 00:36 -1.3 C 85 % 1022.5 hPa 0.0 l/m 1.4 km/h (1 Bft) S-SO 158 0 min 4.0 km/h (1 Bft)
31.12.2019 00:35 -1.3 C 85 % 1022.5 hPa 0.0 l/m 1.4 km/h (1 Bft) S-SO 158 0 min 4.0 km/h (1 Bft)
31.12.2019 00:34 -1.3 C 86 % 1022.5 hPa 0.0 l/m 0.7 km/h (0 Bft) SO 135 0 min 5.0 km/h (1 Bft)
31.12.2019 00:33 -1.3 C 86 % 1022.5 hPa 0.0 l/m 0.7 km/h (0 Bft) SO 135 0 min 5.0 km/h (1 Bft)
31.12.2019 00:32 -1.4 C 86 % 1022.5 hPa 0.0 l/m 0.7 km/h (0 Bft) O-NO 68 0 min 0.0 km/h (0 Bft)
31.12.2019 00:31 -1.4 C 86 % 1022.5 hPa 0.0 l/m 0.7 km/h (0 Bft) O-NO 68 0 min 0.0 km/h (0 Bft)
31.12.2019 00:30 -1.4 C 86 % 1022.5 hPa 0.0 l/m 0.7 km/h (0 Bft) S 180 0 min 3.6 km/h (1 Bft)
31.12.2019 00:29 -1.4 C 86 % 1022.5 hPa 0.0 l/m 0.7 km/h (0 Bft) S 180 0 min 3.6 km/h (1 Bft)
31.12.2019 00:28 -1.5 C 86 % 1022.5 hPa 0.0 l/m 0.4 km/h (0 Bft) O 90 0 min 4.3 km/h (1 Bft)
31.12.2019 00:27 -1.5 C 86 % 1022.5 hPa 0.0 l/m 0.4 km/h (0 Bft) O 90 0 min 4.3 km/h (1 Bft)
31.12.2019 00:26 -1.3 C 86 % 1022.5 hPa 0.0 l/m 0.4 km/h (0 Bft) NO 45 0 min 0.0 km/h (0 Bft)
31.12.2019 00:25 -1.3 C 86 % 1022.5 hPa 0.0 l/m 0.4 km/h (0 Bft) NO 45 0 min 0.0 km/h (0 Bft)
31.12.2019 00:24 -1.5 C 86 % 1022.5 hPa 0.0 l/m 0.0 km/h (0 Bft) O-NO 68 0 min 0.0 km/h (0 Bft)
31.12.2019 00:23 -1.5 C 86 % 1022.5 hPa 0.0 l/m 0.0 km/h (0 Bft) O-NO 68 0 min 0.0 km/h (0 Bft)
31.12.2019 00:22 -1.5 C 86 % 1022.5 hPa 0.0 l/m 0.0 km/h (0 Bft) N-NO 23 0 min 0.0 km/h (0 Bft)
31.12.2019 00:21 -1.5 C 86 % 1022.5 hPa 0.0 l/m 0.0 km/h (0 Bft) N-NO 23 0 min 0.0 km/h (0 Bft)
31.12.2019 00:20 -1.5 C 86 % 1022.5 hPa 0.0 l/m 0.4 km/h (0 Bft) O-SO 113 0 min 0.0 km/h (0 Bft)
31.12.2019 00:19 -1.5 C 86 % 1022.5 hPa 0.0 l/m 0.4 km/h (0 Bft) O-SO 113 0 min 0.0 km/h (0 Bft)
31.12.2019 00:18 -1.5 C 86 % 1022.5 hPa 0.0 l/m 0.4 km/h (0 Bft) W-NW 293 0 min 0.0 km/h (0 Bft)
31.12.2019 00:17 -1.5 C 86 % 1022.5 hPa 0.0 l/m 0.4 km/h (0 Bft) W-NW 293 0 min 0.0 km/h (0 Bft)
31.12.2019 00:16 -1.5 C 86 % 1022.3 hPa 0.0 l/m 0.4 km/h (0 Bft) W-NW 293 0 min 0.0 km/h (0 Bft)
31.12.2019 00:15 -1.5 C 86 % 1022.3 hPa 0.0 l/m 0.4 km/h (0 Bft) W-SW 248 0 min 0.0 km/h (0 Bft)
31.12.2019 00:14 -1.5 C 86 % 1022.3 hPa 0.0 l/m 0.6 km/h (0 Bft) W-SW 248 0 min 0.0 km/h (0 Bft)
31.12.2019 00:13 -1.5 C 86 % 1022.3 hPa 0.0 l/m 0.7 km/h (0 Bft) W-SW 248 0 min 0.0 km/h (0 Bft)
31.12.2019 00:12 -1.5 C 86 % 1022.3 hPa 0.0 l/m 0.7 km/h (0 Bft) W-SW 248 0 min 0.0 km/h (0 Bft)
31.12.2019 00:11 -1.5 C 86 % 1022.3 hPa 0.0 l/m 1.4 km/h (1 Bft) N 0 0 min 0.0 km/h (0 Bft)
31.12.2019 00:10 -1.5 C 86 % 1022.3 hPa 0.0 l/m 1.4 km/h (1 Bft) N 0 0 min 0.0 km/h (0 Bft)
31.12.2019 00:09 -1.5 C 86 % 1022.3 hPa 0.0 l/m 1.4 km/h (1 Bft) O-NO 68 0 min 0.0 km/h (0 Bft)
31.12.2019 00:08 -1.5 C 86 % 1022.3 hPa 0.0 l/m 1.4 km/h (1 Bft) O-NO 68 0 min 0.0 km/h (0 Bft)
31.12.2019 00:07 -1.5 C 86 % 1022.3 hPa 0.0 l/m 1.4 km/h (1 Bft) N 0 0 min 0.0 km/h (0 Bft)
31.12.2019 00:06 -1.5 C 86 % 1022.3 hPa 0.0 l/m 1.4 km/h (1 Bft) N 0 0 min 0.0 km/h (0 Bft)
31.12.2019 00:05 -1.5 C 86 % 1022.3 hPa 0.0 l/m 1.4 km/h (1 Bft) NW 315 0 min 0.0 km/h (0 Bft)
31.12.2019 00:04 -1.5 C 86 % 1022.3 hPa 0.0 l/m 1.4 km/h (1 Bft) NW 315 0 min 0.0 km/h (0 Bft)
31.12.2019 00:03 -1.5 C 86 % 1022.3 hPa 0.0 l/m 1.4 km/h (1 Bft) S-SW 203 0 min 5.8 km/h (2 Bft)
31.12.2019 00:02 -1.5 C 86 % 1022.3 hPa 0.0 l/m 2.1 km/h (1 Bft) S-SW 203 0 min 8.7 km/h (2 Bft)
31.12.2019 00:01 -1.5 C 86 % 1022.3 hPa 0.0 l/m 1.4 km/h (1 Bft) W-SW 248 0 min 8.3 km/h (2 Bft)
31.12.2019 00:00 -1.5 C 86 % 1022.3 hPa 0.0 l/m 1.4 km/h (1 Bft) W-SW 248 0 min 8.3 km/h (2 Bft)
_ Min-Zeit 07:56 11:59 14:36 - 00:21 - - - 00:04
Minimum _ -2.7 C 69 % 1021.3 hPa - 0.0 km/h (0 Bft) - - - 0.0 km/h (0 Bft)
_ Max-Zeit 12:09 22:03 23:39 00:00 13:10 - - 09:00 10:48
Maximum _ 5.7 C 90 % 1023.4 hPa 0.0 l/m 4.7 km/h
N (1 Bft)
- - 1 min 12.6 km/h
SO (3 Bft)
Durchschnitt _ 0.0 C 84 % 1022.3 hPa #0.0 l/m 1.2 km/h (1 Bft) O-NO - 0 min 1.7 km/h (1 Bft)